PWSweather.com
Personal Weather Stations
Station Observations
KMNHANSK2
Andys Live Weather Stations, Hanska, MN 56041

Andys Live Weather StationsHanska, MN 56041

Lat: 44.170119, Lon: -94.381619

Elevation: 1004

Station Type: Davis Instruments Vantage Pro2 Plus

http://www.madeliasliveweather.com/thompsonfarms/

High Low Average
Temperature 63.7°F17.6°F 38.4°F3.6°F 54.6°F12.6°F
Dew Point 48.6°F9.2°F 35.5°F1.9°F 44.6°F7.0°F
Winds 20.0 mph S32.2 mph S 2.0 mph 3.2 mph 8.1 mph 13.0 mph
Wind Gusts 21.0 mph33.8 mph 7.0 mph11.3 mph 13.5 mph21.7 mph
Humidity 92% 57% 71%
Pressure 30.10 in1019.30 in 29.87 in1011.50 in -
Precipitation 0.00 in0.00 in - -
Hour Temp Dew Point Humidity Winds Wind Gusts Pressure Precip Precip Rate Daily Precip Total
12:00 AM 38.5°F3.6°C 35.6°F2.0°C 89% 6.0 mph SSE9.7 kmh SSE 8.0 mph12.9 kmh 30.10 in1019.3 mb 0.00 in0.0 mm 0.00 in/hr0.0 mm/hr 0.00 in0.0 mm
12:01 AM 38.5°F3.6°C 35.6°F2.0°C 89% 6.0 mph SSE9.7 kmh SSE 8.0 mph12.9 kmh 30.10 in1019.3 mb 0.00 in0.0 mm 0.00 in/hr0.0 mm/hr 0.00 in0.0 mm
12:02 AM 38.5°F3.6°C 35.6°F2.0°C 89% 7.0 mph SSE11.3 kmh SSE 7.0 mph11.3 kmh 30.10 in1019.3 mb 0.00 in0.0 mm 0.00 in/hr0.0 mm/hr 0.00 in0.0 mm
12:03 AM 38.4°F3.6°C 35.5°F1.9°C 89% 6.0 mph SSE9.7 kmh SSE 7.0 mph11.3 kmh 30.10 in1019.3 mb 0.00 in0.0 mm 0.00 in/hr0.0 mm/hr 0.00 in0.0 mm
12:04 AM 38.4°F3.6°C 35.7°F2.1°C 90% 6.0 mph SSE9.7 kmh SSE 7.0 mph11.3 kmh 30.10 in1019.3 mb 0.00 in0.0 mm 0.00 in/hr0.0 mm/hr 0.00 in0.0 mm
12:05 AM 38.4°F3.6°C 35.7°F2.1°C 90% 5.0 mph SSE8.0 kmh SSE 7.0 mph11.3 kmh 30.10 in1019.3 mb 0.00 in0.0 mm 0.00 in/hr0.0 mm/hr 0.00 in0.0 mm
12:06 AM 38.4°F3.6°C 35.7°F2.1°C 90% 5.0 mph SSE8.0 kmh SSE 7.0 mph11.3 kmh 30.10 in1019.3 mb 0.00 in0.0 mm 0.00 in/hr0.0 mm/hr 0.00 in0.0 mm
12:07 AM 38.4°F3.6°C 35.7°F2.1°C 90% 5.0 mph SSE8.0 kmh SSE 7.0 mph11.3 kmh 30.10 in1019.3 mb 0.00 in0.0 mm 0.00 in/hr0.0 mm/hr 0.00 in0.0 mm
12:08 AM 38.4°F3.6°C 35.7°F2.1°C 90% 5.0 mph SSE8.0 kmh SSE 7.0 mph11.3 kmh 30.10 in1019.3 mb 0.00 in0.0 mm 0.00 in/hr0.0 mm/hr 0.00 in0.0 mm
12:09 AM 38.4°F3.6°C 35.7°F2.1°C 90% 5.0 mph S8.0 kmh S 7.0 mph11.3 kmh 30.10 in1019.3 mb 0.00 in0.0 mm 0.00 in/hr0.0 mm/hr 0.00 in0.0 mm
12:10 AM 38.4°F3.6°C 35.7°F2.1°C 90% 5.0 mph SSE8.0 kmh SSE 7.0 mph11.3 kmh 30.10 in1019.3 mb 0.00 in0.0 mm 0.00 in/hr0.0 mm/hr 0.00 in0.0 mm
12:11 AM 38.4°F3.6°C 35.7°F2.1°C 90% 5.0 mph SSE8.0 kmh SSE 7.0 mph11.3 kmh 30.10 in1019.3 mb 0.00 in0.0 mm 0.00 in/hr0.0 mm/hr 0.00 in0.0 mm
12:12 AM 38.4°F3.6°C 36.0°F2.2°C 91% 7.0 mph SSE11.3 kmh SSE 7.0 mph11.3 kmh 30.10 in1019.3 mb 0.00 in0.0 mm 0.00 in/hr0.0 mm/hr 0.00 in0.0 mm
12:13 AM 38.4°F3.6°C 36.0°F2.2°C 91% 6.0 mph S9.7 kmh S 7.0 mph11.3 kmh 30.10 in1019.3 mb 0.00 in0.0 mm 0.00 in/hr0.0 mm/hr 0.00 in0.0 mm
12:14 AM 38.5°F3.6°C 36.1°F2.3°C 91% 6.0 mph S9.7 kmh S 7.0 mph11.3 kmh 30.10 in1019.3 mb 0.00 in0.0 mm 0.00 in/hr0.0 mm/hr 0.00 in0.0 mm
12:15 AM 38.5°F3.6°C 36.1°F2.3°C 91% 6.0 mph SSE9.7 kmh SSE 7.0 mph11.3 kmh 30.10 in1019.3 mb 0.00 in0.0 mm 0.00 in/hr0.0 mm/hr 0.00 in0.0 mm
12:16 AM 38.5°F3.6°C 36.1°F2.3°C 91% 5.0 mph S8.0 kmh S 7.0 mph11.3 kmh 30.10 in1019.3 mb 0.00 in0.0 mm 0.00 in/hr0.0 mm/hr 0.00 in0.0 mm
12:17 AM 38.5°F3.6°C 36.1°F2.3°C 91% 5.0 mph S8.0 kmh S 7.0 mph11.3 kmh 30.10 in1019.3 mb 0.00 in0.0 mm 0.00 in/hr0.0 mm/hr 0.00 in0.0 mm
12:18 AM 38.6°F3.7°C 36.2°F2.3°C 91% 6.0 mph S9.7 kmh S 7.0 mph11.3 kmh 30.10 in1019.3 mb 0.00 in0.0 mm 0.00 in/hr0.0 mm/hr 0.00 in0.0 mm
12:19 AM 38.6°F3.7°C 36.2°F2.3°C 91% 6.0 mph S9.7 kmh S 7.0 mph11.3 kmh 30.10 in1019.3 mb 0.00 in0.0 mm 0.00 in/hr0.0 mm/hr 0.00 in0.0 mm
12:20 AM 38.6°F3.7°C 36.2°F2.3°C 91% 6.0 mph S9.7 kmh S 7.0 mph11.3 kmh 30.10 in1019.3 mb 0.00 in0.0 mm 0.00 in/hr0.0 mm/hr 0.00 in0.0 mm
12:21 AM 38.6°F3.7°C 36.2°F2.3°C 91% 6.0 mph S9.7 kmh S 8.0 mph12.9 kmh 30.10 in1019.3 mb 0.00 in0.0 mm 0.00 in/hr0.0 mm/hr 0.00 in0.0 mm
12:22 AM 38.6°F3.7°C 36.2°F2.3°C 91% 6.0 mph S9.7 kmh S 8.0 mph12.9 kmh 30.10 in1019.3 mb 0.00 in0.0 mm 0.00 in/hr0.0 mm/hr 0.00 in0.0 mm
12:23 AM 38.7°F3.7°C 36.3°F2.4°C 91% 6.0 mph S9.7 kmh S 8.0 mph12.9 kmh 30.10 in1019.3 mb 0.00 in0.0 mm 0.00 in/hr0.0 mm/hr 0.00 in0.0 mm
12:24 AM 38.7°F3.7°C 36.3°F2.4°C 91% 6.0 mph S9.7 kmh S 8.0 mph12.9 kmh 30.10 in1019.3 mb 0.00 in0.0 mm 0.00 in/hr0.0 mm/hr 0.00 in0.0 mm
12:25 AM 38.7°F3.7°C 36.3°F2.4°C 91% 7.0 mph S11.3 kmh S 8.0 mph12.9 kmh 30.10 in1019.3 mb 0.00 in0.0 mm 0.00 in/hr0.0 mm/hr 0.00 in0.0 mm
12:26 AM 38.7°F3.7°C 36.3°F2.4°C 91% 6.0 mph SSE9.7 kmh SSE 8.0 mph12.9 kmh 30.10 in1019.3 mb 0.00 in0.0 mm 0.00 in/hr0.0 mm/hr 0.00 in0.0 mm
12:27 AM 38.8°F3.8°C 36.4°F2.4°C 91% 6.0 mph S9.7 kmh S 8.0 mph12.9 kmh 30.09 in1019.0 mb 0.00 in0.0 mm 0.00 in/hr0.0 mm/hr 0.00 in0.0 mm
12:28 AM 38.8°F3.8°C 36.4°F2.4°C 91% 7.0 mph SSE11.3 kmh SSE 8.0 mph12.9 kmh 30.09 in1019.0 mb 0.00 in0.0 mm 0.00 in/hr0.0 mm/hr 0.00 in0.0 mm
12:29 AM 38.8°F3.8°C 36.4°F2.4°C 91% 6.0 mph SSE9.7 kmh SSE 8.0 mph12.9 kmh 30.09 in1019.0 mb 0.00 in0.0 mm 0.00 in/hr0.0 mm/hr 0.00 in0.0 mm
12:30 AM 38.9°F3.8°C 36.5°F2.5°C 91% 8.0 mph SSE12.9 kmh SSE 9.0 mph14.5 kmh 30.09 in1019.0 mb 0.00 in0.0 mm 0.00 in/hr0.0 mm/hr 0.00 in0.0 mm
12:31 AM 38.9°F3.8°C 36.5°F2.5°C 91% 6.0 mph S9.7 kmh S 9.0 mph14.5 kmh 30.09 in1019.0 mb 0.00 in0.0 mm 0.00 in/hr0.0 mm/hr 0.00 in0.0 mm
12:32 AM 38.9°F3.8°C 36.5°F2.5°C 91% 7.0 mph S11.3 kmh S 8.0 mph12.9 kmh 30.09 in1019.0 mb 0.00 in0.0 mm 0.00 in/hr0.0 mm/hr 0.00 in0.0 mm
12:33 AM 39.0°F3.9°C 36.6°F2.6°C 91% 6.0 mph S9.7 kmh S 9.0 mph14.5 kmh 30.09 in1019.0 mb 0.00 in0.0 mm 0.00 in/hr0.0 mm/hr 0.00 in0.0 mm
12:34 AM 39.0°F3.9°C 36.6°F2.6°C 91% 8.0 mph SSE12.9 kmh SSE 9.0 mph14.5 kmh 30.09 in1019.0 mb 0.00 in0.0 mm 0.00 in/hr0.0 mm/hr 0.00 in0.0 mm
12:35 AM 39.0°F3.9°C 36.6°F2.6°C 91% 9.0 mph SSE14.5 kmh SSE 9.0 mph14.5 kmh 30.09 in1019.0 mb 0.00 in0.0 mm 0.00 in/hr0.0 mm/hr 0.00 in0.0 mm
12:36 AM 39.0°F3.9°C 36.6°F2.6°C 91% 7.0 mph SSE11.3 kmh SSE 9.0 mph14.5 kmh 30.09 in1019.0 mb 0.00 in0.0 mm 0.00 in/hr0.0 mm/hr 0.00 in0.0 mm
12:37 AM 39.1°F3.9°C 36.7°F2.6°C 91% 6.0 mph SSE9.7 kmh SSE 9.0 mph14.5 kmh 30.09 in1019.0 mb 0.00 in0.0 mm 0.00 in/hr0.0 mm/hr 0.00 in0.0 mm
12:38 AM 39.1°F3.9°C 36.7°F2.6°C 91% 7.0 mph SSE11.3 kmh SSE 9.0 mph14.5 kmh 30.09 in1019.0 mb 0.00 in0.0 mm 0.00 in/hr0.0 mm/hr 0.00 in0.0 mm
12:39 AM 39.2°F4.0°C 36.8°F2.7°C 91% 7.0 mph S11.3 kmh S 10.0 mph16.1 kmh 30.09 in1019.0 mb 0.00 in0.0 mm 0.00 in/hr0.0 mm/hr 0.00 in0.0 mm
12:40 AM 39.2°F4.0°C 36.8°F2.7°C 91% 6.0 mph SSE9.7 kmh SSE 10.0 mph16.1 kmh 30.09 in1019.0 mb 0.00 in0.0 mm 0.00 in/hr0.0 mm/hr 0.00 in0.0 mm
12:41 AM 39.2°F4.0°C 36.8°F2.7°C 91% 7.0 mph SSE11.3 kmh SSE 10.0 mph16.1 kmh 30.09 in1019.0 mb 0.00 in0.0 mm 0.00 in/hr0.0 mm/hr 0.00 in0.0 mm
12:42 AM 39.2°F4.0°C 36.8°F2.7°C 91% 6.0 mph S9.7 kmh S 10.0 mph16.1 kmh 30.09 in1019.0 mb 0.00 in0.0 mm 0.00 in/hr0.0 mm/hr 0.00 in0.0 mm
12:43 AM 39.3°F4.1°C 36.9°F2.7°C 91% 6.0 mph SSE9.7 kmh SSE 10.0 mph16.1 kmh 30.09 in1019.0 mb 0.00 in0.0 mm 0.00 in/hr0.0 mm/hr 0.00 in0.0 mm
12:44 AM 39.3°F4.1°C 36.9°F2.7°C 91% 8.0 mph S12.9 kmh S 10.0 mph16.1 kmh 30.09 in1019.0 mb 0.00 in0.0 mm 0.00 in/hr0.0 mm/hr 0.00 in0.0 mm
12:45 AM 39.3°F4.1°C 36.9°F2.7°C 91% 9.0 mph SSE14.5 kmh SSE 10.0 mph16.1 kmh 30.08 in1018.6 mb 0.00 in0.0 mm 0.00 in/hr0.0 mm/hr 0.00 in0.0 mm
12:46 AM 39.3°F4.1°C 36.9°F2.7°C 91% 8.0 mph SSE12.9 kmh SSE 10.0 mph16.1 kmh 30.08 in1018.6 mb 0.00 in0.0 mm 0.00 in/hr0.0 mm/hr 0.00 in0.0 mm
12:47 AM 39.4°F4.1°C 37.0°F2.8°C 91% 7.0 mph SSE11.3 kmh SSE 10.0 mph16.1 kmh 30.08 in1018.6 mb 0.00 in0.0 mm 0.00 in/hr0.0 mm/hr 0.00 in0.0 mm
12:48 AM 39.4°F4.1°C 37.0°F2.8°C 91% 7.0 mph S11.3 kmh S 10.0 mph16.1 kmh 30.08 in1018.6 mb 0.00 in0.0 mm 0.00 in/hr0.0 mm/hr 0.00 in0.0 mm
12:49 AM 39.4°F4.1°C 37.0°F2.8°C 91% 7.0 mph S11.3 kmh S 10.0 mph16.1 kmh 30.08 in1018.6 mb 0.00 in0.0 mm 0.00 in/hr0.0 mm/hr 0.00 in0.0 mm
12:50 AM 39.4°F4.1°C 37.0°F2.8°C 91% 6.0 mph SSE9.7 kmh SSE 10.0 mph16.1 kmh 30.08 in1018.6 mb 0.00 in0.0 mm 0.00 in/hr0.0 mm/hr 0.00 in0.0 mm
12:51 AM 39.4°F4.1°C 37.0°F2.8°C 91% 8.0 mph S12.9 kmh S 10.0 mph16.1 kmh 30.08 in1018.6 mb 0.00 in0.0 mm 0.00 in/hr0.0 mm/hr 0.00 in0.0 mm
12:52 AM 39.4°F4.1°C 37.0°F2.8°C 91% 5.0 mph SSE8.0 kmh SSE 10.0 mph16.1 kmh 30.08 in1018.6 mb 0.00 in0.0 mm 0.00 in/hr0.0 mm/hr 0.00 in0.0 mm
12:53 AM 39.4°F4.1°C 37.0°F2.8°C 91% 6.0 mph SSE9.7 kmh SSE 10.0 mph16.1 kmh 30.08 in1018.6 mb 0.00 in0.0 mm 0.00 in/hr0.0 mm/hr 0.00 in0.0 mm
12:54 AM 39.4°F4.1°C 37.0°F2.8°C 91% 6.0 mph SSE9.7 kmh SSE 10.0 mph16.1 kmh 30.08 in1018.6 mb 0.00 in0.0 mm 0.00 in/hr0.0 mm/hr 0.00 in0.0 mm
12:55 AM 39.4°F4.1°C 37.0°F2.8°C 91% 8.0 mph S12.9 kmh S 10.0 mph16.1 kmh 30.08 in1018.6 mb 0.00 in0.0 mm 0.00 in/hr0.0 mm/hr 0.00 in0.0 mm
12:56 AM 39.4°F4.1°C 37.0°F2.8°C 91% 7.0 mph S11.3 kmh S 10.0 mph16.1 kmh 30.08 in1018.6 mb 0.00 in0.0 mm 0.00 in/hr0.0 mm/hr 0.00 in0.0 mm
12:57 AM 39.3°F4.1°C 36.9°F2.7°C 91% 7.0 mph SSE11.3 kmh SSE 10.0 mph16.1 kmh 30.08 in1018.6 mb 0.00 in0.0 mm 0.00 in/hr0.0 mm/hr 0.00 in0.0 mm
12:58 AM 39.3°F4.1°C 36.9°F2.7°C 91% 6.0 mph SSE9.7 kmh SSE 10.0 mph16.1 kmh 30.08 in1018.6 mb 0.00 in0.0 mm 0.00 in/hr0.0 mm/hr 0.00 in0.0 mm
12:59 AM 39.3°F4.1°C 36.9°F2.7°C 91% 6.0 mph SSE9.7 kmh SSE 10.0 mph16.1 kmh 30.08 in1018.6 mb 0.00 in0.0 mm 0.00 in/hr0.0 mm/hr 0.00 in0.0 mm
01:00 AM 39.3°F4.1°C 36.9°F2.7°C 91% 7.0 mph SSE11.3 kmh SSE 10.0 mph16.1 kmh 30.08 in1018.6 mb 0.00 in0.0 mm 0.00 in/hr0.0 mm/hr 0.00 in0.0 mm
01:01 AM 39.3°F4.1°C 36.9°F2.7°C 91% 7.0 mph S11.3 kmh S 10.0 mph16.1 kmh 30.08 in1018.6 mb 0.00 in0.0 mm 0.00 in/hr0.0 mm/hr 0.00 in0.0 mm
01:02 AM 39.4°F4.1°C 37.0°F2.8°C 91% 7.0 mph SSE11.3 kmh SSE 7.0 mph11.3 kmh 30.08 in1018.6 mb 0.00 in0.0 mm 0.00 in/hr0.0 mm/hr 0.00 in0.0 mm
01:03 AM 39.3°F4.1°C 36.9°F2.7°C 91% 5.0 mph SSE8.0 kmh SSE 8.0 mph12.9 kmh 30.08 in1018.6 mb 0.00 in0.0 mm 0.00 in/hr0.0 mm/hr 0.00 in0.0 mm
01:04 AM 39.4°F4.1°C 37.0°F2.8°C 91% 5.0 mph S8.0 kmh S 8.0 mph12.9 kmh 30.08 in1018.6 mb 0.00 in0.0 mm 0.00 in/hr0.0 mm/hr 0.00 in0.0 mm
01:05 AM 39.3°F4.1°C 36.9°F2.7°C 91% 5.0 mph S8.0 kmh S 8.0 mph12.9 kmh 30.08 in1018.6 mb 0.00 in0.0 mm 0.00 in/hr0.0 mm/hr 0.00 in0.0 mm
01:06 AM 39.3°F4.1°C 36.9°F2.7°C 91% 7.0 mph S11.3 kmh S 8.0 mph12.9 kmh 30.08 in1018.6 mb 0.00 in0.0 mm 0.00 in/hr0.0 mm/hr 0.00 in0.0 mm
01:07 AM 39.3°F4.1°C 36.9°F2.7°C 91% 6.0 mph S9.7 kmh S 8.0 mph12.9 kmh 30.08 in1018.6 mb 0.00 in0.0 mm 0.00 in/hr0.0 mm/hr 0.00 in0.0 mm
01:08 AM 39.3°F4.1°C 36.9°F2.7°C 91% 6.0 mph S9.7 kmh S 8.0 mph12.9 kmh 30.08 in1018.6 mb 0.00 in0.0 mm 0.00 in/hr0.0 mm/hr 0.00 in0.0 mm
01:09 AM 39.3°F4.1°C 36.9°F2.7°C 91% 7.0 mph S11.3 kmh S 9.0 mph14.5 kmh 30.08 in1018.6 mb 0.00 in0.0 mm 0.00 in/hr0.0 mm/hr 0.00 in0.0 mm
01:10 AM 39.3°F4.1°C 36.9°F2.7°C 91% 8.0 mph SSE12.9 kmh SSE 9.0 mph14.5 kmh 30.08 in1018.6 mb 0.00 in0.0 mm 0.00 in/hr0.0 mm/hr 0.00 in0.0 mm
01:11 AM 39.4°F4.1°C 37.0°F2.8°C 91% 6.0 mph S9.7 kmh S 9.0 mph14.5 kmh 30.08 in1018.6 mb 0.00 in0.0 mm 0.00 in/hr0.0 mm/hr 0.00 in0.0 mm
01:12 AM 39.4°F4.1°C 37.0°F2.8°C 91% 4.0 mph S6.4 kmh S 9.0 mph14.5 kmh 30.08 in1018.6 mb 0.00 in0.0 mm 0.00 in/hr0.0 mm/hr 0.00 in0.0 mm
01:13 AM 39.4°F4.1°C 37.0°F2.8°C 91% 6.0 mph S9.7 kmh S 9.0 mph14.5 kmh 30.08 in1018.6 mb 0.00 in0.0 mm 0.00 in/hr0.0 mm/hr 0.00 in0.0 mm
01:14 AM 39.4°F4.1°C 37.0°F2.8°C 91% 7.0 mph S11.3 kmh S 9.0 mph14.5 kmh 30.08 in1018.6 mb 0.00 in0.0 mm 0.00 in/hr0.0 mm/hr 0.00 in0.0 mm
01:15 AM 39.4°F4.1°C 37.0°F2.8°C 91% 6.0 mph S9.7 kmh S 9.0 mph14.5 kmh 30.08 in1018.6 mb 0.00 in0.0 mm 0.00 in/hr0.0 mm/hr 0.00 in0.0 mm
01:16 AM 39.5°F4.2°C 37.1°F2.8°C 91% 6.0 mph SSE9.7 kmh SSE 9.0 mph14.5 kmh 30.08 in1018.6 mb 0.00 in0.0 mm 0.00 in/hr0.0 mm/hr 0.00 in0.0 mm
01:17 AM 39.5°F4.2°C 37.1°F2.8°C 91% 6.0 mph SSE9.7 kmh SSE 9.0 mph14.5 kmh 30.08 in1018.6 mb 0.00 in0.0 mm 0.00 in/hr0.0 mm/hr 0.00 in0.0 mm
01:18 AM 39.5°F4.2°C 37.1°F2.8°C 91% 6.0 mph S9.7 kmh S 10.0 mph16.1 kmh 30.08 in1018.6 mb 0.00 in0.0 mm 0.00 in/hr0.0 mm/hr 0.00 in0.0 mm
01:19 AM 39.5°F4.2°C 37.1°F2.8°C 91% 7.0 mph S11.3 kmh S 10.0 mph16.1 kmh 30.08 in1018.6 mb 0.00 in0.0 mm 0.00 in/hr0.0 mm/hr 0.00 in0.0 mm
01:20 AM 39.5°F4.2°C 37.1°F2.8°C 91% 5.0 mph S8.0 kmh S 10.0 mph16.1 kmh 30.08 in1018.6 mb 0.00 in0.0 mm 0.00 in/hr0.0 mm/hr 0.00 in0.0 mm
01:21 AM 39.6°F4.2°C 37.2°F2.9°C 91% 6.0 mph S9.7 kmh S 10.0 mph16.1 kmh 30.08 in1018.6 mb 0.00 in0.0 mm 0.00 in/hr0.0 mm/hr 0.00 in0.0 mm
01:22 AM 39.6°F4.2°C 37.2°F2.9°C 91% 5.0 mph S8.0 kmh S 10.0 mph16.1 kmh 30.08 in1018.6 mb 0.00 in0.0 mm 0.00 in/hr0.0 mm/hr 0.00 in0.0 mm
01:23 AM 39.6°F4.2°C 37.2°F2.9°C 91% 6.0 mph S9.7 kmh S 10.0 mph16.1 kmh 30.08 in1018.6 mb 0.00 in0.0 mm 0.00 in/hr0.0 mm/hr 0.00 in0.0 mm
01:24 AM 39.6°F4.2°C 37.2°F2.9°C 91% 7.0 mph S11.3 kmh S 10.0 mph16.1 kmh 30.08 in1018.6 mb 0.00 in0.0 mm 0.00 in/hr0.0 mm/hr 0.00 in0.0 mm
01:25 AM 39.7°F4.3°C 37.3°F2.9°C 91% 5.0 mph S8.0 kmh S 10.0 mph16.1 kmh 30.08 in1018.6 mb 0.00 in0.0 mm 0.00 in/hr0.0 mm/hr 0.00 in0.0 mm
01:26 AM 39.7°F4.3°C 37.3°F2.9°C 91% 6.0 mph S9.7 kmh S 10.0 mph16.1 kmh 30.08 in1018.6 mb 0.00 in0.0 mm 0.00 in/hr0.0 mm/hr 0.00 in0.0 mm
01:27 AM 39.7°F4.3°C 37.0°F2.8°C 90% 6.0 mph S9.7 kmh S 10.0 mph16.1 kmh 30.08 in1018.6 mb 0.00 in0.0 mm 0.00 in/hr0.0 mm/hr 0.00 in0.0 mm
01:28 AM 39.7°F4.3°C 37.0°F2.8°C 90% 5.0 mph SSW8.0 kmh SSW 10.0 mph16.1 kmh 30.08 in1018.6 mb 0.00 in0.0 mm 0.00 in/hr0.0 mm/hr 0.00 in0.0 mm
01:29 AM 39.7°F4.3°C 37.0°F2.8°C 90% 6.0 mph SW9.7 kmh SW 10.0 mph16.1 kmh 30.08 in1018.6 mb 0.00 in0.0 mm 0.00 in/hr0.0 mm/hr 0.00 in0.0 mm
01:30 AM 39.6°F4.2°C 36.9°F2.7°C 90% 7.0 mph S11.3 kmh S 10.0 mph16.1 kmh 30.08 in1018.6 mb 0.00 in0.0 mm 0.00 in/hr0.0 mm/hr 0.00 in0.0 mm
01:31 AM 39.6°F4.2°C 36.9°F2.7°C 90% 5.0 mph S8.0 kmh S 10.0 mph16.1 kmh 30.08 in1018.6 mb 0.00 in0.0 mm 0.00 in/hr0.0 mm/hr 0.00 in0.0 mm
01:32 AM 39.5°F4.2°C 36.8°F2.7°C 90% 7.0 mph S11.3 kmh S 8.0 mph12.9 kmh 30.08 in1018.6 mb 0.00 in0.0 mm 0.00 in/hr0.0 mm/hr 0.00 in0.0 mm
01:33 AM 39.5°F4.2°C 36.8°F2.7°C 90% 6.0 mph S9.7 kmh S 9.0 mph14.5 kmh 30.08 in1018.6 mb 0.00 in0.0 mm 0.00 in/hr0.0 mm/hr 0.00 in0.0 mm
01:34 AM 39.4°F4.1°C 36.7°F2.6°C 90% 7.0 mph S11.3 kmh S 9.0 mph14.5 kmh 30.08 in1018.6 mb 0.00 in0.0 mm 0.00 in/hr0.0 mm/hr 0.00 in0.0 mm
01:35 AM 39.4°F4.1°C 36.7°F2.6°C 90% 7.0 mph S11.3 kmh S 9.0 mph14.5 kmh 30.08 in1018.6 mb 0.00 in0.0 mm 0.00 in/hr0.0 mm/hr 0.00 in0.0 mm
01:36 AM 39.4°F4.1°C 36.7°F2.6°C 90% 8.0 mph S12.9 kmh S 9.0 mph14.5 kmh 30.08 in1018.6 mb 0.00 in0.0 mm 0.00 in/hr0.0 mm/hr 0.00 in0.0 mm
01:37 AM 39.3°F4.1°C 36.6°F2.6°C 90% 7.0 mph SSW11.3 kmh SSW 9.0 mph14.5 kmh 30.08 in1018.6 mb 0.00 in0.0 mm 0.00 in/hr0.0 mm/hr 0.00 in0.0 mm
01:38 AM 39.3°F4.1°C 36.6°F2.6°C 90% 7.0 mph S11.3 kmh S 9.0 mph14.5 kmh 30.08 in1018.6 mb 0.00 in0.0 mm 0.00 in/hr0.0 mm/hr 0.00 in0.0 mm
01:39 AM 39.3°F4.1°C 36.6°F2.6°C 90% 7.0 mph S11.3 kmh S 9.0 mph14.5 kmh 30.08 in1018.6 mb 0.00 in0.0 mm 0.00 in/hr0.0 mm/hr 0.00 in0.0 mm
01:40 AM 39.3°F4.1°C 36.6°F2.6°C 90% 7.0 mph S11.3 kmh S 9.0 mph14.5 kmh 30.08 in1018.6 mb 0.00 in0.0 mm 0.00 in/hr0.0 mm/hr 0.00 in0.0 mm
01:41 AM 39.3°F4.1°C 36.6°F2.6°C 90% 8.0 mph S12.9 kmh S 9.0 mph14.5 kmh 30.08 in1018.6 mb 0.00 in0.0 mm 0.00 in/hr0.0 mm/hr 0.00 in0.0 mm
01:42 AM 39.3°F4.1°C 36.6°F2.6°C 90% 7.0 mph SSW11.3 kmh SSW 9.0 mph14.5 kmh 30.08 in1018.6 mb 0.00 in0.0 mm 0.00 in/hr0.0 mm/hr 0.00 in0.0 mm
01:43 AM 39.3°F4.1°C 36.6°F2.6°C 90% 7.0 mph S11.3 kmh S 9.0 mph14.5 kmh 30.08 in1018.6 mb 0.00 in0.0 mm 0.00 in/hr0.0 mm/hr 0.00 in0.0 mm
01:44 AM 39.4°F4.1°C 36.7°F2.6°C 90% 7.0 mph S11.3 kmh S 9.0 mph14.5 kmh 30.08 in1018.6 mb 0.00 in0.0 mm 0.00 in/hr0.0 mm/hr 0.00 in0.0 mm
01:45 AM 39.4°F4.1°C 36.7°F2.6°C 90% 7.0 mph SSW11.3 kmh SSW 9.0 mph14.5 kmh 30.08 in1018.6 mb 0.00 in0.0 mm 0.00 in/hr0.0 mm/hr 0.00 in0.0 mm
01:46 AM 39.5°F4.2°C 36.8°F2.7°C 90% 7.0 mph S11.3 kmh S 9.0 mph14.5 kmh 30.08 in1018.6 mb 0.00 in0.0 mm 0.00 in/hr0.0 mm/hr 0.00 in0.0 mm
01:47 AM 39.5°F4.2°C 36.8°F2.7°C 90% 7.0 mph S11.3 kmh S 9.0 mph14.5 kmh 30.08 in1018.6 mb 0.00 in0.0 mm 0.00 in/hr0.0 mm/hr 0.00 in0.0 mm
01:48 AM 39.5°F4.2°C 36.8°F2.7°C 90% 8.0 mph S12.9 kmh S 9.0 mph14.5 kmh 30.08 in1018.6 mb 0.00 in0.0 mm 0.00 in/hr0.0 mm/hr 0.00 in0.0 mm
01:49 AM 39.5°F4.2°C 36.8°F2.7°C 90% 8.0 mph S12.9 kmh S 9.0 mph14.5 kmh 30.08 in1018.6 mb 0.00 in0.0 mm 0.00 in/hr0.0 mm/hr 0.00 in0.0 mm
01:50 AM 39.5°F4.2°C 36.8°F2.7°C 90% 6.0 mph S9.7 kmh S 9.0 mph14.5 kmh 30.08 in1018.6 mb 0.00 in0.0 mm 0.00 in/hr0.0 mm/hr 0.00 in0.0 mm
01:51 AM 39.5°F4.2°C 36.8°F2.7°C 90% 6.0 mph S9.7 kmh S 9.0 mph14.5 kmh 30.08 in1018.6 mb 0.00 in0.0 mm 0.00 in/hr0.0 mm/hr 0.00 in0.0 mm
01:52 AM 39.6°F4.2°C 36.9°F2.7°C 90% 7.0 mph S11.3 kmh S 9.0 mph14.5 kmh 30.08 in1018.6 mb 0.00 in0.0 mm 0.00 in/hr0.0 mm/hr 0.00 in0.0 mm
01:53 AM 39.6°F4.2°C 36.9°F2.7°C 90% 4.0 mph S6.4 kmh S 9.0 mph14.5 kmh 30.08 in1018.6 mb 0.00 in0.0 mm 0.00 in/hr0.0 mm/hr 0.00 in0.0 mm
01:54 AM 39.6°F4.2°C 36.9°F2.7°C 90% 6.0 mph S9.7 kmh S 9.0 mph14.5 kmh 30.08 in1018.6 mb 0.00 in0.0 mm 0.00 in/hr0.0 mm/hr 0.00 in0.0 mm
01:55 AM 39.6°F4.2°C 36.9°F2.7°C 90% 7.0 mph S11.3 kmh S 9.0 mph14.5 kmh 30.08 in1018.6 mb 0.00 in0.0 mm 0.00 in/hr0.0 mm/hr 0.00 in0.0 mm
01:56 AM 39.6°F4.2°C 36.9°F2.7°C 90% 6.0 mph S9.7 kmh S 9.0 mph14.5 kmh 30.08 in1018.6 mb 0.00 in0.0 mm 0.00 in/hr0.0 mm/hr 0.00 in0.0 mm
01:57 AM 39.6°F4.2°C 36.9°F2.7°C 90% 8.0 mph S12.9 kmh S 9.0 mph14.5 kmh 30.08 in1018.6 mb 0.00 in0.0 mm 0.00 in/hr0.0 mm/hr 0.00 in0.0 mm
01:58 AM 39.6°F4.2°C 36.9°F2.7°C 90% 7.0 mph S11.3 kmh S 9.0 mph14.5 kmh 30.08 in1018.6 mb 0.00 in0.0 mm 0.00 in/hr0.0 mm/hr 0.00 in0.0 mm
01:59 AM 39.6°F4.2°C 36.9°F2.7°C 90% 6.0 mph S9.7 kmh S 9.0 mph14.5 kmh 30.08 in1018.6 mb 0.00 in0.0 mm 0.00 in/hr0.0 mm/hr 0.00 in0.0 mm
02:00 AM 39.6°F4.2°C 36.9°F2.7°C 90% 6.0 mph S9.7 kmh S 9.0 mph14.5 kmh 30.08 in1018.6 mb 0.00 in0.0 mm 0.00 in/hr0.0 mm/hr 0.00 in0.0 mm
02:01 AM 39.6°F4.2°C 36.9°F2.7°C 90% 7.0 mph S11.3 kmh S 9.0 mph14.5 kmh 30.08 in1018.6 mb 0.00 in0.0 mm 0.00 in/hr0.0 mm/hr 0.00 in0.0 mm
02:02 AM 39.6°F4.2°C 37.2°F2.9°C 91% 6.0 mph S9.7 kmh S 8.0 mph12.9 kmh 30.08 in1018.6 mb 0.00 in0.0 mm 0.00 in/hr0.0 mm/hr 0.00 in0.0 mm
02:03 AM 39.6°F4.2°C 37.2°F2.9°C 91% 6.0 mph S9.7 kmh S 8.0 mph12.9 kmh 30.08 in1018.6 mb 0.00 in0.0 mm 0.00 in/hr0.0 mm/hr 0.00 in0.0 mm
02:04 AM 39.7°F4.3°C 37.3°F2.9°C 91% 6.0 mph S9.7 kmh S 8.0 mph12.9 kmh 30.08 in1018.6 mb 0.00 in0.0 mm 0.00 in/hr0.0 mm/hr 0.00 in0.0 mm
02:05 AM 39.7°F4.3°C 37.3°F2.9°C 91% 8.0 mph S12.9 kmh S 8.0 mph12.9 kmh 30.08 in1018.6 mb 0.00 in0.0 mm 0.00 in/hr0.0 mm/hr 0.00 in0.0 mm
02:06 AM 39.7°F4.3°C 37.3°F2.9°C 91% 6.0 mph S9.7 kmh S 8.0 mph12.9 kmh 30.08 in1018.6 mb 0.00 in0.0 mm 0.00 in/hr0.0 mm/hr 0.00 in0.0 mm
02:07 AM 39.8°F4.3°C 37.4°F3.0°C 91% 7.0 mph S11.3 kmh S 10.0 mph16.1 kmh 30.08 in1018.6 mb 0.00 in0.0 mm 0.00 in/hr0.0 mm/hr 0.00 in0.0 mm
02:08 AM 39.8°F4.3°C 37.4°F3.0°C 91% 7.0 mph S11.3 kmh S 10.0 mph16.1 kmh 30.08 in1018.6 mb 0.00 in0.0 mm 0.00 in/hr0.0 mm/hr 0.00 in0.0 mm
02:09 AM 39.8°F4.3°C 37.4°F3.0°C 91% 8.0 mph S12.9 kmh S 10.0 mph16.1 kmh 30.08 in1018.6 mb 0.00 in0.0 mm 0.00 in/hr0.0 mm/hr 0.00 in0.0 mm
02:10 AM 39.9°F4.4°C 37.5°F3.1°C 91% 7.0 mph SSW11.3 kmh SSW 10.0 mph16.1 kmh 30.08 in1018.6 mb 0.00 in0.0 mm 0.00 in/hr0.0 mm/hr 0.00 in0.0 mm
02:11 AM 39.9°F4.4°C 37.5°F3.1°C 91% 8.0 mph S12.9 kmh S 10.0 mph16.1 kmh 30.08 in1018.6 mb 0.00 in0.0 mm 0.00 in/hr0.0 mm/hr 0.00 in0.0 mm
02:12 AM 39.9°F4.4°C 37.5°F3.1°C 91% 6.0 mph S9.7 kmh S 10.0 mph16.1 kmh 30.08 in1018.6 mb 0.00 in0.0 mm 0.00 in/hr0.0 mm/hr 0.00 in0.0 mm
02:13 AM 40.0°F4.4°C 37.6°F3.1°C 91% 5.0 mph S8.0 kmh S 10.0 mph16.1 kmh 30.08 in1018.6 mb 0.00 in0.0 mm 0.00 in/hr0.0 mm/hr 0.00 in0.0 mm
02:14 AM 40.0°F4.4°C 37.6°F3.1°C 91% 7.0 mph S11.3 kmh S 10.0 mph16.1 kmh 30.08 in1018.6 mb 0.00 in0.0 mm 0.00 in/hr0.0 mm/hr 0.00 in0.0 mm
02:15 AM 40.0°F4.4°C 37.6°F3.1°C 91% 6.0 mph S9.7 kmh S 10.0 mph16.1 kmh 30.08 in1018.6 mb 0.00 in0.0 mm 0.00 in/hr0.0 mm/hr 0.00 in0.0 mm
02:16 AM 40.0°F4.4°C 37.6°F3.1°C 91% 7.0 mph S11.3 kmh S 10.0 mph16.1 kmh 30.08 in1018.6 mb 0.00 in0.0 mm 0.00 in/hr0.0 mm/hr 0.00 in0.0 mm
02:17 AM 40.0°F4.4°C 37.6°F3.1°C 91% 6.0 mph S9.7 kmh S 10.0 mph16.1 kmh 30.07 in1018.3 mb 0.00 in0.0 mm 0.00 in/hr0.0 mm/hr 0.00 in0.0 mm
02:18 AM 40.0°F4.4°C 37.6°F3.1°C 91% 7.0 mph S11.3 kmh S 10.0 mph16.1 kmh 30.07 in1018.3 mb 0.00 in0.0 mm 0.00 in/hr0.0 mm/hr 0.00 in0.0 mm
02:19 AM 40.0°F4.4°C 37.6°F3.1°C 91% 6.0 mph S9.7 kmh S 10.0 mph16.1 kmh 30.07 in1018.3 mb 0.00 in0.0 mm 0.00 in/hr0.0 mm/hr 0.00 in0.0 mm
02:20 AM 40.0°F4.4°C 37.6°F3.1°C 91% 6.0 mph S9.7 kmh S 10.0 mph16.1 kmh 30.08 in1018.6 mb 0.00 in0.0 mm 0.00 in/hr0.0 mm/hr 0.00 in0.0 mm
02:21 AM 40.0°F4.4°C 37.6°F3.1°C 91% 6.0 mph S9.7 kmh S 10.0 mph16.1 kmh 30.07 in1018.3 mb 0.00 in0.0 mm 0.00 in/hr0.0 mm/hr 0.00 in0.0 mm
02:22 AM 40.0°F4.4°C 37.6°F3.1°C 91% 6.0 mph S9.7 kmh S 10.0 mph16.1 kmh 30.07 in1018.3 mb 0.00 in0.0 mm 0.00 in/hr0.0 mm/hr 0.00 in0.0 mm
02:23 AM 40.0°F4.4°C 37.6°F3.1°C 91% 7.0 mph S11.3 kmh S 10.0 mph16.1 kmh 30.07 in1018.3 mb 0.00 in0.0 mm 0.00 in/hr0.0 mm/hr 0.00 in0.0 mm
02:24 AM 40.0°F4.4°C 37.3°F2.9°C 90% 7.0 mph S11.3 kmh S 10.0 mph16.1 kmh 30.08 in1018.6 mb 0.00 in0.0 mm 0.00 in/hr0.0 mm/hr 0.00 in0.0 mm
02:25 AM 39.9°F4.4°C 37.2°F2.9°C 90% 5.0 mph S8.0 kmh S 10.0 mph16.1 kmh 30.07 in1018.3 mb 0.00 in0.0 mm 0.00 in/hr0.0 mm/hr 0.00 in0.0 mm
02:26 AM 39.9°F4.4°C 37.2°F2.9°C 90% 5.0 mph S8.0 kmh S 10.0 mph16.1 kmh 30.07 in1018.3 mb 0.00 in0.0 mm 0.00 in/hr0.0 mm/hr 0.00 in0.0 mm
02:27 AM 39.9°F4.4°C 37.2°F2.9°C 90% 6.0 mph S9.7 kmh S 10.0 mph16.1 kmh 30.07 in1018.3 mb 0.00 in0.0 mm 0.00 in/hr0.0 mm/hr 0.00 in0.0 mm
02:28 AM 39.8°F4.3°C 37.1°F2.8°C 90% 7.0 mph S11.3 kmh S 10.0 mph16.1 kmh 30.07 in1018.3 mb 0.00 in0.0 mm 0.00 in/hr0.0 mm/hr 0.00 in0.0 mm
02:29 AM 39.8°F4.3°C 37.1°F2.8°C 90% 7.0 mph S11.3 kmh S 10.0 mph16.1 kmh 30.07 in1018.3 mb 0.00 in0.0 mm 0.00 in/hr0.0 mm/hr 0.00 in0.0 mm
02:30 AM 39.8°F4.3°C 37.1°F2.8°C 90% 6.0 mph S9.7 kmh S 10.0 mph16.1 kmh 30.07 in1018.3 mb 0.00 in0.0 mm 0.00 in/hr0.0 mm/hr 0.00 in0.0 mm
02:31 AM 39.7°F4.3°C 37.0°F2.8°C 90% 7.0 mph S11.3 kmh S 10.0 mph16.1 kmh 30.07 in1018.3 mb 0.00 in0.0 mm 0.00 in/hr0.0 mm/hr 0.00 in0.0 mm
02:32 AM 39.7°F4.3°C 37.0°F2.8°C 90% 6.0 mph S9.7 kmh S 8.0 mph12.9 kmh 30.07 in1018.3 mb 0.00 in0.0 mm 0.00 in/hr0.0 mm/hr 0.00 in0.0 mm
02:33 AM 39.7°F4.3°C 37.0°F2.8°C 90% 7.0 mph S11.3 kmh S 8.0 mph12.9 kmh 30.07 in1018.3 mb 0.00 in0.0 mm 0.00 in/hr0.0 mm/hr 0.00 in0.0 mm
02:34 AM 39.7°F4.3°C 37.0°F2.8°C 90% 6.0 mph S9.7 kmh S 8.0 mph12.9 kmh 30.07 in1018.3 mb 0.00 in0.0 mm 0.00 in/hr0.0 mm/hr 0.00 in0.0 mm
02:35 AM 39.7°F4.3°C 37.0°F2.8°C 90% 7.0 mph S11.3 kmh S 8.0 mph12.9 kmh 30.07 in1018.3 mb 0.00 in0.0 mm 0.00 in/hr0.0 mm/hr 0.00 in0.0 mm
02:36 AM 39.6°F4.2°C 36.9°F2.7°C 90% 7.0 mph S11.3 kmh S 8.0 mph12.9 kmh 30.07 in1018.3 mb 0.00 in0.0 mm 0.00 in/hr0.0 mm/hr 0.00 in0.0 mm
02:37 AM 39.6°F4.2°C 36.9°F2.7°C 90% 5.0 mph S8.0 kmh S 8.0 mph12.9 kmh 30.07 in1018.3 mb 0.00 in0.0 mm 0.00 in/hr0.0 mm/hr 0.00 in0.0 mm
02:38 AM 39.6°F4.2°C 37.2°F2.9°C 91% 7.0 mph S11.3 kmh S 8.0 mph12.9 kmh 30.07 in1018.3 mb 0.00 in0.0 mm 0.00 in/hr0.0 mm/hr 0.00 in0.0 mm
02:39 AM 39.6°F4.2°C 37.2°F2.9°C 91% 6.0 mph S9.7 kmh S 8.0 mph12.9 kmh 30.07 in1018.3 mb 0.00 in0.0 mm 0.00 in/hr0.0 mm/hr 0.00 in0.0 mm
02:40 AM 39.5°F4.2°C 37.1°F2.8°C 91% 6.0 mph S9.7 kmh S 8.0 mph12.9 kmh 30.07 in1018.3 mb 0.00 in0.0 mm 0.00 in/hr0.0 mm/hr 0.00 in0.0 mm
02:41 AM 39.5°F4.2°C 37.1°F2.8°C 91% 5.0 mph S8.0 kmh S 8.0 mph12.9 kmh 30.07 in1018.3 mb 0.00 in0.0 mm 0.00 in/hr0.0 mm/hr 0.00 in0.0 mm
02:42 AM 39.5°F4.2°C 37.1°F2.8°C 91% 5.0 mph S8.0 kmh S 8.0 mph12.9 kmh 30.07 in1018.3 mb 0.00 in0.0 mm 0.00 in/hr0.0 mm/hr 0.00 in0.0 mm
02:43 AM 39.5°F4.2°C 37.1°F2.8°C 91% 7.0 mph S11.3 kmh S 8.0 mph12.9 kmh 30.07 in1018.3 mb 0.00 in0.0 mm 0.00 in/hr0.0 mm/hr 0.00 in0.0 mm
02:44 AM 39.5°F4.2°C 37.1°F2.8°C 91% 5.0 mph S8.0 kmh S 8.0 mph12.9 kmh 30.07 in1018.3 mb 0.00 in0.0 mm 0.00 in/hr0.0 mm/hr 0.00 in0.0 mm
02:45 AM 39.4°F4.1°C 37.0°F2.8°C 91% 5.0 mph S8.0 kmh S 8.0 mph12.9 kmh 30.07 in1018.3 mb 0.00 in0.0 mm 0.00 in/hr0.0 mm/hr 0.00 in0.0 mm
02:46 AM 39.4°F4.1°C 37.0°F2.8°C 91% 5.0 mph S8.0 kmh S 8.0 mph12.9 kmh 30.07 in1018.3 mb 0.00 in0.0 mm 0.00 in/hr0.0 mm/hr 0.00 in0.0 mm
02:47 AM 39.4°F4.1°C 37.0°F2.8°C 91% 5.0 mph S8.0 kmh S 8.0 mph12.9 kmh 30.07 in1018.3 mb 0.00 in0.0 mm 0.00 in/hr0.0 mm/hr 0.00 in0.0 mm
02:48 AM 39.4°F4.1°C 37.0°F2.8°C 91% 7.0 mph S11.3 kmh S 8.0 mph12.9 kmh 30.07 in1018.3 mb 0.00 in0.0 mm 0.00 in/hr0.0 mm/hr 0.00 in0.0 mm
02:49 AM 39.5°F4.2°C 37.1°F2.8°C 91% 5.0 mph S8.0 kmh S 8.0 mph12.9 kmh 30.07 in1018.3 mb 0.00 in0.0 mm 0.00 in/hr0.0 mm/hr 0.00 in0.0 mm
02:50 AM 39.4°F4.1°C 37.0°F2.8°C 91% 6.0 mph S9.7 kmh S 8.0 mph12.9 kmh 30.07 in1018.3 mb 0.00 in0.0 mm 0.00 in/hr0.0 mm/hr 0.00 in0.0 mm
02:51 AM 39.4°F4.1°C 37.0°F2.8°C 91% 6.0 mph SSE9.7 kmh SSE 8.0 mph12.9 kmh 30.07 in1018.3 mb 0.00 in0.0 mm 0.00 in/hr0.0 mm/hr 0.00 in0.0 mm
02:52 AM 39.4°F4.1°C 37.0°F2.8°C 91% 6.0 mph SSE9.7 kmh SSE 8.0 mph12.9 kmh 30.07 in1018.3 mb 0.00 in0.0 mm 0.00 in/hr0.0 mm/hr 0.00 in0.0 mm
02:53 AM 39.4°F4.1°C 37.0°F2.8°C 91% 6.0 mph SSE9.7 kmh SSE 8.0 mph12.9 kmh 30.06 in1017.9 mb 0.00 in0.0 mm 0.00 in/hr0.0 mm/hr 0.00 in0.0 mm
02:54 AM 39.5°F4.2°C 37.1°F2.8°C 91% 5.0 mph S8.0 kmh S 8.0 mph12.9 kmh 30.06 in1017.9 mb 0.00 in0.0 mm 0.00 in/hr0.0 mm/hr 0.00 in0.0 mm
02:55 AM 39.4°F4.1°C 37.0°F2.8°C 91% 5.0 mph SSE8.0 kmh SSE 8.0 mph12.9 kmh 30.06 in1017.9 mb 0.00 in0.0 mm 0.00 in/hr0.0 mm/hr 0.00 in0.0 mm
02:56 AM 39.5°F4.2°C 37.1°F2.8°C 91% 5.0 mph SSE8.0 kmh SSE 8.0 mph12.9 kmh 30.06 in1017.9 mb 0.00 in0.0 mm 0.00 in/hr0.0 mm/hr 0.00 in0.0 mm
02:57 AM 39.5°F4.2°C 37.1°F2.8°C 91% 6.0 mph SSE9.7 kmh SSE 8.0 mph12.9 kmh 30.06 in1017.9 mb 0.00 in0.0 mm 0.00 in/hr0.0 mm/hr 0.00 in0.0 mm
02:58 AM 39.5°F4.2°C 37.1°F2.8°C 91% 7.0 mph SSE11.3 kmh SSE 8.0 mph12.9 kmh 30.06 in1017.9 mb 0.00 in0.0 mm 0.00 in/hr0.0 mm/hr 0.00 in0.0 mm
02:59 AM 39.4°F4.1°C 37.0°F2.8°C 91% 8.0 mph SSE12.9 kmh SSE 9.0 mph14.5 kmh 30.06 in1017.9 mb 0.00 in0.0 mm 0.00 in/hr0.0 mm/hr 0.00 in0.0 mm
03:00 AM 39.4°F4.1°C 37.0°F2.8°C 91% 7.0 mph S11.3 kmh S 9.0 mph14.5 kmh 30.06 in1017.9 mb 0.00 in0.0 mm 0.00 in/hr0.0 mm/hr 0.00 in0.0 mm
03:01 AM 39.5°F4.2°C 37.1°F2.8°C 91% 6.0 mph S9.7 kmh S 9.0 mph14.5 kmh 30.06 in1017.9 mb 0.00 in0.0 mm 0.00 in/hr0.0 mm/hr 0.00 in0.0 mm
03:02 AM 39.5°F4.2°C 37.1°F2.8°C 91% 6.0 mph S9.7 kmh S 7.0 mph11.3 kmh 30.06 in1017.9 mb 0.00 in0.0 mm 0.00 in/hr0.0 mm/hr 0.00 in0.0 mm
03:03 AM 39.5°F4.2°C 37.4°F3.0°C 92% 6.0 mph S9.7 kmh S 8.0 mph12.9 kmh 30.06 in1017.9 mb 0.00 in0.0 mm 0.00 in/hr0.0 mm/hr 0.00 in0.0 mm
03:04 AM 39.5°F4.2°C 37.1°F2.8°C 91% 9.0 mph S14.5 kmh S 9.0 mph14.5 kmh 30.06 in1017.9 mb 0.00 in0.0 mm 0.00 in/hr0.0 mm/hr 0.00 in0.0 mm
03:05 AM 39.5°F4.2°C 37.1°F2.8°C 91% 6.0 mph S9.7 kmh S 9.0 mph14.5 kmh 30.06 in1017.9 mb 0.00 in0.0 mm 0.00 in/hr0.0 mm/hr 0.00 in0.0 mm
03:06 AM 39.5°F4.2°C 37.4°F3.0°C 92% 6.0 mph S9.7 kmh S 9.0 mph14.5 kmh 30.06 in1017.9 mb 0.00 in0.0 mm 0.00 in/hr0.0 mm/hr 0.00 in0.0 mm
03:07 AM 39.6°F4.2°C 37.5°F3.1°C 92% 6.0 mph SSE9.7 kmh SSE 9.0 mph14.5 kmh 30.06 in1017.9 mb 0.00 in0.0 mm 0.00 in/hr0.0 mm/hr 0.00 in0.0 mm
03:08 AM 39.5°F4.2°C 37.4°F3.0°C 92% 7.0 mph S11.3 kmh S 9.0 mph14.5 kmh 30.06 in1017.9 mb 0.00 in0.0 mm 0.00 in/hr0.0 mm/hr 0.00 in0.0 mm
03:09 AM 39.6°F4.2°C 37.5°F3.1°C 92% 7.0 mph S11.3 kmh S 9.0 mph14.5 kmh 30.05 in1017.6 mb 0.00 in0.0 mm 0.00 in/hr0.0 mm/hr 0.00 in0.0 mm
03:10 AM 39.6°F4.2°C 37.5°F3.1°C 92% 8.0 mph SSE12.9 kmh SSE 9.0 mph14.5 kmh 30.05 in1017.6 mb 0.00 in0.0 mm 0.00 in/hr0.0 mm/hr 0.00 in0.0 mm
03:11 AM 39.6°F4.2°C 37.5°F3.1°C 92% 7.0 mph S11.3 kmh S 9.0 mph14.5 kmh 30.05 in1017.6 mb 0.00 in0.0 mm 0.00 in/hr0.0 mm/hr 0.00 in0.0 mm
03:12 AM 39.7°F4.3°C 37.6°F3.1°C 92% 7.0 mph S11.3 kmh S 9.0 mph14.5 kmh 30.05 in1017.6 mb 0.00 in0.0 mm 0.00 in/hr0.0 mm/hr 0.00 in0.0 mm
03:13 AM 39.7°F4.3°C 37.6°F3.1°C 92% 7.0 mph S11.3 kmh S 10.0 mph16.1 kmh 30.05 in1017.6 mb 0.00 in0.0 mm 0.00 in/hr0.0 mm/hr 0.00 in0.0 mm
03:14 AM 39.7°F4.3°C 37.6°F3.1°C 92% 7.0 mph S11.3 kmh S 10.0 mph16.1 kmh 30.05 in1017.6 mb 0.00 in0.0 mm 0.00 in/hr0.0 mm/hr 0.00 in0.0 mm
03:15 AM 39.8°F4.3°C 37.7°F3.2°C 92% 8.0 mph S12.9 kmh S 11.0 mph17.7 kmh 30.05 in1017.6 mb 0.00 in0.0 mm 0.00 in/hr0.0 mm/hr 0.00 in0.0 mm
03:16 AM 39.9°F4.4°C 37.8°F3.2°C 92% 9.0 mph S14.5 kmh S 12.0 mph19.3 kmh 30.05 in1017.6 mb 0.00 in0.0 mm 0.00 in/hr0.0 mm/hr 0.00 in0.0 mm
03:17 AM 39.9°F4.4°C 37.8°F3.2°C 92% 9.0 mph S14.5 kmh S 12.0 mph19.3 kmh 30.05 in1017.6 mb 0.00 in0.0 mm 0.00 in/hr0.0 mm/hr 0.00 in0.0 mm
03:18 AM 40.0°F4.4°C 37.9°F3.3°C 92% 9.0 mph S14.5 kmh S 12.0 mph19.3 kmh 30.05 in1017.6 mb 0.00 in0.0 mm 0.00 in/hr0.0 mm/hr 0.00 in0.0 mm
03:19 AM 40.1°F4.5°C 38.0°F3.3°C 92% 11.0 mph S17.7 kmh S 12.0 mph19.3 kmh 30.05 in1017.6 mb 0.00 in0.0 mm 0.00 in/hr0.0 mm/hr 0.00 in0.0 mm
03:20 AM 40.1°F4.5°C 38.0°F3.3°C 92% 9.0 mph S14.5 kmh S 12.0 mph19.3 kmh 30.05 in1017.6 mb 0.00 in0.0 mm 0.00 in/hr0.0 mm/hr 0.00 in0.0 mm
03:21 AM 40.2°F4.6°C 38.1°F3.4°C 92% 9.0 mph S14.5 kmh S 12.0 mph19.3 kmh 30.05 in1017.6 mb 0.00 in0.0 mm 0.00 in/hr0.0 mm/hr 0.00 in0.0 mm
03:22 AM 40.2°F4.6°C 38.1°F3.4°C 92% 9.0 mph S14.5 kmh S 12.0 mph19.3 kmh 30.05 in1017.6 mb 0.00 in0.0 mm 0.00 in/hr0.0 mm/hr 0.00 in0.0 mm
03:23 AM 40.2°F4.6°C 38.1°F3.4°C 92% 9.0 mph S14.5 kmh S 12.0 mph19.3 kmh 30.05 in1017.6 mb 0.00 in0.0 mm 0.00 in/hr0.0 mm/hr 0.00 in0.0 mm
03:24 AM 40.2°F4.6°C 38.1°F3.4°C 92% 9.0 mph S14.5 kmh S 12.0 mph19.3 kmh 30.05 in1017.6 mb 0.00 in0.0 mm 0.00 in/hr0.0 mm/hr 0.00 in0.0 mm
03:25 AM 40.2°F4.6°C 38.1°F3.4°C 92% 9.0 mph S14.5 kmh S 12.0 mph19.3 kmh 30.05 in1017.6 mb 0.00 in0.0 mm 0.00 in/hr0.0 mm/hr 0.00 in0.0 mm
03:26 AM 40.2°F4.6°C 38.1°F3.4°C 92% 10.0 mph S16.1 kmh S 12.0 mph19.3 kmh 30.05 in1017.6 mb 0.00 in0.0 mm 0.00 in/hr0.0 mm/hr 0.00 in0.0 mm
03:27 AM 40.5°F4.7°C 38.4°F3.6°C 92% 8.0 mph S12.9 kmh S 12.0 mph19.3 kmh 30.05 in1017.6 mb 0.00 in0.0 mm 0.00 in/hr0.0 mm/hr 0.00 in0.0 mm
03:28 AM 40.6°F4.8°C 38.5°F3.6°C 92% 8.0 mph S12.9 kmh S 12.0 mph19.3 kmh 30.05 in1017.6 mb 0.00 in0.0 mm 0.00 in/hr0.0 mm/hr 0.00 in0.0 mm
03:29 AM 40.6°F4.8°C 38.5°F3.6°C 92% 9.0 mph S14.5 kmh S 12.0 mph19.3 kmh 30.05 in1017.6 mb 0.00 in0.0 mm 0.00 in/hr0.0 mm/hr 0.00 in0.0 mm
03:30 AM 40.6°F4.8°C 38.5°F3.6°C 92% 9.0 mph SSE14.5 kmh SSE 12.0 mph19.3 kmh 30.05 in1017.6 mb 0.00 in0.0 mm 0.00 in/hr0.0 mm/hr 0.00 in0.0 mm
03:31 AM 40.7°F4.8°C 38.3°F3.5°C 91% 8.0 mph SSE12.9 kmh SSE 12.0 mph19.3 kmh 30.05 in1017.6 mb 0.00 in0.0 mm 0.00 in/hr0.0 mm/hr 0.00 in0.0 mm
03:32 AM 40.7°F4.8°C 38.3°F3.5°C 91% 9.0 mph SSE14.5 kmh SSE 10.0 mph16.1 kmh 30.05 in1017.6 mb 0.00 in0.0 mm 0.00 in/hr0.0 mm/hr 0.00 in0.0 mm
03:33 AM 40.7°F4.8°C 38.3°F3.5°C 91% 6.0 mph S9.7 kmh S 13.0 mph20.9 kmh 30.04 in1017.3 mb 0.00 in0.0 mm 0.00 in/hr0.0 mm/hr 0.00 in0.0 mm
03:34 AM 40.8°F4.9°C 38.4°F3.6°C 91% 8.0 mph S12.9 kmh S 13.0 mph20.9 kmh 30.04 in1017.3 mb 0.00 in0.0 mm 0.00 in/hr0.0 mm/hr 0.00 in0.0 mm
03:35 AM 40.8°F4.9°C 38.4°F3.6°C 91% 10.0 mph S16.1 kmh S 13.0 mph20.9 kmh 30.04 in1017.3 mb 0.00 in0.0 mm 0.00 in/hr0.0 mm/hr 0.00 in0.0 mm
03:36 AM 40.8°F4.9°C 38.4°F3.6°C 91% 7.0 mph S11.3 kmh S 13.0 mph20.9 kmh 30.04 in1017.3 mb 0.00 in0.0 mm 0.00 in/hr0.0 mm/hr 0.00 in0.0 mm
03:37 AM 40.8°F4.9°C 38.4°F3.6°C 91% 7.0 mph S11.3 kmh S 13.0 mph20.9 kmh 30.04 in1017.3 mb 0.00 in0.0 mm 0.00 in/hr0.0 mm/hr 0.00 in0.0 mm
03:38 AM 40.8°F4.9°C 38.4°F3.6°C 91% 10.0 mph S16.1 kmh S 13.0 mph20.9 kmh 30.04 in1017.3 mb 0.00 in0.0 mm 0.00 in/hr0.0 mm/hr 0.00 in0.0 mm
03:39 AM 40.8°F4.9°C 38.4°F3.6°C 91% 9.0 mph SSE14.5 kmh SSE 13.0 mph20.9 kmh 30.04 in1017.3 mb 0.00 in0.0 mm 0.00 in/hr0.0 mm/hr 0.00 in0.0 mm
03:40 AM 40.8°F4.9°C 38.4°F3.6°C 91% 8.0 mph S12.9 kmh S 13.0 mph20.9 kmh 30.04 in1017.3 mb 0.00 in0.0 mm 0.00 in/hr0.0 mm/hr 0.00 in0.0 mm
03:41 AM 40.8°F4.9°C 38.4°F3.6°C 91% 7.0 mph S11.3 kmh S 13.0 mph20.9 kmh 30.04 in1017.3 mb 0.00 in0.0 mm 0.00 in/hr0.0 mm/hr 0.00 in0.0 mm
03:42 AM 40.9°F4.9°C 38.5°F3.6°C 91% 8.0 mph SSE12.9 kmh SSE 13.0 mph20.9 kmh 30.04 in1017.3 mb 0.00 in0.0 mm 0.00 in/hr0.0 mm/hr 0.00 in0.0 mm
03:43 AM 40.8°F4.9°C 38.4°F3.6°C 91% 9.0 mph S14.5 kmh S 13.0 mph20.9 kmh 30.04 in1017.3 mb 0.00 in0.0 mm 0.00 in/hr0.0 mm/hr 0.00 in0.0 mm
03:44 AM 40.8°F4.9°C 38.4°F3.6°C 91% 8.0 mph SSE12.9 kmh SSE 13.0 mph20.9 kmh 30.04 in1017.3 mb 0.00 in0.0 mm 0.00 in/hr0.0 mm/hr 0.00 in0.0 mm
03:45 AM 40.8°F4.9°C 38.4°F3.6°C 91% 11.0 mph SSE17.7 kmh SSE 13.0 mph20.9 kmh 30.04 in1017.3 mb 0.00 in0.0 mm 0.00 in/hr0.0 mm/hr 0.00 in0.0 mm
03:46 AM 40.8°F4.9°C 38.4°F3.6°C 91% 8.0 mph SSE12.9 kmh SSE 13.0 mph20.9 kmh 30.04 in1017.3 mb 0.00 in0.0 mm 0.00 in/hr0.0 mm/hr 0.00 in0.0 mm
03:47 AM 40.8°F4.9°C 38.4°F3.6°C 91% 7.0 mph S11.3 kmh S 13.0 mph20.9 kmh 30.04 in1017.3 mb 0.00 in0.0 mm 0.00 in/hr0.0 mm/hr 0.00 in0.0 mm
03:48 AM 40.9°F4.9°C 38.5°F3.6°C 91% 9.0 mph SSE14.5 kmh SSE 13.0 mph20.9 kmh 30.03 in1016.9 mb 0.00 in0.0 mm 0.00 in/hr0.0 mm/hr 0.00 in0.0 mm
03:49 AM 40.8°F4.9°C 38.4°F3.6°C 91% 8.0 mph S12.9 kmh S 13.0 mph20.9 kmh 30.03 in1016.9 mb 0.00 in0.0 mm 0.00 in/hr0.0 mm/hr 0.00 in0.0 mm
03:50 AM 40.9°F4.9°C 38.5°F3.6°C 91% 8.0 mph S12.9 kmh S 13.0 mph20.9 kmh 30.03 in1016.9 mb 0.00 in0.0 mm 0.00 in/hr0.0 mm/hr 0.00 in0.0 mm
03:51 AM 40.9°F4.9°C 38.5°F3.6°C 91% 9.0 mph SSE14.5 kmh SSE 13.0 mph20.9 kmh 30.03 in1016.9 mb 0.00 in0.0 mm 0.00 in/hr0.0 mm/hr 0.00 in0.0 mm
03:52 AM 40.9°F4.9°C 38.5°F3.6°C 91% 6.0 mph S9.7 kmh S 13.0 mph20.9 kmh 30.03 in1016.9 mb 0.00 in0.0 mm 0.00 in/hr0.0 mm/hr 0.00 in0.0 mm
03:53 AM 40.8°F4.9°C 38.4°F3.6°C 91% 7.0 mph S11.3 kmh S 13.0 mph20.9 kmh 30.03 in1016.9 mb 0.00 in0.0 mm 0.00 in/hr0.0 mm/hr 0.00 in0.0 mm
03:54 AM 40.9°F4.9°C 38.5°F3.6°C 91% 8.0 mph S12.9 kmh S 13.0 mph20.9 kmh 30.03 in1016.9 mb 0.00 in0.0 mm 0.00 in/hr0.0 mm/hr 0.00 in0.0 mm
03:55 AM 40.9°F4.9°C 38.5°F3.6°C 91% 8.0 mph S12.9 kmh S 13.0 mph20.9 kmh 30.03 in1016.9 mb 0.00 in0.0 mm 0.00 in/hr0.0 mm/hr 0.00 in0.0 mm
03:56 AM 40.9°F4.9°C 38.5°F3.6°C 91% 7.0 mph S11.3 kmh S 13.0 mph20.9 kmh 30.03 in1016.9 mb 0.00 in0.0 mm 0.00 in/hr0.0 mm/hr 0.00 in0.0 mm
03:57 AM 40.9°F4.9°C 38.5°F3.6°C 91% 7.0 mph S11.3 kmh S 13.0 mph20.9 kmh 30.03 in1016.9 mb 0.00 in0.0 mm 0.00 in/hr0.0 mm/hr 0.00 in0.0 mm
03:58 AM 40.9°F4.9°C 38.5°F3.6°C 91% 7.0 mph S11.3 kmh S 13.0 mph20.9 kmh 30.03 in1016.9 mb 0.00 in0.0 mm 0.00 in/hr0.0 mm/hr 0.00 in0.0 mm
03:59 AM 40.9°F4.9°C 38.5°F3.6°C 91% 7.0 mph S11.3 kmh S 13.0 mph20.9 kmh 30.03 in1016.9 mb 0.00 in0.0 mm 0.00 in/hr0.0 mm/hr 0.00 in0.0 mm
04:00 AM 40.9°F4.9°C 38.5°F3.6°C 91% 7.0 mph S11.3 kmh S 13.0 mph20.9 kmh 30.03 in1016.9 mb 0.00 in0.0 mm 0.00 in/hr0.0 mm/hr 0.00 in0.0 mm
04:01 AM 40.9°F4.9°C 38.5°F3.6°C 91% 10.0 mph S16.1 kmh S 13.0 mph20.9 kmh 30.03 in1016.9 mb 0.00 in0.0 mm 0.00 in/hr0.0 mm/hr 0.00 in0.0 mm
04:02 AM 40.9°F4.9°C 38.5°F3.6°C 91% 7.0 mph S11.3 kmh S 11.0 mph17.7 kmh 30.03 in1016.9 mb 0.00 in0.0 mm 0.00 in/hr0.0 mm/hr 0.00 in0.0 mm
04:03 AM 40.9°F4.9°C 38.5°F3.6°C 91% 6.0 mph S9.7 kmh S 11.0 mph17.7 kmh 30.03 in1016.9 mb 0.00 in0.0 mm 0.00 in/hr0.0 mm/hr 0.00 in0.0 mm
04:04 AM 40.9°F4.9°C 38.5°F3.6°C 91% 7.0 mph S11.3 kmh S 11.0 mph17.7 kmh 30.03 in1016.9 mb 0.00 in0.0 mm 0.00 in/hr0.0 mm/hr 0.00 in0.0 mm
04:05 AM 40.9°F4.9°C 38.5°F3.6°C 91% 6.0 mph S9.7 kmh S 11.0 mph17.7 kmh 30.03 in1016.9 mb 0.00 in0.0 mm 0.00 in/hr0.0 mm/hr 0.00 in0.0 mm
04:06 AM 40.9°F4.9°C 38.5°F3.6°C 91% 5.0 mph S8.0 kmh S 11.0 mph17.7 kmh 30.03 in1016.9 mb 0.00 in0.0 mm 0.00 in/hr0.0 mm/hr 0.00 in0.0 mm
04:07 AM 40.9°F4.9°C 38.5°F3.6°C 91% 8.0 mph S12.9 kmh S 11.0 mph17.7 kmh 30.03 in1016.9 mb 0.00 in0.0 mm 0.00 in/hr0.0 mm/hr 0.00 in0.0 mm
04:08 AM 40.9°F4.9°C 38.5°F3.6°C 91% 7.0 mph S11.3 kmh S 11.0 mph17.7 kmh 30.03 in1016.9 mb 0.00 in0.0 mm 0.00 in/hr0.0 mm/hr 0.00 in0.0 mm
04:09 AM 40.9°F4.9°C 38.5°F3.6°C 91% 7.0 mph S11.3 kmh S 11.0 mph17.7 kmh 30.03 in1016.9 mb 0.00 in0.0 mm 0.00 in/hr0.0 mm/hr 0.00 in0.0 mm
04:10 AM 40.9°F4.9°C 38.5°F3.6°C 91% 6.0 mph SSE9.7 kmh SSE 11.0 mph17.7 kmh 30.03 in1016.9 mb 0.00 in0.0 mm 0.00 in/hr0.0 mm/hr 0.00 in0.0 mm
04:11 AM 40.9°F4.9°C 38.5°F3.6°C 91% 6.0 mph S9.7 kmh S 11.0 mph17.7 kmh 30.03 in1016.9 mb 0.00 in0.0 mm 0.00 in/hr0.0 mm/hr 0.00 in0.0 mm
04:12 AM 40.9°F4.9°C 38.5°F3.6°C 91% 6.0 mph SSE9.7 kmh SSE 11.0 mph17.7 kmh 30.03 in1016.9 mb 0.00 in0.0 mm 0.00 in/hr0.0 mm/hr 0.00 in0.0 mm
04:13 AM 40.9°F4.9°C 38.5°F3.6°C 91% 6.0 mph S9.7 kmh S 11.0 mph17.7 kmh 30.03 in1016.9 mb 0.00 in0.0 mm 0.00 in/hr0.0 mm/hr 0.00 in0.0 mm
04:14 AM 40.9°F4.9°C 38.5°F3.6°C 91% 6.0 mph SSE9.7 kmh SSE 11.0 mph17.7 kmh 30.03 in1016.9 mb 0.00 in0.0 mm 0.00 in/hr0.0 mm/hr 0.00 in0.0 mm
04:15 AM 40.9°F4.9°C 38.5°F3.6°C 91% 7.0 mph S11.3 kmh S 11.0 mph17.7 kmh 30.03 in1016.9 mb 0.00 in0.0 mm 0.00 in/hr0.0 mm/hr 0.00 in0.0 mm
04:16 AM 40.9°F4.9°C 38.5°F3.6°C 91% 6.0 mph S9.7 kmh S 11.0 mph17.7 kmh 30.03 in1016.9 mb 0.00 in0.0 mm 0.00 in/hr0.0 mm/hr 0.00 in0.0 mm
04:17 AM 40.9°F4.9°C 38.5°F3.6°C 91% 7.0 mph S11.3 kmh S 11.0 mph17.7 kmh 30.03 in1016.9 mb 0.00 in0.0 mm 0.00 in/hr0.0 mm/hr 0.00 in0.0 mm
04:18 AM 40.9°F4.9°C 38.5°F3.6°C 91% 6.0 mph S9.7 kmh S 11.0 mph17.7 kmh 30.03 in1016.9 mb 0.00 in0.0 mm 0.00 in/hr0.0 mm/hr 0.00 in0.0 mm
04:19 AM 40.9°F4.9°C 38.5°F3.6°C 91% 6.0 mph S9.7 kmh S 11.0 mph17.7 kmh 30.03 in1016.9 mb 0.00 in0.0 mm 0.00 in/hr0.0 mm/hr 0.00 in0.0 mm
04:20 AM 40.9°F4.9°C 38.5°F3.6°C 91% 5.0 mph S8.0 kmh S 11.0 mph17.7 kmh 30.03 in1016.9 mb 0.00 in0.0 mm 0.00 in/hr0.0 mm/hr 0.00 in0.0 mm
04:21 AM 40.9°F4.9°C 38.5°F3.6°C 91% 7.0 mph S11.3 kmh S 11.0 mph17.7 kmh 30.03 in1016.9 mb 0.00 in0.0 mm 0.00 in/hr0.0 mm/hr 0.00 in0.0 mm
04:22 AM 41.0°F5.0°C 38.6°F3.7°C 91% 6.0 mph S9.7 kmh S 11.0 mph17.7 kmh 30.03 in1016.9 mb 0.00 in0.0 mm 0.00 in/hr0.0 mm/hr 0.00 in0.0 mm
04:23 AM 41.0°F5.0°C 38.6°F3.7°C 91% 7.0 mph SSW11.3 kmh SSW 11.0 mph17.7 kmh 30.03 in1016.9 mb 0.00 in0.0 mm 0.00 in/hr0.0 mm/hr 0.00 in0.0 mm
04:24 AM 41.1°F5.1°C 38.7°F3.7°C 91% 7.0 mph S11.3 kmh S 11.0 mph17.7 kmh 30.03 in1016.9 mb 0.00 in0.0 mm 0.00 in/hr0.0 mm/hr 0.00 in0.0 mm
04:25 AM 41.1°F5.1°C 38.7°F3.7°C 91% 7.0 mph SSW11.3 kmh SSW 11.0 mph17.7 kmh 30.03 in1016.9 mb 0.00 in0.0 mm 0.00 in/hr0.0 mm/hr 0.00 in0.0 mm
04:26 AM 41.2°F5.1°C 39.1°F3.9°C 92% 8.0 mph S12.9 kmh S 11.0 mph17.7 kmh 30.03 in1016.9 mb 0.00 in0.0 mm 0.00 in/hr0.0 mm/hr 0.00 in0.0 mm
04:27 AM 41.3°F5.2°C 39.2°F4.0°C 92% 9.0 mph S14.5 kmh S 11.0 mph17.7 kmh 30.03 in1016.9 mb 0.00 in0.0 mm 0.00 in/hr0.0 mm/hr 0.00 in0.0 mm
04:28 AM 41.4°F5.2°C 39.3°F4.1°C 92% 8.0 mph S12.9 kmh S 11.0 mph17.7 kmh 30.02 in1016.6 mb 0.00 in0.0 mm 0.00 in/hr0.0 mm/hr 0.00 in0.0 mm
04:29 AM 41.5°F5.3°C 39.4°F4.1°C 92% 8.0 mph S12.9 kmh S 13.0 mph20.9 kmh 30.02 in1016.6 mb 0.00 in0.0 mm 0.00 in/hr0.0 mm/hr 0.00 in0.0 mm
04:30 AM 41.7°F5.4°C 39.6°F4.2°C 92% 11.0 mph S17.7 kmh S 13.0 mph20.9 kmh 30.02 in1016.6 mb 0.00 in0.0 mm 0.00 in/hr0.0 mm/hr 0.00 in0.0 mm
04:31 AM 41.8°F5.4°C 39.7°F4.3°C 92% 10.0 mph S16.1 kmh S 13.0 mph20.9 kmh 30.02 in1016.6 mb 0.00 in0.0 mm 0.00 in/hr0.0 mm/hr 0.00 in0.0 mm
04:32 AM 41.9°F5.5°C 39.8°F4.3°C 92% 7.0 mph S11.3 kmh S 13.0 mph20.9 kmh 30.02 in1016.6 mb 0.00 in0.0 mm 0.00 in/hr0.0 mm/hr 0.00 in0.0 mm
04:33 AM 42.0°F5.6°C 39.9°F4.4°C 92% 10.0 mph S16.1 kmh S 14.0 mph22.5 kmh 30.02 in1016.6 mb 0.00 in0.0 mm 0.00 in/hr0.0 mm/hr 0.00 in0.0 mm
04:34 AM 42.1°F5.6°C 39.7°F4.3°C 91% 11.0 mph S17.7 kmh S 14.0 mph22.5 kmh 30.02 in1016.6 mb 0.00 in0.0 mm 0.00 in/hr0.0 mm/hr 0.00 in0.0 mm
04:35 AM 42.3°F5.7°C 39.9°F4.4°C 91% 13.0 mph S20.9 kmh S 14.0 mph22.5 kmh 30.02 in1016.6 mb 0.00 in0.0 mm 0.00 in/hr0.0 mm/hr 0.00 in0.0 mm
04:36 AM 42.4°F5.8°C 40.0°F4.4°C 91% 11.0 mph S17.7 kmh S 14.0 mph22.5 kmh 30.02 in1016.6 mb 0.00 in0.0 mm 0.00 in/hr0.0 mm/hr 0.00 in0.0 mm
04:37 AM 42.5°F5.8°C 40.1°F4.5°C 91% 13.0 mph S20.9 kmh S 14.0 mph22.5 kmh 30.02 in1016.6 mb 0.00 in0.0 mm 0.00 in/hr0.0 mm/hr 0.00 in0.0 mm
04:38 AM 42.5°F5.8°C 40.1°F4.5°C 91% 13.0 mph S20.9 kmh S 14.0 mph22.5 kmh 30.02 in1016.6 mb 0.00 in0.0 mm 0.00 in/hr0.0 mm/hr 0.00 in0.0 mm
04:39 AM 42.7°F5.9°C 40.3°F4.6°C 91% 12.0 mph S19.3 kmh S 15.0 mph24.1 kmh 30.02 in1016.6 mb 0.00 in0.0 mm 0.00 in/hr0.0 mm/hr 0.00 in0.0 mm
04:40 AM 42.8°F6.0°C 40.4°F4.7°C 91% 17.0 mph S27.4 kmh S 18.0 mph29.0 kmh 30.02 in1016.6 mb 0.00 in0.0 mm 0.00 in/hr0.0 mm/hr 0.00 in0.0 mm
04:41 AM 42.9°F6.1°C 40.2°F4.6°C 90% 13.0 mph S20.9 kmh S 18.0 mph29.0 kmh 30.02 in1016.6 mb 0.00 in0.0 mm 0.00 in/hr0.0 mm/hr 0.00 in0.0 mm
04:42 AM 43.1°F6.2°C 40.4°F4.7°C 90% 15.0 mph S24.1 kmh S 18.0 mph29.0 kmh 30.02 in1016.6 mb 0.00 in0.0 mm 0.00 in/hr0.0 mm/hr 0.00 in0.0 mm
04:43 AM 43.2°F6.2°C 40.5°F4.7°C 90% 15.0 mph S24.1 kmh S 18.0 mph29.0 kmh 30.02 in1016.6 mb 0.00 in0.0 mm 0.00 in/hr0.0 mm/hr 0.00 in0.0 mm
04:44 AM 43.3°F6.3°C 40.6°F4.8°C 90% 16.0 mph S25.7 kmh S 18.0 mph29.0 kmh 30.02 in1016.6 mb 0.00 in0.0 mm 0.00 in/hr0.0 mm/hr 0.00 in0.0 mm
04:45 AM 43.5°F6.4°C 40.8°F4.9°C 90% 18.0 mph S29.0 kmh S 18.0 mph29.0 kmh 30.02 in1016.6 mb 0.00 in0.0 mm 0.00 in/hr0.0 mm/hr 0.00 in0.0 mm
04:46 AM 43.7°F6.5°C 41.0°F5.0°C 90% 16.0 mph S25.7 kmh S 19.0 mph30.6 kmh 30.02 in1016.6 mb 0.00 in0.0 mm 0.00 in/hr0.0 mm/hr 0.00 in0.0 mm
04:47 AM 43.8°F6.6°C 40.8°F4.9°C 89% 15.0 mph SSW24.1 kmh SSW 20.0 mph32.2 kmh 30.02 in1016.6 mb 0.00 in0.0 mm 0.00 in/hr0.0 mm/hr 0.00 in0.0 mm
04:48 AM 44.0°F6.7°C 41.0°F5.0°C 89% 13.0 mph SSW20.9 kmh SSW 20.0 mph32.2 kmh 30.01 in1016.3 mb 0.00 in0.0 mm 0.00 in/hr0.0 mm/hr 0.00 in0.0 mm
04:49 AM 44.1°F6.7°C 41.1°F5.1°C 89% 13.0 mph S20.9 kmh S 20.0 mph32.2 kmh 30.01 in1016.3 mb 0.00 in0.0 mm 0.00 in/hr0.0 mm/hr 0.00 in0.0 mm
04:50 AM 44.3°F6.8°C 41.3°F5.2°C 89% 12.0 mph S19.3 kmh S 20.0 mph32.2 kmh 30.01 in1016.3 mb 0.00 in0.0 mm 0.00 in/hr0.0 mm/hr 0.00 in0.0 mm
04:51 AM 44.4°F6.9°C 41.1°F5.1°C 88% 17.0 mph S27.4 kmh S 20.0 mph32.2 kmh 30.01 in1016.3 mb 0.00 in0.0 mm 0.00 in/hr0.0 mm/hr 0.00 in0.0 mm
04:52 AM 44.6°F7.0°C 41.3°F5.2°C 88% 15.0 mph S24.1 kmh S 20.0 mph32.2 kmh 30.01 in1016.3 mb 0.00 in0.0 mm 0.00 in/hr0.0 mm/hr 0.00 in0.0 mm
04:53 AM 44.7°F7.1°C 41.4°F5.2°C 88% 12.0 mph SSW19.3 kmh SSW 21.0 mph33.8 kmh 30.01 in1016.3 mb 0.00 in0.0 mm 0.00 in/hr0.0 mm/hr 0.00 in0.0 mm
04:54 AM 44.8°F7.1°C 41.2°F5.1°C 87% 18.0 mph S29.0 kmh S 21.0 mph33.8 kmh 30.01 in1016.3 mb 0.00 in0.0 mm 0.00 in/hr0.0 mm/hr 0.00 in0.0 mm
04:55 AM 45.0°F7.2°C 41.4°F5.2°C 87% 15.0 mph S24.1 kmh S 21.0 mph33.8 kmh 30.01 in1016.3 mb 0.00 in0.0 mm 0.00 in/hr0.0 mm/hr 0.00 in0.0 mm
04:56 AM 45.1°F7.3°C 41.5°F5.3°C 87% 14.0 mph S22.5 kmh S 21.0 mph33.8 kmh 30.01 in1016.3 mb 0.00 in0.0 mm 0.00 in/hr0.0 mm/hr 0.00 in0.0 mm
04:57 AM 45.2°F7.3°C 41.6°F5.3°C 87% 17.0 mph S27.4 kmh S 21.0 mph33.8 kmh 30.01 in1016.3 mb 0.00 in0.0 mm 0.00 in/hr0.0 mm/hr 0.00 in0.0 mm
04:58 AM 45.4°F7.4°C 41.5°F5.3°C 86% 11.0 mph SSW17.7 kmh SSW 21.0 mph33.8 kmh 30.01 in1016.3 mb 0.00 in0.0 mm 0.00 in/hr0.0 mm/hr 0.00 in0.0 mm
04:59 AM 45.4°F7.4°C 41.5°F5.3°C 86% 16.0 mph S25.7 kmh S 21.0 mph33.8 kmh 30.01 in1016.3 mb 0.00 in0.0 mm 0.00 in/hr0.0 mm/hr 0.00 in0.0 mm
05:00 AM 45.5°F7.5°C 41.6°F5.3°C 86% 14.0 mph SSE22.5 kmh SSE 21.0 mph33.8 kmh 30.01 in1016.3 mb 0.00 in0.0 mm 0.00 in/hr0.0 mm/hr 0.00 in0.0 mm
05:01 AM 45.6°F7.6°C 41.7°F5.4°C 86% 17.0 mph SSW27.4 kmh SSW 21.0 mph33.8 kmh 30.01 in1016.3 mb 0.00 in0.0 mm 0.00 in/hr0.0 mm/hr 0.00 in0.0 mm
05:02 AM 45.6°F7.6°C 41.4°F5.2°C 85% 14.0 mph S22.5 kmh S 18.0 mph29.0 kmh 30.01 in1016.3 mb 0.00 in0.0 mm 0.00 in/hr0.0 mm/hr 0.00 in0.0 mm
05:03 AM 45.7°F7.6°C 41.5°F5.3°C 85% 17.0 mph S27.4 kmh S 20.0 mph32.2 kmh 30.01 in1016.3 mb 0.00 in0.0 mm 0.00 in/hr0.0 mm/hr 0.00 in0.0 mm
05:04 AM 45.7°F7.6°C 41.5°F5.3°C 85% 16.0 mph S25.7 kmh S 20.0 mph32.2 kmh 30.00 in1015.9 mb 0.00 in0.0 mm 0.00 in/hr0.0 mm/hr 0.00 in0.0 mm
05:05 AM 45.8°F7.7°C 41.6°F5.3°C 85% 12.0 mph SSW19.3 kmh SSW 20.0 mph32.2 kmh 30.00 in1015.9 mb 0.00 in0.0 mm 0.00 in/hr0.0 mm/hr 0.00 in0.0 mm
05:06 AM 45.8°F7.7°C 41.6°F5.3°C 85% 12.0 mph S19.3 kmh S 20.0 mph32.2 kmh 30.00 in1015.9 mb 0.00 in0.0 mm 0.00 in/hr0.0 mm/hr 0.00 in0.0 mm
05:07 AM 45.8°F7.7°C 41.3°F5.2°C 84% 13.0 mph S20.9 kmh S 20.0 mph32.2 kmh 30.00 in1015.9 mb 0.00 in0.0 mm 0.00 in/hr0.0 mm/hr 0.00 in0.0 mm
05:08 AM 45.8°F7.7°C 41.3°F5.2°C 84% 17.0 mph S27.4 kmh S 20.0 mph32.2 kmh 30.00 in1015.9 mb 0.00 in0.0 mm 0.00 in/hr0.0 mm/hr 0.00 in0.0 mm
05:09 AM 45.8°F7.7°C 41.3°F5.2°C 84% 19.0 mph S30.6 kmh S 20.0 mph32.2 kmh 30.00 in1015.9 mb 0.00 in0.0 mm 0.00 in/hr0.0 mm/hr 0.00 in0.0 mm
05:10 AM 45.8°F7.7°C 41.3°F5.2°C 84% 14.0 mph S22.5 kmh S 20.0 mph32.2 kmh 30.00 in1015.9 mb 0.00 in0.0 mm 0.00 in/hr0.0 mm/hr 0.00 in0.0 mm
05:11 AM 45.8°F7.7°C 41.3°F5.2°C 84% 17.0 mph S27.4 kmh S 20.0 mph32.2 kmh 30.00 in1015.9 mb 0.00 in0.0 mm 0.00 in/hr0.0 mm/hr 0.00 in0.0 mm
05:12 AM 45.8°F7.7°C 41.3°F5.2°C 84% 18.0 mph S29.0 kmh S 20.0 mph32.2 kmh 30.00 in1015.9 mb 0.00 in0.0 mm 0.00 in/hr0.0 mm/hr 0.00 in0.0 mm
05:13 AM 45.8°F7.7°C 41.3°F5.2°C 84% 10.0 mph SSW16.1 kmh SSW 20.0 mph32.2 kmh 30.00 in1015.9 mb 0.00 in0.0 mm 0.00 in/hr0.0 mm/hr 0.00 in0.0 mm
05:14 AM 45.8°F7.7°C 41.3°F5.2°C 84% 14.0 mph SSW22.5 kmh SSW 21.0 mph33.8 kmh 30.00 in1015.9 mb 0.00 in0.0 mm 0.00 in/hr0.0 mm/hr 0.00 in0.0 mm
05:15 AM 45.8°F7.7°C 41.3°F5.2°C 84% 13.0 mph S20.9 kmh S 21.0 mph33.8 kmh 30.00 in1015.9 mb 0.00 in0.0 mm 0.00 in/hr0.0 mm/hr 0.00 in0.0 mm
05:16 AM 45.8°F7.7°C 41.3°F5.2°C 84% 14.0 mph S22.5 kmh S 21.0 mph33.8 kmh 30.00 in1015.9 mb 0.00 in0.0 mm 0.00 in/hr0.0 mm/hr 0.00 in0.0 mm
05:17 AM 45.8°F7.7°C 41.3°F5.2°C 84% 15.0 mph SSW24.1 kmh SSW 21.0 mph33.8 kmh 30.00 in1015.9 mb 0.00 in0.0 mm 0.00 in/hr0.0 mm/hr 0.00 in0.0 mm
05:18 AM 45.8°F7.7°C 41.3°F5.2°C 84% 17.0 mph S27.4 kmh S 21.0 mph33.8 kmh 30.00 in1015.9 mb 0.00 in0.0 mm 0.00 in/hr0.0 mm/hr 0.00 in0.0 mm
05:19 AM 45.8°F7.7°C 41.3°F5.2°C 84% 13.0 mph SSW20.9 kmh SSW 21.0 mph33.8 kmh 30.00 in1015.9 mb 0.00 in0.0 mm 0.00 in/hr0.0 mm/hr 0.00 in0.0 mm
05:20 AM 45.8°F7.7°C 41.3°F5.2°C 84% 19.0 mph S30.6 kmh S 21.0 mph33.8 kmh 30.00 in1015.9 mb 0.00 in0.0 mm 0.00 in/hr0.0 mm/hr 0.00 in0.0 mm
05:21 AM 45.8°F7.7°C 41.3°F5.2°C 84% 14.0 mph S22.5 kmh S 21.0 mph33.8 kmh 30.00 in1015.9 mb 0.00 in0.0 mm 0.00 in/hr0.0 mm/hr 0.00 in0.0 mm
05:22 AM 45.8°F7.7°C 41.3°F5.2°C 84% 18.0 mph S29.0 kmh S 21.0 mph33.8 kmh 30.00 in1015.9 mb 0.00 in0.0 mm 0.00 in/hr0.0 mm/hr 0.00 in0.0 mm
05:23 AM 45.7°F7.6°C 41.2°F5.1°C 84% 11.0 mph S17.7 kmh S 21.0 mph33.8 kmh 30.00 in1015.9 mb 0.00 in0.0 mm 0.00 in/hr0.0 mm/hr 0.00 in0.0 mm
05:24 AM 45.7°F7.6°C 41.2°F5.1°C 84% 15.0 mph S24.1 kmh S 21.0 mph33.8 kmh 30.00 in1015.9 mb 0.00 in0.0 mm 0.00 in/hr0.0 mm/hr 0.00 in0.0 mm
05:25 AM 45.6°F7.6°C 41.1°F5.1°C 84% 16.0 mph S25.7 kmh S 21.0 mph33.8 kmh 30.00 in1015.9 mb 0.00 in0.0 mm 0.00 in/hr0.0 mm/hr 0.00 in0.0 mm
05:26 AM 45.6°F7.6°C 41.1°F5.1°C 84% 12.0 mph S19.3 kmh S 21.0 mph33.8 kmh 30.00 in1015.9 mb 0.00 in0.0 mm 0.00 in/hr0.0 mm/hr 0.00 in0.0 mm
05:27 AM 45.6°F7.6°C 41.1°F5.1°C 84% 17.0 mph SSW27.4 kmh SSW 21.0 mph33.8 kmh 30.00 in1015.9 mb 0.00 in0.0 mm 0.00 in/hr0.0 mm/hr 0.00 in0.0 mm
05:28 AM 45.5°F7.5°C 41.0°F5.0°C 84% 20.0 mph S32.2 kmh S 21.0 mph33.8 kmh 30.00 in1015.9 mb 0.00 in0.0 mm 0.00 in/hr0.0 mm/hr 0.00 in0.0 mm
05:29 AM 45.5°F7.5°C 41.0°F5.0°C 84% 14.0 mph S22.5 kmh S 21.0 mph33.8 kmh 30.00 in1015.9 mb 0.00 in0.0 mm 0.00 in/hr0.0 mm/hr 0.00 in0.0 mm
05:30 AM 45.5°F7.5°C 41.0°F5.0°C 84% 12.0 mph S19.3 kmh S 21.0 mph33.8 kmh 30.00 in1015.9 mb 0.00 in0.0 mm 0.00 in/hr0.0 mm/hr 0.00 in0.0 mm
05:31 AM 45.5°F7.5°C 41.3°F5.2°C 85% 17.0 mph S27.4 kmh S 21.0 mph33.8 kmh 30.00 in1015.9 mb 0.00 in0.0 mm 0.00 in/hr0.0 mm/hr 0.00 in0.0 mm
05:32 AM 45.5°F7.5°C 41.3°F5.2°C 85% 14.0 mph S22.5 kmh S 21.0 mph33.8 kmh 30.00 in1015.9 mb 0.00 in0.0 mm 0.00 in/hr0.0 mm/hr 0.00 in0.0 mm
05:33 AM 45.4°F7.4°C 41.2°F5.1°C 85% 12.0 mph S19.3 kmh S 21.0 mph33.8 kmh 30.00 in1015.9 mb 0.00 in0.0 mm 0.00 in/hr0.0 mm/hr 0.00 in0.0 mm
05:34 AM 45.4°F7.4°C 41.2°F5.1°C 85% 17.0 mph S27.4 kmh S 21.0 mph33.8 kmh 30.00 in1015.9 mb 0.00 in0.0 mm 0.00 in/hr0.0 mm/hr 0.00 in0.0 mm
05:35 AM 45.4°F7.4°C 41.2°F5.1°C 85% 13.0 mph SSW20.9 kmh SSW 21.0 mph33.8 kmh 30.00 in1015.9 mb 0.00 in0.0 mm 0.00 in/hr0.0 mm/hr 0.00 in0.0 mm
05:36 AM 45.4°F7.4°C 41.2°F5.1°C 85% 15.0 mph SSW24.1 kmh SSW 21.0 mph33.8 kmh 30.00 in1015.9 mb 0.00 in0.0 mm 0.00 in/hr0.0 mm/hr 0.00 in0.0 mm
05:37 AM 45.3°F7.4°C 41.1°F5.1°C 85% 15.0 mph S24.1 kmh S 21.0 mph33.8 kmh 30.00 in1015.9 mb 0.00 in0.0 mm 0.00 in/hr0.0 mm/hr 0.00 in0.0 mm
05:38 AM 45.3°F7.4°C 41.1°F5.1°C 85% 15.0 mph SSW24.1 kmh SSW 21.0 mph33.8 kmh 30.00 in1015.9 mb 0.00 in0.0 mm 0.00 in/hr0.0 mm/hr 0.00 in0.0 mm
05:39 AM 45.2°F7.3°C 41.0°F5.0°C 85% 14.0 mph S22.5 kmh S 21.0 mph33.8 kmh 30.00 in1015.9 mb 0.00 in0.0 mm 0.00 in/hr0.0 mm/hr 0.00 in0.0 mm
05:40 AM 45.2°F7.3°C 41.0°F5.0°C 85% 13.0 mph SSW20.9 kmh SSW 21.0 mph33.8 kmh 30.00 in1015.9 mb 0.00 in0.0 mm 0.00 in/hr0.0 mm/hr 0.00 in0.0 mm
05:41 AM 45.2°F7.3°C 41.0°F5.0°C 85% 18.0 mph S29.0 kmh S 21.0 mph33.8 kmh 30.00 in1015.9 mb 0.00 in0.0 mm 0.00 in/hr0.0 mm/hr 0.00 in0.0 mm
05:42 AM 45.2°F7.3°C 41.0°F5.0°C 85% 13.0 mph SSW20.9 kmh SSW 21.0 mph33.8 kmh 30.00 in1015.9 mb 0.00 in0.0 mm 0.00 in/hr0.0 mm/hr 0.00 in0.0 mm
05:43 AM 45.1°F7.3°C 40.9°F4.9°C 85% 16.0 mph S25.7 kmh S 21.0 mph33.8 kmh 30.00 in1015.9 mb 0.00 in0.0 mm 0.00 in/hr0.0 mm/hr 0.00 in0.0 mm
05:44 AM 45.1°F7.3°C 40.9°F4.9°C 85% 14.0 mph SSW22.5 kmh SSW 21.0 mph33.8 kmh 30.00 in1015.9 mb 0.00 in0.0 mm 0.00 in/hr0.0 mm/hr 0.00 in0.0 mm
05:45 AM 45.1°F7.3°C 40.9°F4.9°C 85% 10.0 mph S16.1 kmh S 21.0 mph33.8 kmh 30.00 in1015.9 mb 0.00 in0.0 mm 0.00 in/hr0.0 mm/hr 0.00 in0.0 mm
05:46 AM 45.1°F7.3°C 40.9°F4.9°C 85% 16.0 mph S25.7 kmh S 21.0 mph33.8 kmh 30.00 in1015.9 mb 0.00 in0.0 mm 0.00 in/hr0.0 mm/hr 0.00 in0.0 mm
05:47 AM 45.0°F7.2°C 40.8°F4.9°C 85% 18.0 mph S29.0 kmh S 21.0 mph33.8 kmh 30.00 in1015.9 mb 0.00 in0.0 mm 0.00 in/hr0.0 mm/hr 0.00 in0.0 mm
05:48 AM 45.0°F7.2°C 40.8°F4.9°C 85% 17.0 mph S27.4 kmh S 21.0 mph33.8 kmh 30.00 in1015.9 mb 0.00 in0.0 mm 0.00 in/hr0.0 mm/hr 0.00 in0.0 mm
05:49 AM 45.0°F7.2°C 40.8°F4.9°C 85% 18.0 mph S29.0 kmh S 21.0 mph33.8 kmh 30.00 in1015.9 mb 0.00 in0.0 mm 0.00 in/hr0.0 mm/hr 0.00 in0.0 mm
05:50 AM 45.0°F7.2°C 40.8°F4.9°C 85% 16.0 mph SSW25.7 kmh SSW 21.0 mph33.8 kmh 30.00 in1015.9 mb 0.00 in0.0 mm 0.00 in/hr0.0 mm/hr 0.00 in0.0 mm
05:51 AM 44.9°F7.2°C 40.7°F4.8°C 85% 15.0 mph S24.1 kmh S 21.0 mph33.8 kmh 30.00 in1015.9 mb 0.00 in0.0 mm 0.00 in/hr0.0 mm/hr 0.00 in0.0 mm
05:52 AM 44.9°F7.2°C 40.7°F4.8°C 85% 10.0 mph S16.1 kmh S 21.0 mph33.8 kmh 30.00 in1015.9 mb 0.00 in0.0 mm 0.00 in/hr0.0 mm/hr 0.00 in0.0 mm
05:53 AM 44.9°F7.2°C 41.0°F5.0°C 86% 12.0 mph SSW19.3 kmh SSW 21.0 mph33.8 kmh 30.00 in1015.9 mb 0.00 in0.0 mm 0.00 in/hr0.0 mm/hr 0.00 in0.0 mm
05:54 AM 44.9°F7.2°C 40.7°F4.8°C 85% 18.0 mph S29.0 kmh S 21.0 mph33.8 kmh 30.00 in1015.9 mb 0.00 in0.0 mm 0.00 in/hr0.0 mm/hr 0.00 in0.0 mm
05:55 AM 44.9°F7.2°C 40.7°F4.8°C 85% 10.0 mph S16.1 kmh S 21.0 mph33.8 kmh 30.00 in1015.9 mb 0.00 in0.0 mm 0.00 in/hr0.0 mm/hr 0.00 in0.0 mm
05:56 AM 44.9°F7.2°C 41.0°F5.0°C 86% 13.0 mph S20.9 kmh S 21.0 mph33.8 kmh 30.00 in1015.9 mb 0.00 in0.0 mm 0.00 in/hr0.0 mm/hr 0.00 in0.0 mm
05:57 AM 44.8°F7.1°C 40.9°F4.9°C 86% 9.0 mph S14.5 kmh S 21.0 mph33.8 kmh 30.00 in1015.9 mb 0.00 in0.0 mm 0.00 in/hr0.0 mm/hr 0.00 in0.0 mm
05:58 AM 44.8°F7.1°C 40.9°F4.9°C 86% 11.0 mph S17.7 kmh S 21.0 mph33.8 kmh 30.00 in1015.9 mb 0.00 in0.0 mm 0.00 in/hr0.0 mm/hr 0.00 in0.0 mm
05:59 AM 44.8°F7.1°C 40.9°F4.9°C 86% 11.0 mph S17.7 kmh S 21.0 mph33.8 kmh 30.00 in1015.9 mb 0.00 in0.0 mm 0.00 in/hr0.0 mm/hr 0.00 in0.0 mm
06:00 AM 44.7°F7.1°C 40.8°F4.9°C 86% 10.0 mph S16.1 kmh S 21.0 mph33.8 kmh 30.00 in1015.9 mb 0.00 in0.0 mm 0.00 in/hr0.0 mm/hr 0.00 in0.0 mm
06:01 AM 44.7°F7.1°C 40.8°F4.9°C 86% 12.0 mph S19.3 kmh S 21.0 mph33.8 kmh 30.00 in1015.9 mb 0.00 in0.0 mm 0.00 in/hr0.0 mm/hr 0.00 in0.0 mm
06:02 AM 44.7°F7.1°C 40.8°F4.9°C 86% 10.0 mph S16.1 kmh S 15.0 mph24.1 kmh 30.00 in1015.9 mb 0.00 in0.0 mm 0.00 in/hr0.0 mm/hr 0.00 in0.0 mm
06:03 AM 44.7°F7.1°C 40.8°F4.9°C 86% 11.0 mph S17.7 kmh S 15.0 mph24.1 kmh 30.00 in1015.9 mb 0.00 in0.0 mm 0.00 in/hr0.0 mm/hr 0.00 in0.0 mm
06:04 AM 44.7°F7.1°C 40.8°F4.9°C 86% 9.0 mph S14.5 kmh S 15.0 mph24.1 kmh 30.00 in1015.9 mb 0.00 in0.0 mm 0.00 in/hr0.0 mm/hr 0.00 in0.0 mm
06:05 AM 44.7°F7.1°C 40.8°F4.9°C 86% 10.0 mph S16.1 kmh S 15.0 mph24.1 kmh 29.99 in1015.6 mb 0.00 in0.0 mm 0.00 in/hr0.0 mm/hr 0.00 in0.0 mm
06:06 AM 44.6°F7.0°C 40.7°F4.8°C 86% 11.0 mph SSW17.7 kmh SSW 18.0 mph29.0 kmh 30.00 in1015.9 mb 0.00 in0.0 mm 0.00 in/hr0.0 mm/hr 0.00 in0.0 mm
06:07 AM 44.6°F7.0°C 40.7°F4.8°C 86% 8.0 mph SSW12.9 kmh SSW 18.0 mph29.0 kmh 29.99 in1015.6 mb 0.00 in0.0 mm 0.00 in/hr0.0 mm/hr 0.00 in0.0 mm
06:08 AM 44.6°F7.0°C 40.7°F4.8°C 86% 9.0 mph SSW14.5 kmh SSW 18.0 mph29.0 kmh 29.99 in1015.6 mb 0.00 in0.0 mm 0.00 in/hr0.0 mm/hr 0.00 in0.0 mm
06:09 AM 44.6°F7.0°C 40.7°F4.8°C 86% 12.0 mph SSW19.3 kmh SSW 18.0 mph29.0 kmh 29.99 in1015.6 mb 0.00 in0.0 mm 0.00 in/hr0.0 mm/hr 0.00 in0.0 mm
06:10 AM 44.6°F7.0°C 40.7°F4.8°C 86% 15.0 mph S24.1 kmh S 18.0 mph29.0 kmh 29.99 in1015.6 mb 0.00 in0.0 mm 0.00 in/hr0.0 mm/hr 0.00 in0.0 mm
06:11 AM 44.5°F6.9°C 40.6°F4.8°C 86% 10.0 mph S16.1 kmh S 18.0 mph29.0 kmh 29.99 in1015.6 mb 0.00 in0.0 mm 0.00 in/hr0.0 mm/hr 0.00 in0.0 mm
06:12 AM 44.5°F6.9°C 40.6°F4.8°C 86% 15.0 mph S24.1 kmh S 18.0 mph29.0 kmh 29.99 in1015.6 mb 0.00 in0.0 mm 0.00 in/hr0.0 mm/hr 0.00 in0.0 mm
06:13 AM 44.6°F7.0°C 40.7°F4.8°C 86% 11.0 mph S17.7 kmh S 18.0 mph29.0 kmh 29.99 in1015.6 mb 0.00 in0.0 mm 0.00 in/hr0.0 mm/hr 0.00 in0.0 mm
06:14 AM 44.5°F6.9°C 40.6°F4.8°C 86% 11.0 mph S17.7 kmh S 18.0 mph29.0 kmh 29.99 in1015.6 mb 0.00 in0.0 mm 0.00 in/hr0.0 mm/hr 0.00 in0.0 mm
06:15 AM 44.5°F6.9°C 40.6°F4.8°C 86% 15.0 mph S24.1 kmh S 18.0 mph29.0 kmh 29.99 in1015.6 mb 0.00 in0.0 mm 0.00 in/hr0.0 mm/hr 0.00 in0.0 mm
06:16 AM 44.5°F6.9°C 40.6°F4.8°C 86% 10.0 mph SSW16.1 kmh SSW 18.0 mph29.0 kmh 29.98 in1015.2 mb 0.00 in0.0 mm 0.00 in/hr0.0 mm/hr 0.00 in0.0 mm
06:17 AM 44.5°F6.9°C 40.6°F4.8°C 86% 9.0 mph S14.5 kmh S 18.0 mph29.0 kmh 29.98 in1015.2 mb 0.00 in0.0 mm 0.00 in/hr0.0 mm/hr 0.00 in0.0 mm
06:18 AM 44.5°F6.9°C 40.6°F4.8°C 86% 10.0 mph S16.1 kmh S 18.0 mph29.0 kmh 29.98 in1015.2 mb 0.00 in0.0 mm 0.00 in/hr0.0 mm/hr 0.00 in0.0 mm
06:19 AM 44.5°F6.9°C 40.9°F4.9°C 87% 12.0 mph S19.3 kmh S 18.0 mph29.0 kmh 29.98 in1015.2 mb 0.00 in0.0 mm 0.00 in/hr0.0 mm/hr 0.00 in0.0 mm
06:20 AM 44.5°F6.9°C 40.9°F4.9°C 87% 11.0 mph S17.7 kmh S 18.0 mph29.0 kmh 29.98 in1015.2 mb 0.00 in0.0 mm 0.00 in/hr0.0 mm/hr 0.00 in0.0 mm
06:21 AM 44.5°F6.9°C 40.9°F4.9°C 87% 12.0 mph S19.3 kmh S 18.0 mph29.0 kmh 29.98 in1015.2 mb 0.00 in0.0 mm 0.00 in/hr0.0 mm/hr 0.00 in0.0 mm
06:22 AM 44.5°F6.9°C 40.9°F4.9°C 87% 14.0 mph S22.5 kmh S 18.0 mph29.0 kmh 29.98 in1015.2 mb 0.00 in0.0 mm 0.00 in/hr0.0 mm/hr 0.00 in0.0 mm
06:23 AM 44.5°F6.9°C 40.9°F4.9°C 87% 10.0 mph S16.1 kmh S 18.0 mph29.0 kmh 29.98 in1015.2 mb 0.00 in0.0 mm 0.00 in/hr0.0 mm/hr 0.00 in0.0 mm
06:24 AM 44.5°F6.9°C 40.9°F4.9°C 87% 10.0 mph S16.1 kmh S 18.0 mph29.0 kmh 29.98 in1015.2 mb 0.00 in0.0 mm 0.00 in/hr0.0 mm/hr 0.00 in0.0 mm
06:25 AM 44.5°F6.9°C 40.9°F4.9°C 87% 9.0 mph S14.5 kmh S 18.0 mph29.0 kmh 29.98 in1015.2 mb 0.00 in0.0 mm 0.00 in/hr0.0 mm/hr 0.00 in0.0 mm
06:26 AM 44.5°F6.9°C 40.9°F4.9°C 87% 8.0 mph SSW12.9 kmh SSW 18.0 mph29.0 kmh 29.98 in1015.2 mb 0.00 in0.0 mm 0.00 in/hr0.0 mm/hr 0.00 in0.0 mm
06:27 AM 44.5°F6.9°C 40.9°F4.9°C 87% 10.0 mph S16.1 kmh S 18.0 mph29.0 kmh 29.98 in1015.2 mb 0.00 in0.0 mm 0.00 in/hr0.0 mm/hr 0.00 in0.0 mm
06:28 AM 44.5°F6.9°C 40.9°F4.9°C 87% 12.0 mph SSW19.3 kmh SSW 18.0 mph29.0 kmh 29.98 in1015.2 mb 0.00 in0.0 mm 0.00 in/hr0.0 mm/hr 0.00 in0.0 mm
06:29 AM 44.5°F6.9°C 40.9°F4.9°C 87% 9.0 mph S14.5 kmh S 18.0 mph29.0 kmh 29.98 in1015.2 mb 0.00 in0.0 mm 0.00 in/hr0.0 mm/hr 0.00 in0.0 mm
06:30 AM 44.5°F6.9°C 40.9°F4.9°C 87% 10.0 mph S16.1 kmh S 18.0 mph29.0 kmh 29.98 in1015.2 mb 0.00 in0.0 mm 0.00 in/hr0.0 mm/hr 0.00 in0.0 mm
06:31 AM 44.5°F6.9°C 40.9°F4.9°C 87% 10.0 mph S16.1 kmh S 18.0 mph29.0 kmh 29.98 in1015.2 mb 0.00 in0.0 mm 0.00 in/hr0.0 mm/hr 0.00 in0.0 mm
06:32 AM 44.5°F6.9°C 40.9°F4.9°C 87% 13.0 mph S20.9 kmh S 14.0 mph22.5 kmh 29.98 in1015.2 mb 0.00 in0.0 mm 0.00 in/hr0.0 mm/hr 0.00 in0.0 mm
06:33 AM 44.5°F6.9°C 40.9°F4.9°C 87% 11.0 mph S17.7 kmh S 15.0 mph24.1 kmh 29.98 in1015.2 mb 0.00 in0.0 mm 0.00 in/hr0.0 mm/hr 0.00 in0.0 mm
06:34 AM 44.5°F6.9°C 40.9°F4.9°C 87% 10.0 mph S16.1 kmh S 15.0 mph24.1 kmh 29.98 in1015.2 mb 0.00 in0.0 mm 0.00 in/hr0.0 mm/hr 0.00 in0.0 mm
06:35 AM 44.5°F6.9°C 40.9°F4.9°C 87% 12.0 mph SSW19.3 kmh SSW 15.0 mph24.1 kmh 29.98 in1015.2 mb 0.00 in0.0 mm 0.00 in/hr0.0 mm/hr 0.00 in0.0 mm
06:36 AM 44.5°F6.9°C 40.9°F4.9°C 87% 9.0 mph S14.5 kmh S 15.0 mph24.1 kmh 29.98 in1015.2 mb 0.00 in0.0 mm 0.00 in/hr0.0 mm/hr 0.00 in0.0 mm
06:37 AM 44.6°F7.0°C 41.0°F5.0°C 87% 13.0 mph S20.9 kmh S 15.0 mph24.1 kmh 29.98 in1015.2 mb 0.00 in0.0 mm 0.00 in/hr0.0 mm/hr 0.00 in0.0 mm
06:38 AM 44.6°F7.0°C 41.0°F5.0°C 87% 9.0 mph SSW14.5 kmh SSW 15.0 mph24.1 kmh 29.98 in1015.2 mb 0.00 in0.0 mm 0.00 in/hr0.0 mm/hr 0.00 in0.0 mm
06:39 AM 44.6°F7.0°C 41.0°F5.0°C 87% 13.0 mph S20.9 kmh S 15.0 mph24.1 kmh 29.98 in1015.2 mb 0.00 in0.0 mm 0.00 in/hr0.0 mm/hr 0.00 in0.0 mm
06:40 AM 44.6°F7.0°C 41.0°F5.0°C 87% 12.0 mph S19.3 kmh S 15.0 mph24.1 kmh 29.98 in1015.2 mb 0.00 in0.0 mm 0.00 in/hr0.0 mm/hr 0.00 in0.0 mm
06:41 AM 44.6°F7.0°C 41.0°F5.0°C 87% 14.0 mph SSW22.5 kmh SSW 15.0 mph24.1 kmh 29.98 in1015.2 mb 0.00 in0.0 mm 0.00 in/hr0.0 mm/hr 0.00 in0.0 mm
06:42 AM 44.6°F7.0°C 41.0°F5.0°C 87% 9.0 mph S14.5 kmh S 15.0 mph24.1 kmh 29.98 in1015.2 mb 0.00 in0.0 mm 0.00 in/hr0.0 mm/hr 0.00 in0.0 mm
06:43 AM 44.7°F7.1°C 41.1°F5.1°C 87% 11.0 mph S17.7 kmh S 15.0 mph24.1 kmh 29.98 in1015.2 mb 0.00 in0.0 mm 0.00 in/hr0.0 mm/hr 0.00 in0.0 mm
06:44 AM 44.7°F7.1°C 41.1°F5.1°C 87% 11.0 mph S17.7 kmh S 15.0 mph24.1 kmh 29.98 in1015.2 mb 0.00 in0.0 mm 0.00 in/hr0.0 mm/hr 0.00 in0.0 mm
06:45 AM 44.7°F7.1°C 41.1°F5.1°C 87% 8.0 mph SSE12.9 kmh SSE 15.0 mph24.1 kmh 29.97 in1014.9 mb 0.00 in0.0 mm 0.00 in/hr0.0 mm/hr 0.00 in0.0 mm
06:46 AM 44.7°F7.1°C 41.1°F5.1°C 87% 11.0 mph S17.7 kmh S 15.0 mph24.1 kmh 29.97 in1014.9 mb 0.00 in0.0 mm 0.00 in/hr0.0 mm/hr 0.00 in0.0 mm
06:47 AM 44.7°F7.1°C 41.1°F5.1°C 87% 14.0 mph S22.5 kmh S 15.0 mph24.1 kmh 29.97 in1014.9 mb 0.00 in0.0 mm 0.00 in/hr0.0 mm/hr 0.00 in0.0 mm
06:48 AM 44.8°F7.1°C 41.2°F5.1°C 87% 12.0 mph S19.3 kmh S 15.0 mph24.1 kmh 29.97 in1014.9 mb 0.00 in0.0 mm 0.00 in/hr0.0 mm/hr 0.00 in0.0 mm
06:49 AM 44.9°F7.2°C 41.3°F5.2°C 87% 13.0 mph S20.9 kmh S 15.0 mph24.1 kmh 29.97 in1014.9 mb 0.00 in0.0 mm 0.00 in/hr0.0 mm/hr 0.00 in0.0 mm
06:50 AM 44.9°F7.2°C 41.3°F5.2°C 87% 11.0 mph S17.7 kmh S 15.0 mph24.1 kmh 29.97 in1014.9 mb 0.00 in0.0 mm 0.00 in/hr0.0 mm/hr 0.00 in0.0 mm
06:51 AM 44.9°F7.2°C 41.3°F5.2°C 87% 12.0 mph S19.3 kmh S 15.0 mph24.1 kmh 29.97 in1014.9 mb 0.00 in0.0 mm 0.00 in/hr0.0 mm/hr 0.00 in0.0 mm
06:52 AM 44.9°F7.2°C 41.3°F5.2°C 87% 11.0 mph S17.7 kmh S 15.0 mph24.1 kmh 29.97 in1014.9 mb 0.00 in0.0 mm 0.00 in/hr0.0 mm/hr 0.00 in0.0 mm
06:53 AM 45.0°F7.2°C 41.4°F5.2°C 87% 13.0 mph S20.9 kmh S 15.0 mph24.1 kmh 29.97 in1014.9 mb 0.00 in0.0 mm 0.00 in/hr0.0 mm/hr 0.00 in0.0 mm
06:54 AM 45.0°F7.2°C 41.4°F5.2°C 87% 11.0 mph S17.7 kmh S 15.0 mph24.1 kmh 29.97 in1014.9 mb 0.00 in0.0 mm 0.00 in/hr0.0 mm/hr 0.00 in0.0 mm
06:55 AM 45.0°F7.2°C 41.4°F5.2°C 87% 12.0 mph SSW19.3 kmh SSW 15.0 mph24.1 kmh 29.97 in1014.9 mb 0.00 in0.0 mm 0.00 in/hr0.0 mm/hr 0.00 in0.0 mm
06:56 AM 45.1°F7.3°C 41.5°F5.3°C 87% 8.0 mph S12.9 kmh S 15.0 mph24.1 kmh 29.97 in1014.9 mb 0.00 in0.0 mm 0.00 in/hr0.0 mm/hr 0.00 in0.0 mm
06:57 AM 45.1°F7.3°C 41.5°F5.3°C 87% 11.0 mph S17.7 kmh S 15.0 mph24.1 kmh 29.97 in1014.9 mb 0.00 in0.0 mm 0.00 in/hr0.0 mm/hr 0.00 in0.0 mm
06:58 AM 45.1°F7.3°C 41.5°F5.3°C 87% 9.0 mph SSW14.5 kmh SSW 15.0 mph24.1 kmh 29.97 in1014.9 mb 0.00 in0.0 mm 0.00 in/hr0.0 mm/hr 0.00 in0.0 mm
06:59 AM 45.1°F7.3°C 41.5°F5.3°C 87% 11.0 mph S17.7 kmh S 16.0 mph25.7 kmh 29.97 in1014.9 mb 0.00 in0.0 mm 0.00 in/hr0.0 mm/hr 0.00 in0.0 mm
07:00 AM 45.2°F7.3°C 41.3°F5.2°C 86% 10.0 mph SSW16.1 kmh SSW 16.0 mph25.7 kmh 29.97 in1014.9 mb 0.00 in0.0 mm 0.00 in/hr0.0 mm/hr 0.00 in0.0 mm
07:01 AM 45.2°F7.3°C 41.3°F5.2°C 86% 10.0 mph S16.1 kmh S 16.0 mph25.7 kmh 29.97 in1014.9 mb 0.00 in0.0 mm 0.00 in/hr0.0 mm/hr 0.00 in0.0 mm
07:02 AM 45.2°F7.3°C 41.3°F5.2°C 86% 13.0 mph S20.9 kmh S 14.0 mph22.5 kmh 29.97 in1014.9 mb 0.00 in0.0 mm 0.00 in/hr0.0 mm/hr 0.00 in0.0 mm
07:03 AM 45.3°F7.4°C 41.4°F5.2°C 86% 10.0 mph S16.1 kmh S 14.0 mph22.5 kmh 29.97 in1014.9 mb 0.00 in0.0 mm 0.00 in/hr0.0 mm/hr 0.00 in0.0 mm
07:04 AM 45.3°F7.4°C 41.4°F5.2°C 86% 10.0 mph S16.1 kmh S 14.0 mph22.5 kmh 29.97 in1014.9 mb 0.00 in0.0 mm 0.00 in/hr0.0 mm/hr 0.00 in0.0 mm
07:05 AM 45.4°F7.4°C 41.5°F5.3°C 86% 11.0 mph S17.7 kmh S 14.0 mph22.5 kmh 29.97 in1014.9 mb 0.00 in0.0 mm 0.00 in/hr0.0 mm/hr 0.00 in0.0 mm
07:06 AM 45.4°F7.4°C 41.5°F5.3°C 86% 14.0 mph S22.5 kmh S 16.0 mph25.7 kmh 29.96 in1014.6 mb 0.00 in0.0 mm 0.00 in/hr0.0 mm/hr 0.00 in0.0 mm
07:07 AM 45.4°F7.4°C 41.5°F5.3°C 86% 12.0 mph SSW19.3 kmh SSW 17.0 mph27.4 kmh 29.96 in1014.6 mb 0.00 in0.0 mm 0.00 in/hr0.0 mm/hr 0.00 in0.0 mm
07:08 AM 45.4°F7.4°C 41.5°F5.3°C 86% 13.0 mph S20.9 kmh S 19.0 mph30.6 kmh 29.96 in1014.6 mb 0.00 in0.0 mm 0.00 in/hr0.0 mm/hr 0.00 in0.0 mm
07:09 AM 45.5°F7.5°C 41.6°F5.3°C 86% 13.0 mph S20.9 kmh S 19.0 mph30.6 kmh 29.96 in1014.6 mb 0.00 in0.0 mm 0.00 in/hr0.0 mm/hr 0.00 in0.0 mm
07:10 AM 45.5°F7.5°C 41.6°F5.3°C 86% 10.0 mph S16.1 kmh S 19.0 mph30.6 kmh 29.96 in1014.6 mb 0.00 in0.0 mm 0.00 in/hr0.0 mm/hr 0.00 in0.0 mm
07:11 AM 45.5°F7.5°C 41.6°F5.3°C 86% 11.0 mph S17.7 kmh S 19.0 mph30.6 kmh 29.96 in1014.6 mb 0.00 in0.0 mm 0.00 in/hr0.0 mm/hr 0.00 in0.0 mm
07:12 AM 45.6°F7.6°C 41.7°F5.4°C 86% 12.0 mph S19.3 kmh S 19.0 mph30.6 kmh 29.96 in1014.6 mb 0.00 in0.0 mm 0.00 in/hr0.0 mm/hr 0.00 in0.0 mm
07:13 AM 45.6°F7.6°C 41.7°F5.4°C 86% 15.0 mph S24.1 kmh S 19.0 mph30.6 kmh 29.96 in1014.6 mb 0.00 in0.0 mm 0.00 in/hr0.0 mm/hr 0.00 in0.0 mm
07:14 AM 45.6°F7.6°C 41.7°F5.4°C 86% 11.0 mph S17.7 kmh S 19.0 mph30.6 kmh 29.96 in1014.6 mb 0.00 in0.0 mm 0.00 in/hr0.0 mm/hr 0.00 in0.0 mm
07:15 AM 45.6°F7.6°C 41.7°F5.4°C 86% 15.0 mph S24.1 kmh S 19.0 mph30.6 kmh 29.96 in1014.6 mb 0.00 in0.0 mm 0.00 in/hr0.0 mm/hr 0.00 in0.0 mm
07:16 AM 45.7°F7.6°C 41.5°F5.3°C 85% 16.0 mph S25.7 kmh S 19.0 mph30.6 kmh 29.96 in1014.6 mb 0.00 in0.0 mm 0.00 in/hr0.0 mm/hr 0.00 in0.0 mm
07:17 AM 45.7°F7.6°C 41.5°F5.3°C 85% 12.0 mph SW19.3 kmh SW 19.0 mph30.6 kmh 29.96 in1014.6 mb 0.00 in0.0 mm 0.00 in/hr0.0 mm/hr 0.00 in0.0 mm
07:18 AM 45.7°F7.6°C 41.8°F5.4°C 86% 11.0 mph SSW17.7 kmh SSW 19.0 mph30.6 kmh 29.96 in1014.6 mb 0.00 in0.0 mm 0.00 in/hr0.0 mm/hr 0.00 in0.0 mm
07:19 AM 45.8°F7.7°C 41.6°F5.3°C 85% 10.0 mph S16.1 kmh S 19.0 mph30.6 kmh 29.96 in1014.6 mb 0.00 in0.0 mm 0.00 in/hr0.0 mm/hr 0.00 in0.0 mm
07:20 AM 45.8°F7.7°C 41.6°F5.3°C 85% 11.0 mph SSW17.7 kmh SSW 19.0 mph30.6 kmh 29.96 in1014.6 mb 0.00 in0.0 mm 0.00 in/hr0.0 mm/hr 0.00 in0.0 mm
07:21 AM 45.8°F7.7°C 41.6°F5.3°C 85% 15.0 mph S24.1 kmh S 19.0 mph30.6 kmh 29.96 in1014.6 mb 0.00 in0.0 mm 0.00 in/hr0.0 mm/hr 0.00 in0.0 mm
07:22 AM 45.8°F7.7°C 41.6°F5.3°C 85% 14.0 mph SSW22.5 kmh SSW 19.0 mph30.6 kmh 29.96 in1014.6 mb 0.00 in0.0 mm 0.00 in/hr0.0 mm/hr 0.00 in0.0 mm
07:23 AM 45.8°F7.7°C 41.6°F5.3°C 85% 11.0 mph S17.7 kmh S 19.0 mph30.6 kmh 29.95 in1014.2 mb 0.00 in0.0 mm 0.00 in/hr0.0 mm/hr 0.00 in0.0 mm
07:24 AM 45.8°F7.7°C 41.6°F5.3°C 85% 11.0 mph SSW17.7 kmh SSW 19.0 mph30.6 kmh 29.95 in1014.2 mb 0.00 in0.0 mm 0.00 in/hr0.0 mm/hr 0.00 in0.0 mm
07:25 AM 45.9°F7.7°C 41.7°F5.4°C 85% 13.0 mph S20.9 kmh S 19.0 mph30.6 kmh 29.95 in1014.2 mb 0.00 in0.0 mm 0.00 in/hr0.0 mm/hr 0.00 in0.0 mm
07:26 AM 45.8°F7.7°C 41.6°F5.3°C 85% 13.0 mph S20.9 kmh S 19.0 mph30.6 kmh 29.95 in1014.2 mb 0.00 in0.0 mm 0.00 in/hr0.0 mm/hr 0.00 in0.0 mm
07:27 AM 45.9°F7.7°C 41.7°F5.4°C 85% 10.0 mph SSW16.1 kmh SSW 19.0 mph30.6 kmh 29.95 in1014.2 mb 0.00 in0.0 mm 0.00 in/hr0.0 mm/hr 0.00 in0.0 mm
07:28 AM 45.9°F7.7°C 41.7°F5.4°C 85% 12.0 mph SSW19.3 kmh SSW 19.0 mph30.6 kmh 29.95 in1014.2 mb 0.00 in0.0 mm 0.00 in/hr0.0 mm/hr 0.00 in0.0 mm
07:29 AM 45.9°F7.7°C 41.7°F5.4°C 85% 12.0 mph SSE19.3 kmh SSE 19.0 mph30.6 kmh 29.95 in1014.2 mb 0.00 in0.0 mm 0.00 in/hr0.0 mm/hr 0.00 in0.0 mm
07:30 AM 45.9°F7.7°C 41.7°F5.4°C 85% 12.0 mph S19.3 kmh S 19.0 mph30.6 kmh 29.95 in1014.2 mb 0.00 in0.0 mm 0.00 in/hr0.0 mm/hr 0.00 in0.0 mm
07:31 AM 45.9°F7.7°C 41.7°F5.4°C 85% 12.0 mph S19.3 kmh S 19.0 mph30.6 kmh 29.95 in1014.2 mb 0.00 in0.0 mm 0.00 in/hr0.0 mm/hr 0.00 in0.0 mm
07:32 AM 45.9°F7.7°C 41.7°F5.4°C 85% 12.0 mph SSW19.3 kmh SSW 15.0 mph24.1 kmh 29.95 in1014.2 mb 0.00 in0.0 mm 0.00 in/hr0.0 mm/hr 0.00 in0.0 mm
07:33 AM 45.9°F7.7°C 41.7°F5.4°C 85% 15.0 mph S24.1 kmh S 17.0 mph27.4 kmh 29.95 in1014.2 mb 0.00 in0.0 mm 0.00 in/hr0.0 mm/hr 0.00 in0.0 mm
07:34 AM 45.9°F7.7°C 41.7°F5.4°C 85% 12.0 mph SSW19.3 kmh SSW 17.0 mph27.4 kmh 29.95 in1014.2 mb 0.00 in0.0 mm 0.00 in/hr0.0 mm/hr 0.00 in0.0 mm
07:35 AM 46.0°F7.8°C 41.8°F5.4°C 85% 15.0 mph S24.1 kmh S 17.0 mph27.4 kmh 29.95 in1014.2 mb 0.00 in0.0 mm 0.00 in/hr0.0 mm/hr 0.00 in0.0 mm
07:36 AM 46.0°F7.8°C 41.8°F5.4°C 85% 15.0 mph S24.1 kmh S 17.0 mph27.4 kmh 29.95 in1014.2 mb 0.00 in0.0 mm 0.00 in/hr0.0 mm/hr 0.00 in0.0 mm
07:37 AM 46.0°F7.8°C 41.8°F5.4°C 85% 11.0 mph S17.7 kmh S 17.0 mph27.4 kmh 29.95 in1014.2 mb 0.00 in0.0 mm 0.00 in/hr0.0 mm/hr 0.00 in0.0 mm
07:38 AM 46.0°F7.8°C 41.8°F5.4°C 85% 10.0 mph S16.1 kmh S 17.0 mph27.4 kmh 29.95 in1014.2 mb 0.00 in0.0 mm 0.00 in/hr0.0 mm/hr 0.00 in0.0 mm
07:39 AM 46.0°F7.8°C 41.8°F5.4°C 85% 14.0 mph S22.5 kmh S 17.0 mph27.4 kmh 29.95 in1014.2 mb 0.00 in0.0 mm 0.00 in/hr0.0 mm/hr 0.00 in0.0 mm
07:40 AM 46.0°F7.8°C 41.8°F5.4°C 85% 11.0 mph S17.7 kmh S 17.0 mph27.4 kmh 29.94 in1013.9 mb 0.00 in0.0 mm 0.00 in/hr0.0 mm/hr 0.00 in0.0 mm
07:41 AM 46.1°F7.8°C 41.9°F5.5°C 85% 14.0 mph S22.5 kmh S 17.0 mph27.4 kmh 29.94 in1013.9 mb 0.00 in0.0 mm 0.00 in/hr0.0 mm/hr 0.00 in0.0 mm
07:42 AM 46.1°F7.8°C 41.9°F5.5°C 85% 12.0 mph S19.3 kmh S 18.0 mph29.0 kmh 29.94 in1013.9 mb 0.00 in0.0 mm 0.00 in/hr0.0 mm/hr 0.00 in0.0 mm
07:43 AM 46.1°F7.8°C 41.9°F5.5°C 85% 10.0 mph S16.1 kmh S 18.0 mph29.0 kmh 29.94 in1013.9 mb 0.00 in0.0 mm 0.00 in/hr0.0 mm/hr 0.00 in0.0 mm
07:44 AM 46.1°F7.8°C 41.9°F5.5°C 85% 11.0 mph S17.7 kmh S 18.0 mph29.0 kmh 29.94 in1013.9 mb 0.00 in0.0 mm 0.00 in/hr0.0 mm/hr 0.00 in0.0 mm
07:45 AM 46.2°F7.9°C 42.0°F5.6°C 85% 12.0 mph SSW19.3 kmh SSW 19.0 mph30.6 kmh 29.94 in1013.9 mb 0.00 in0.0 mm 0.00 in/hr0.0 mm/hr 0.00 in0.0 mm
07:46 AM 46.2°F7.9°C 42.0°F5.6°C 85% 11.0 mph S17.7 kmh S 19.0 mph30.6 kmh 29.94 in1013.9 mb 0.00 in0.0 mm 0.00 in/hr0.0 mm/hr 0.00 in0.0 mm
07:47 AM 46.2°F7.9°C 42.0°F5.6°C 85% 15.0 mph SSW24.1 kmh SSW 19.0 mph30.6 kmh 29.94 in1013.9 mb 0.00 in0.0 mm 0.00 in/hr0.0 mm/hr 0.00 in0.0 mm
07:48 AM 46.2°F7.9°C 42.0°F5.6°C 85% 10.0 mph S16.1 kmh S 19.0 mph30.6 kmh 29.94 in1013.9 mb 0.00 in0.0 mm 0.00 in/hr0.0 mm/hr 0.00 in0.0 mm
07:49 AM 46.3°F7.9°C 42.1°F5.6°C 85% 14.0 mph SSW22.5 kmh SSW 20.0 mph32.2 kmh 29.94 in1013.9 mb 0.00 in0.0 mm 0.00 in/hr0.0 mm/hr 0.00 in0.0 mm
07:50 AM 46.3°F7.9°C 42.1°F5.6°C 85% 14.0 mph S22.5 kmh S 20.0 mph32.2 kmh 29.94 in1013.9 mb 0.00 in0.0 mm 0.00 in/hr0.0 mm/hr 0.00 in0.0 mm
07:51 AM 46.3°F7.9°C 42.1°F5.6°C 85% 12.0 mph SSW19.3 kmh SSW 20.0 mph32.2 kmh 29.94 in1013.9 mb 0.00 in0.0 mm 0.00 in/hr0.0 mm/hr 0.00 in0.0 mm
07:52 AM 46.3°F7.9°C 41.7°F5.4°C 84% 13.0 mph SSW20.9 kmh SSW 20.0 mph32.2 kmh 29.94 in1013.9 mb 0.00 in0.0 mm 0.00 in/hr0.0 mm/hr 0.00 in0.0 mm
07:53 AM 46.4°F8.0°C 41.8°F5.4°C 84% 11.0 mph S17.7 kmh S 20.0 mph32.2 kmh 29.94 in1013.9 mb 0.00 in0.0 mm 0.00 in/hr0.0 mm/hr 0.00 in0.0 mm
07:54 AM 46.4°F8.0°C 41.8°F5.4°C 84% 14.0 mph SSW22.5 kmh SSW 20.0 mph32.2 kmh 29.93 in1013.5 mb 0.00 in0.0 mm 0.00 in/hr0.0 mm/hr 0.00 in0.0 mm
07:55 AM 46.4°F8.0°C 41.8°F5.4°C 84% 10.0 mph S16.1 kmh S 20.0 mph32.2 kmh 29.94 in1013.9 mb 0.00 in0.0 mm 0.00 in/hr0.0 mm/hr 0.00 in0.0 mm
07:56 AM 46.4°F8.0°C 41.8°F5.4°C 84% 10.0 mph SSW16.1 kmh SSW 20.0 mph32.2 kmh 29.94 in1013.9 mb 0.00 in0.0 mm 0.00 in/hr0.0 mm/hr 0.00 in0.0 mm
07:57 AM 46.4°F8.0°C 41.8°F5.4°C 84% 13.0 mph S20.9 kmh S 20.0 mph32.2 kmh 29.93 in1013.5 mb 0.00 in0.0 mm 0.00 in/hr0.0 mm/hr 0.00 in0.0 mm
07:58 AM 46.5°F8.1°C 41.9°F5.5°C 84% 14.0 mph S22.5 kmh S 20.0 mph32.2 kmh 29.93 in1013.5 mb 0.00 in0.0 mm 0.00 in/hr0.0 mm/hr 0.00 in0.0 mm
07:59 AM 46.5°F8.1°C 41.9°F5.5°C 84% 14.0 mph S22.5 kmh S 20.0 mph32.2 kmh 29.94 in1013.9 mb 0.00 in0.0 mm 0.00 in/hr0.0 mm/hr 0.00 in0.0 mm
08:00 AM 46.5°F8.1°C 41.9°F5.5°C 84% 13.0 mph SSW20.9 kmh SSW 20.0 mph32.2 kmh 29.93 in1013.5 mb 0.00 in0.0 mm 0.00 in/hr0.0 mm/hr 0.00 in0.0 mm
08:01 AM 46.5°F8.1°C 41.9°F5.5°C 84% 12.0 mph S19.3 kmh S 20.0 mph32.2 kmh 29.93 in1013.5 mb 0.00 in0.0 mm 0.00 in/hr0.0 mm/hr 0.00 in0.0 mm
08:02 AM 46.6°F8.1°C 42.0°F5.6°C 84% 14.0 mph S22.5 kmh S 17.0 mph27.4 kmh 29.93 in1013.5 mb 0.00 in0.0 mm 0.00 in/hr0.0 mm/hr 0.00 in0.0 mm
08:03 AM 46.6°F8.1°C 42.0°F5.6°C 84% 17.0 mph S27.4 kmh S 18.0 mph29.0 kmh 29.93 in1013.5 mb 0.00 in0.0 mm 0.00 in/hr0.0 mm/hr 0.00 in0.0 mm
08:04 AM 46.6°F8.1°C 42.0°F5.6°C 84% 14.0 mph S22.5 kmh S 18.0 mph29.0 kmh 29.93 in1013.5 mb 0.00 in0.0 mm 0.00 in/hr0.0 mm/hr 0.00 in0.0 mm
08:05 AM 46.7°F8.2°C 42.1°F5.6°C 84% 15.0 mph SW24.1 kmh SW 18.0 mph29.0 kmh 29.93 in1013.5 mb 0.00 in0.0 mm 0.00 in/hr0.0 mm/hr 0.00 in0.0 mm
08:06 AM 46.7°F8.2°C 42.1°F5.6°C 84% 13.0 mph S20.9 kmh S 18.0 mph29.0 kmh 29.93 in1013.5 mb 0.00 in0.0 mm 0.00 in/hr0.0 mm/hr 0.00 in0.0 mm
08:07 AM 46.8°F8.2°C 42.2°F5.7°C 84% 14.0 mph S22.5 kmh S 18.0 mph29.0 kmh 29.93 in1013.5 mb 0.00 in0.0 mm 0.00 in/hr0.0 mm/hr 0.00 in0.0 mm
08:08 AM 46.8°F8.2°C 42.2°F5.7°C 84% 13.0 mph S20.9 kmh S 18.0 mph29.0 kmh 29.93 in1013.5 mb 0.00 in0.0 mm 0.00 in/hr0.0 mm/hr 0.00 in0.0 mm
08:09 AM 46.8°F8.2°C 42.2°F5.7°C 84% 10.0 mph SSW16.1 kmh SSW 18.0 mph29.0 kmh 29.93 in1013.5 mb 0.00 in0.0 mm 0.00 in/hr0.0 mm/hr 0.00 in0.0 mm
08:10 AM 46.8°F8.2°C 42.2°F5.7°C 84% 13.0 mph S20.9 kmh S 18.0 mph29.0 kmh 29.93 in1013.5 mb 0.00 in0.0 mm 0.00 in/hr0.0 mm/hr 0.00 in0.0 mm
08:11 AM 46.8°F8.2°C 42.2°F5.7°C 84% 12.0 mph SW19.3 kmh SW 18.0 mph29.0 kmh 29.93 in1013.5 mb 0.00 in0.0 mm 0.00 in/hr0.0 mm/hr 0.00 in0.0 mm
08:12 AM 46.9°F8.3°C 42.3°F5.7°C 84% 12.0 mph S19.3 kmh S 18.0 mph29.0 kmh 29.93 in1013.5 mb 0.00 in0.0 mm 0.00 in/hr0.0 mm/hr 0.00 in0.0 mm
08:13 AM 46.9°F8.3°C 42.3°F5.7°C 84% 14.0 mph S22.5 kmh S 19.0 mph30.6 kmh 29.93 in1013.5 mb 0.00 in0.0 mm 0.00 in/hr0.0 mm/hr 0.00 in0.0 mm
08:14 AM 46.9°F8.3°C 42.3°F5.7°C 84% 14.0 mph S22.5 kmh S 19.0 mph30.6 kmh 29.93 in1013.5 mb 0.00 in0.0 mm 0.00 in/hr0.0 mm/hr 0.00 in0.0 mm
08:15 AM 47.0°F8.3°C 42.4°F5.8°C 84% 11.0 mph S17.7 kmh S 19.0 mph30.6 kmh 29.93 in1013.5 mb 0.00 in0.0 mm 0.00 in/hr0.0 mm/hr 0.00 in0.0 mm
08:16 AM 47.0°F8.3°C 42.4°F5.8°C 84% 12.0 mph SSW19.3 kmh SSW 19.0 mph30.6 kmh 29.93 in1013.5 mb 0.00 in0.0 mm 0.00 in/hr0.0 mm/hr 0.00 in0.0 mm
08:17 AM 47.0°F8.3°C 42.4°F5.8°C 84% 11.0 mph SSW17.7 kmh SSW 19.0 mph30.6 kmh 29.93 in1013.5 mb 0.00 in0.0 mm 0.00 in/hr0.0 mm/hr 0.00 in0.0 mm
08:18 AM 47.1°F8.4°C 42.5°F5.8°C 84% 13.0 mph S20.9 kmh S 19.0 mph30.6 kmh 29.93 in1013.5 mb 0.00 in0.0 mm 0.00 in/hr0.0 mm/hr 0.00 in0.0 mm
08:19 AM 47.1°F8.4°C 42.5°F5.8°C 84% 11.0 mph SSW17.7 kmh SSW 19.0 mph30.6 kmh 29.93 in1013.5 mb 0.00 in0.0 mm 0.00 in/hr0.0 mm/hr 0.00 in0.0 mm
08:20 AM 47.1°F8.4°C 42.5°F5.8°C 84% 12.0 mph S19.3 kmh S 19.0 mph30.6 kmh 29.93 in1013.5 mb 0.00 in0.0 mm 0.00 in/hr0.0 mm/hr 0.00 in0.0 mm
08:21 AM 47.2°F8.4°C 42.6°F5.9°C 84% 15.0 mph S24.1 kmh S 19.0 mph30.6 kmh 29.93 in1013.5 mb 0.00 in0.0 mm 0.00 in/hr0.0 mm/hr 0.00 in0.0 mm
08:22 AM 47.2°F8.4°C 42.3°F5.7°C 83% 15.0 mph S24.1 kmh S 19.0 mph30.6 kmh 29.93 in1013.5 mb 0.00 in0.0 mm 0.00 in/hr0.0 mm/hr 0.00 in0.0 mm
08:23 AM 47.3°F8.5°C 42.4°F5.8°C 83% 13.0 mph S20.9 kmh S 19.0 mph30.6 kmh 29.93 in1013.5 mb 0.00 in0.0 mm 0.00 in/hr0.0 mm/hr 0.00 in0.0 mm
08:24 AM 47.3°F8.5°C 42.4°F5.8°C 83% 8.0 mph S12.9 kmh S 19.0 mph30.6 kmh 29.93 in1013.5 mb 0.00 in0.0 mm 0.00 in/hr0.0 mm/hr 0.00 in0.0 mm
08:25 AM 47.3°F8.5°C 42.4°F5.8°C 83% 7.0 mph SW11.3 kmh SW 19.0 mph30.6 kmh 29.93 in1013.5 mb 0.00 in0.0 mm 0.00 in/hr0.0 mm/hr 0.00 in0.0 mm
08:26 AM 47.4°F8.6°C 42.5°F5.8°C 83% 10.0 mph SSW16.1 kmh SSW 19.0 mph30.6 kmh 29.93 in1013.5 mb 0.00 in0.0 mm 0.00 in/hr0.0 mm/hr 0.00 in0.0 mm
08:27 AM 47.4°F8.6°C 42.5°F5.8°C 83% 10.0 mph S16.1 kmh S 19.0 mph30.6 kmh 29.93 in1013.5 mb 0.00 in0.0 mm 0.00 in/hr0.0 mm/hr 0.00 in0.0 mm
08:28 AM 47.4°F8.6°C 42.5°F5.8°C 83% 8.0 mph SSW12.9 kmh SSW 19.0 mph30.6 kmh 29.93 in1013.5 mb 0.00 in0.0 mm 0.00 in/hr0.0 mm/hr 0.00 in0.0 mm
08:29 AM 47.5°F8.6°C 42.6°F5.9°C 83% 7.0 mph SSW11.3 kmh SSW 19.0 mph30.6 kmh 29.93 in1013.5 mb 0.00 in0.0 mm 0.00 in/hr0.0 mm/hr 0.00 in0.0 mm
08:30 AM 47.5°F8.6°C 42.6°F5.9°C 83% 10.0 mph SSW16.1 kmh SSW 19.0 mph30.6 kmh 29.93 in1013.5 mb 0.00 in0.0 mm 0.00 in/hr0.0 mm/hr 0.00 in0.0 mm
08:31 AM 47.6°F8.7°C 42.7°F5.9°C 83% 11.0 mph S17.7 kmh S 19.0 mph30.6 kmh 29.93 in1013.5 mb 0.00 in0.0 mm 0.00 in/hr0.0 mm/hr 0.00 in0.0 mm
08:32 AM 47.6°F8.7°C 42.7°F5.9°C 83% 10.0 mph SSW16.1 kmh SSW 11.0 mph17.7 kmh 29.93 in1013.5 mb 0.00 in0.0 mm 0.00 in/hr0.0 mm/hr 0.00 in0.0 mm
08:33 AM 47.6°F8.7°C 42.7°F5.9°C 83% 12.0 mph SW19.3 kmh SW 13.0 mph20.9 kmh 29.93 in1013.5 mb 0.00 in0.0 mm 0.00 in/hr0.0 mm/hr 0.00 in0.0 mm
08:34 AM 47.6°F8.7°C 42.7°F5.9°C 83% 7.0 mph SSW11.3 kmh SSW 13.0 mph20.9 kmh 29.93 in1013.5 mb 0.00 in0.0 mm 0.00 in/hr0.0 mm/hr 0.00 in0.0 mm
08:35 AM 47.7°F8.7°C 42.8°F6.0°C 83% 7.0 mph SSW11.3 kmh SSW 13.0 mph20.9 kmh 29.94 in1013.9 mb 0.00 in0.0 mm 0.00 in/hr0.0 mm/hr 0.00 in0.0 mm
08:36 AM 47.7°F8.7°C 42.8°F6.0°C 83% 7.0 mph SW11.3 kmh SW 13.0 mph20.9 kmh 29.94 in1013.9 mb 0.00 in0.0 mm 0.00 in/hr0.0 mm/hr 0.00 in0.0 mm
08:37 AM 47.8°F8.8°C 43.2°F6.2°C 84% 8.0 mph SSW12.9 kmh SSW 13.0 mph20.9 kmh 29.94 in1013.9 mb 0.00 in0.0 mm 0.00 in/hr0.0 mm/hr 0.00 in0.0 mm
08:38 AM 47.8°F8.8°C 43.2°F6.2°C 84% 6.0 mph SW9.7 kmh SW 13.0 mph20.9 kmh 29.94 in1013.9 mb 0.00 in0.0 mm 0.00 in/hr0.0 mm/hr 0.00 in0.0 mm
08:39 AM 47.9°F8.8°C 43.0°F6.1°C 83% 9.0 mph SSW14.5 kmh SSW 13.0 mph20.9 kmh 29.94 in1013.9 mb 0.00 in0.0 mm 0.00 in/hr0.0 mm/hr 0.00 in0.0 mm
08:40 AM 48.0°F8.9°C 43.1°F6.2°C 83% 7.0 mph SW11.3 kmh SW 13.0 mph20.9 kmh 29.94 in1013.9 mb 0.00 in0.0 mm 0.00 in/hr0.0 mm/hr 0.00 in0.0 mm
08:41 AM 48.1°F8.9°C 43.2°F6.2°C 83% 5.0 mph S8.0 kmh S 13.0 mph20.9 kmh 29.94 in1013.9 mb 0.00 in0.0 mm 0.00 in/hr0.0 mm/hr 0.00 in0.0 mm
08:42 AM 48.1°F8.9°C 43.2°F6.2°C 83% 6.0 mph SW9.7 kmh SW 13.0 mph20.9 kmh 29.94 in1013.9 mb 0.00 in0.0 mm 0.00 in/hr0.0 mm/hr 0.00 in0.0 mm
08:43 AM 48.2°F9.0°C 43.3°F6.3°C 83% 6.0 mph SW9.7 kmh SW 13.0 mph20.9 kmh 29.94 in1013.9 mb 0.00 in0.0 mm 0.00 in/hr0.0 mm/hr 0.00 in0.0 mm
08:44 AM 48.3°F9.1°C 43.4°F6.3°C 83% 8.0 mph SSW12.9 kmh SSW 13.0 mph20.9 kmh 29.94 in1013.9 mb 0.00 in0.0 mm 0.00 in/hr0.0 mm/hr 0.00 in0.0 mm
08:45 AM 48.3°F9.1°C 43.4°F6.3°C 83% 4.0 mph SW6.4 kmh SW 13.0 mph20.9 kmh 29.95 in1014.2 mb 0.00 in0.0 mm 0.00 in/hr0.0 mm/hr 0.00 in0.0 mm
08:46 AM 48.4°F9.1°C 43.2°F6.2°C 82% 5.0 mph SW8.0 kmh SW 13.0 mph20.9 kmh 29.95 in1014.2 mb 0.00 in0.0 mm 0.00 in/hr0.0 mm/hr 0.00 in0.0 mm
08:47 AM 48.5°F9.2°C 43.3°F6.3°C 82% 6.0 mph SSW9.7 kmh SSW 13.0 mph20.9 kmh 29.95 in1014.2 mb 0.00 in0.0 mm 0.00 in/hr0.0 mm/hr 0.00 in0.0 mm
08:48 AM 48.5°F9.2°C 43.3°F6.3°C 82% 8.0 mph SSW12.9 kmh SSW 14.0 mph22.5 kmh 29.95 in1014.2 mb 0.00 in0.0 mm 0.00 in/hr0.0 mm/hr 0.00 in0.0 mm
08:49 AM 48.6°F9.2°C 43.4°F6.3°C 82% 10.0 mph SW16.1 kmh SW 14.0 mph22.5 kmh 29.94 in1013.9 mb 0.00 in0.0 mm 0.00 in/hr0.0 mm/hr 0.00 in0.0 mm
08:50 AM 48.6°F9.2°C 43.4°F6.3°C 82% 11.0 mph SSW17.7 kmh SSW 14.0 mph22.5 kmh 29.94 in1013.9 mb 0.00 in0.0 mm 0.00 in/hr0.0 mm/hr 0.00 in0.0 mm
08:51 AM 48.7°F9.3°C 43.5°F6.4°C 82% 10.0 mph S16.1 kmh S 15.0 mph24.1 kmh 29.94 in1013.9 mb 0.00 in0.0 mm 0.00 in/hr0.0 mm/hr 0.00 in0.0 mm
08:52 AM 48.8°F9.3°C 43.6°F6.4°C 82% 11.0 mph SW17.7 kmh SW 15.0 mph24.1 kmh 29.94 in1013.9 mb 0.00 in0.0 mm 0.00 in/hr0.0 mm/hr 0.00 in0.0 mm
08:53 AM 48.8°F9.3°C 43.6°F6.4°C 82% 10.0 mph SW16.1 kmh SW 15.0 mph24.1 kmh 29.94 in1013.9 mb 0.00 in0.0 mm 0.00 in/hr0.0 mm/hr 0.00 in0.0 mm
08:54 AM 48.8°F9.3°C 43.2°F6.2°C 81% 7.0 mph SSW11.3 kmh SSW 15.0 mph24.1 kmh 29.94 in1013.9 mb 0.00 in0.0 mm 0.00 in/hr0.0 mm/hr 0.00 in0.0 mm
08:55 AM 48.9°F9.4°C 43.3°F6.3°C 81% 8.0 mph SSW12.9 kmh SSW 15.0 mph24.1 kmh 29.94 in1013.9 mb 0.00 in0.0 mm 0.00 in/hr0.0 mm/hr 0.00 in0.0 mm
08:56 AM 49.0°F9.4°C 43.4°F6.3°C 81% 12.0 mph SW19.3 kmh SW 15.0 mph24.1 kmh 29.94 in1013.9 mb 0.00 in0.0 mm 0.00 in/hr0.0 mm/hr 0.00 in0.0 mm
08:57 AM 49.0°F9.4°C 43.8°F6.6°C 82% 8.0 mph SW12.9 kmh SW 15.0 mph24.1 kmh 29.94 in1013.9 mb 0.00 in0.0 mm 0.00 in/hr0.0 mm/hr 0.00 in0.0 mm
08:58 AM 49.0°F9.4°C 43.4°F6.3°C 81% 9.0 mph SW14.5 kmh SW 15.0 mph24.1 kmh 29.94 in1013.9 mb 0.00 in0.0 mm 0.00 in/hr0.0 mm/hr 0.00 in0.0 mm
08:59 AM 49.0°F9.4°C 43.4°F6.3°C 81% 9.0 mph SSW14.5 kmh SSW 15.0 mph24.1 kmh 29.94 in1013.9 mb 0.00 in0.0 mm 0.00 in/hr0.0 mm/hr 0.00 in0.0 mm
09:00 AM 49.1°F9.5°C 43.5°F6.4°C 81% 10.0 mph SW16.1 kmh SW 15.0 mph24.1 kmh 29.94 in1013.9 mb 0.00 in0.0 mm 0.00 in/hr0.0 mm/hr 0.00 in0.0 mm
09:01 AM 49.1°F9.5°C 43.5°F6.4°C 81% 11.0 mph SW17.7 kmh SW 15.0 mph24.1 kmh 29.94 in1013.9 mb 0.00 in0.0 mm 0.00 in/hr0.0 mm/hr 0.00 in0.0 mm
09:02 AM 49.1°F9.5°C 43.5°F6.4°C 81% 10.0 mph SW16.1 kmh SW 12.0 mph19.3 kmh 29.94 in1013.9 mb 0.00 in0.0 mm 0.00 in/hr0.0 mm/hr 0.00 in0.0 mm
09:03 AM 49.1°F9.5°C 43.5°F6.4°C 81% 8.0 mph SSW12.9 kmh SSW 12.0 mph19.3 kmh 29.94 in1013.9 mb 0.00 in0.0 mm 0.00 in/hr0.0 mm/hr 0.00 in0.0 mm
09:04 AM 49.2°F9.6°C 43.6°F6.4°C 81% 9.0 mph SSW14.5 kmh SSW 13.0 mph20.9 kmh 29.94 in1013.9 mb 0.00 in0.0 mm 0.00 in/hr0.0 mm/hr 0.00 in0.0 mm
09:05 AM 49.2°F9.6°C 43.6°F6.4°C 81% 9.0 mph SSW14.5 kmh SSW 13.0 mph20.9 kmh 29.94 in1013.9 mb 0.00 in0.0 mm 0.00 in/hr0.0 mm/hr 0.00 in0.0 mm
09:06 AM 49.2°F9.6°C 44.0°F6.7°C 82% 10.0 mph S16.1 kmh S 13.0 mph20.9 kmh 29.94 in1013.9 mb 0.00 in0.0 mm 0.00 in/hr0.0 mm/hr 0.00 in0.0 mm
09:07 AM 49.2°F9.6°C 43.6°F6.4°C 81% 8.0 mph SSW12.9 kmh SSW 14.0 mph22.5 kmh 29.93 in1013.5 mb 0.00 in0.0 mm 0.00 in/hr0.0 mm/hr 0.00 in0.0 mm
09:08 AM 49.2°F9.6°C 43.6°F6.4°C 81% 10.0 mph SSW16.1 kmh SSW 14.0 mph22.5 kmh 29.93 in1013.5 mb 0.00 in0.0 mm 0.00 in/hr0.0 mm/hr 0.00 in0.0 mm
09:09 AM 49.2°F9.6°C 43.6°F6.4°C 81% 11.0 mph SSW17.7 kmh SSW 15.0 mph24.1 kmh 29.93 in1013.5 mb 0.00 in0.0 mm 0.00 in/hr0.0 mm/hr 0.00 in0.0 mm
09:10 AM 49.3°F9.6°C 43.7°F6.5°C 81% 10.0 mph SSW16.1 kmh SSW 15.0 mph24.1 kmh 29.93 in1013.5 mb 0.00 in0.0 mm 0.00 in/hr0.0 mm/hr 0.00 in0.0 mm
09:11 AM 49.3°F9.6°C 43.7°F6.5°C 81% 9.0 mph SSW14.5 kmh SSW 15.0 mph24.1 kmh 29.93 in1013.5 mb 0.00 in0.0 mm 0.00 in/hr0.0 mm/hr 0.00 in0.0 mm
09:12 AM 49.3°F9.6°C 43.7°F6.5°C 81% 8.0 mph S12.9 kmh S 15.0 mph24.1 kmh 29.93 in1013.5 mb 0.00 in0.0 mm 0.00 in/hr0.0 mm/hr 0.00 in0.0 mm
09:13 AM 49.3°F9.6°C 43.7°F6.5°C 81% 12.0 mph S19.3 kmh S 15.0 mph24.1 kmh 29.93 in1013.5 mb 0.00 in0.0 mm 0.00 in/hr0.0 mm/hr 0.00 in0.0 mm
09:14 AM 49.3°F9.6°C 43.7°F6.5°C 81% 9.0 mph SSW14.5 kmh SSW 15.0 mph24.1 kmh 29.93 in1013.5 mb 0.00 in0.0 mm 0.00 in/hr0.0 mm/hr 0.00 in0.0 mm
09:15 AM 49.4°F9.7°C 43.8°F6.6°C 81% 14.0 mph S22.5 kmh S 15.0 mph24.1 kmh 29.92 in1013.2 mb 0.00 in0.0 mm 0.00 in/hr0.0 mm/hr 0.00 in0.0 mm
09:16 AM 49.4°F9.7°C 43.5°F6.4°C 80% 13.0 mph S20.9 kmh S 15.0 mph24.1 kmh 29.92 in1013.2 mb 0.00 in0.0 mm 0.00 in/hr0.0 mm/hr 0.00 in0.0 mm
09:17 AM 49.4°F9.7°C 43.5°F6.4°C 80% 16.0 mph S25.7 kmh S 16.0 mph25.7 kmh 29.92 in1013.2 mb 0.00 in0.0 mm 0.00 in/hr0.0 mm/hr 0.00 in0.0 mm
09:18 AM 49.5°F9.7°C 43.6°F6.4°C 80% 13.0 mph S20.9 kmh S 16.0 mph25.7 kmh 29.92 in1013.2 mb 0.00 in0.0 mm 0.00 in/hr0.0 mm/hr 0.00 in0.0 mm
09:19 AM 49.5°F9.7°C 43.9°F6.6°C 81% 10.0 mph S16.1 kmh S 16.0 mph25.7 kmh 29.92 in1013.2 mb 0.00 in0.0 mm 0.00 in/hr0.0 mm/hr 0.00 in0.0 mm
09:20 AM 49.6°F9.8°C 44.0°F6.7°C 81% 10.0 mph S16.1 kmh S 16.0 mph25.7 kmh 29.92 in1013.2 mb 0.00 in0.0 mm 0.00 in/hr0.0 mm/hr 0.00 in0.0 mm
09:21 AM 49.6°F9.8°C 43.7°F6.5°C 80% 9.0 mph SSW14.5 kmh SSW 16.0 mph25.7 kmh 29.92 in1013.2 mb 0.00 in0.0 mm 0.00 in/hr0.0 mm/hr 0.00 in0.0 mm
09:22 AM 49.7°F9.8°C 44.1°F6.7°C 81% 9.0 mph S14.5 kmh S 17.0 mph27.4 kmh 29.92 in1013.2 mb 0.00 in0.0 mm 0.00 in/hr0.0 mm/hr 0.00 in0.0 mm
09:23 AM 49.7°F9.8°C 44.1°F6.7°C 81% 9.0 mph SSW14.5 kmh SSW 17.0 mph27.4 kmh 29.92 in1013.2 mb 0.00 in0.0 mm 0.00 in/hr0.0 mm/hr 0.00 in0.0 mm
09:24 AM 49.8°F9.9°C 44.2°F6.8°C 81% 14.0 mph SSW22.5 kmh SSW 17.0 mph27.4 kmh 29.92 in1013.2 mb 0.00 in0.0 mm 0.00 in/hr0.0 mm/hr 0.00 in0.0 mm
09:25 AM 49.9°F9.9°C 44.3°F6.8°C 81% 10.0 mph S16.1 kmh S 18.0 mph29.0 kmh 29.92 in1013.2 mb 0.00 in0.0 mm 0.00 in/hr0.0 mm/hr 0.00 in0.0 mm
09:26 AM 49.9°F9.9°C 44.0°F6.7°C 80% 12.0 mph SSW19.3 kmh SSW 18.0 mph29.0 kmh 29.92 in1013.2 mb 0.00 in0.0 mm 0.00 in/hr0.0 mm/hr 0.00 in0.0 mm
09:27 AM 50.0°F10.0°C 44.1°F6.7°C 80% 11.0 mph SSW17.7 kmh SSW 18.0 mph29.0 kmh 29.92 in1013.2 mb 0.00 in0.0 mm 0.00 in/hr0.0 mm/hr 0.00 in0.0 mm
09:28 AM 50.1°F10.1°C 44.2°F6.8°C 80% 10.0 mph SSW16.1 kmh SSW 18.0 mph29.0 kmh 29.92 in1013.2 mb 0.00 in0.0 mm 0.00 in/hr0.0 mm/hr 0.00 in0.0 mm
09:29 AM 50.2°F10.1°C 44.3°F6.8°C 80% 12.0 mph S19.3 kmh S 18.0 mph29.0 kmh 29.92 in1013.2 mb 0.00 in0.0 mm 0.00 in/hr0.0 mm/hr 0.00 in0.0 mm
09:30 AM 50.3°F10.2°C 44.4°F6.9°C 80% 12.0 mph SSW19.3 kmh SSW 18.0 mph29.0 kmh 29.92 in1013.2 mb 0.00 in0.0 mm 0.00 in/hr0.0 mm/hr 0.00 in0.0 mm
09:31 AM 50.3°F10.2°C 44.4°F6.9°C 80% 7.0 mph SSW11.3 kmh SSW 18.0 mph29.0 kmh 29.92 in1013.2 mb 0.00 in0.0 mm 0.00 in/hr0.0 mm/hr 0.00 in0.0 mm
09:32 AM 50.4°F10.2°C 44.5°F6.9°C 80% 8.0 mph S12.9 kmh S 10.0 mph16.1 kmh 29.92 in1013.2 mb 0.00 in0.0 mm 0.00 in/hr0.0 mm/hr 0.00 in0.0 mm
09:33 AM 50.5°F10.3°C 44.6°F7.0°C 80% 7.0 mph SW11.3 kmh SW 10.0 mph16.1 kmh 29.92 in1013.2 mb 0.00 in0.0 mm 0.00 in/hr0.0 mm/hr 0.00 in0.0 mm
09:34 AM 50.5°F10.3°C 44.6°F7.0°C 80% 8.0 mph SW12.9 kmh SW 16.0 mph25.7 kmh 29.93 in1013.5 mb 0.00 in0.0 mm 0.00 in/hr0.0 mm/hr 0.00 in0.0 mm
09:35 AM 50.6°F10.3°C 44.3°F6.8°C 79% 10.0 mph SW16.1 kmh SW 16.0 mph25.7 kmh 29.92 in1013.2 mb 0.00 in0.0 mm 0.00 in/hr0.0 mm/hr 0.00 in0.0 mm
09:36 AM 50.6°F10.3°C 44.3°F6.8°C 79% 6.0 mph S9.7 kmh S 16.0 mph25.7 kmh 29.93 in1013.5 mb 0.00 in0.0 mm 0.00 in/hr0.0 mm/hr 0.00 in0.0 mm
09:37 AM 50.7°F10.4°C 44.4°F6.9°C 79% 7.0 mph SW11.3 kmh SW 16.0 mph25.7 kmh 29.93 in1013.5 mb 0.00 in0.0 mm 0.00 in/hr0.0 mm/hr 0.00 in0.0 mm
09:38 AM 50.8°F10.4°C 44.5°F6.9°C 79% 11.0 mph SW17.7 kmh SW 16.0 mph25.7 kmh 29.93 in1013.5 mb 0.00 in0.0 mm 0.00 in/hr0.0 mm/hr 0.00 in0.0 mm
09:39 AM 50.9°F10.5°C 44.6°F7.0°C 79% 7.0 mph SW11.3 kmh SW 16.0 mph25.7 kmh 29.93 in1013.5 mb 0.00 in0.0 mm 0.00 in/hr0.0 mm/hr 0.00 in0.0 mm
09:40 AM 51.0°F10.6°C 44.7°F7.1°C 79% 9.0 mph SSW14.5 kmh SSW 16.0 mph25.7 kmh 29.93 in1013.5 mb 0.00 in0.0 mm 0.00 in/hr0.0 mm/hr 0.00 in0.0 mm
09:41 AM 51.0°F10.6°C 44.7°F7.1°C 79% 5.0 mph SW8.0 kmh SW 16.0 mph25.7 kmh 29.93 in1013.5 mb 0.00 in0.0 mm 0.00 in/hr0.0 mm/hr 0.00 in0.0 mm
09:42 AM 51.1°F10.6°C 44.8°F7.1°C 79% 7.0 mph SW11.3 kmh SW 16.0 mph25.7 kmh 29.93 in1013.5 mb 0.00 in0.0 mm 0.00 in/hr0.0 mm/hr 0.00 in0.0 mm
09:43 AM 51.2°F10.7°C 44.9°F7.2°C 79% 7.0 mph SW11.3 kmh SW 16.0 mph25.7 kmh 29.93 in1013.5 mb 0.00 in0.0 mm 0.00 in/hr0.0 mm/hr 0.00 in0.0 mm
09:44 AM 51.2°F10.7°C 44.9°F7.2°C 79% 7.0 mph SSW11.3 kmh SSW 16.0 mph25.7 kmh 29.93 in1013.5 mb 0.00 in0.0 mm 0.00 in/hr0.0 mm/hr 0.00 in0.0 mm
09:45 AM 51.3°F10.7°C 44.7°F7.1°C 78% 4.0 mph SW6.4 kmh SW 16.0 mph25.7 kmh 29.93 in1013.5 mb 0.00 in0.0 mm 0.00 in/hr0.0 mm/hr 0.00 in0.0 mm
09:46 AM 51.4°F10.8°C 45.1°F7.3°C 79% 6.0 mph SW9.7 kmh SW 16.0 mph25.7 kmh 29.93 in1013.5 mb 0.00 in0.0 mm 0.00 in/hr0.0 mm/hr 0.00 in0.0 mm
09:47 AM 51.4°F10.8°C 45.1°F7.3°C 79% 8.0 mph SSW12.9 kmh SSW 16.0 mph25.7 kmh 29.93 in1013.5 mb 0.00 in0.0 mm 0.00 in/hr0.0 mm/hr 0.00 in0.0 mm
09:48 AM 51.5°F10.8°C 45.2°F7.3°C 79% 7.0 mph S11.3 kmh S 16.0 mph25.7 kmh 29.92 in1013.2 mb 0.00 in0.0 mm 0.00 in/hr0.0 mm/hr 0.00 in0.0 mm
09:49 AM 51.5°F10.8°C 44.9°F7.2°C 78% 7.0 mph SW11.3 kmh SW 16.0 mph25.7 kmh 29.93 in1013.5 mb 0.00 in0.0 mm 0.00 in/hr0.0 mm/hr 0.00 in0.0 mm
09:50 AM 51.6°F10.9°C 45.0°F7.2°C 78% 10.0 mph SW16.1 kmh SW 16.0 mph25.7 kmh 29.92 in1013.2 mb 0.00 in0.0 mm 0.00 in/hr0.0 mm/hr 0.00 in0.0 mm
09:51 AM 51.7°F10.9°C 45.1°F7.3°C 78% 7.0 mph SW11.3 kmh SW 16.0 mph25.7 kmh 29.92 in1013.2 mb 0.00 in0.0 mm 0.00 in/hr0.0 mm/hr 0.00 in0.0 mm
09:52 AM 51.8°F11.0°C 45.2°F7.3°C 78% 7.0 mph SW11.3 kmh SW 16.0 mph25.7 kmh 29.92 in1013.2 mb 0.00 in0.0 mm 0.00 in/hr0.0 mm/hr 0.00 in0.0 mm
09:53 AM 51.8°F11.0°C 45.2°F7.3°C 78% 8.0 mph SSW12.9 kmh SSW 16.0 mph25.7 kmh 29.92 in1013.2 mb 0.00 in0.0 mm 0.00 in/hr0.0 mm/hr 0.00 in0.0 mm
09:54 AM 51.9°F11.1°C 44.9°F7.2°C 77% 5.0 mph SW8.0 kmh SW 16.0 mph25.7 kmh 29.92 in1013.2 mb 0.00 in0.0 mm 0.00 in/hr0.0 mm/hr 0.00 in0.0 mm
09:55 AM 51.9°F11.1°C 44.9°F7.2°C 77% 6.0 mph SW9.7 kmh SW 16.0 mph25.7 kmh 29.92 in1013.2 mb 0.00 in0.0 mm 0.00 in/hr0.0 mm/hr 0.00 in0.0 mm
09:56 AM 52.0°F11.1°C 45.0°F7.2°C 77% 5.0 mph SW8.0 kmh SW 16.0 mph25.7 kmh 29.92 in1013.2 mb 0.00 in0.0 mm 0.00 in/hr0.0 mm/hr 0.00 in0.0 mm
09:57 AM 52.1°F11.2°C 45.1°F7.3°C 77% 7.0 mph SW11.3 kmh SW 16.0 mph25.7 kmh 29.92 in1013.2 mb 0.00 in0.0 mm 0.00 in/hr0.0 mm/hr 0.00 in0.0 mm
09:58 AM 52.1°F11.2°C 45.1°F7.3°C 77% 10.0 mph S16.1 kmh S 16.0 mph25.7 kmh 29.92 in1013.2 mb 0.00 in0.0 mm 0.00 in/hr0.0 mm/hr 0.00 in0.0 mm
09:59 AM 52.2°F11.2°C 45.2°F7.3°C 77% 7.0 mph SW11.3 kmh SW 16.0 mph25.7 kmh 29.92 in1013.2 mb 0.00 in0.0 mm 0.00 in/hr0.0 mm/hr 0.00 in0.0 mm
10:00 AM 52.2°F11.2°C 45.2°F7.3°C 77% 7.0 mph S11.3 kmh S 16.0 mph25.7 kmh 29.92 in1013.2 mb 0.00 in0.0 mm 0.00 in/hr0.0 mm/hr 0.00 in0.0 mm
10:01 AM 52.3°F11.3°C 45.3°F7.4°C 77% 7.0 mph SW11.3 kmh SW 16.0 mph25.7 kmh 29.93 in1013.5 mb 0.00 in0.0 mm 0.00 in/hr0.0 mm/hr 0.00 in0.0 mm
10:02 AM 52.3°F11.3°C 45.0°F7.2°C 76% 7.0 mph SW11.3 kmh SW 9.0 mph14.5 kmh 29.93 in1013.5 mb 0.00 in0.0 mm 0.00 in/hr0.0 mm/hr 0.00 in0.0 mm
10:03 AM 52.4°F11.3°C 45.4°F7.4°C 77% 8.0 mph SW12.9 kmh SW 10.0 mph16.1 kmh 29.93 in1013.5 mb 0.00 in0.0 mm 0.00 in/hr0.0 mm/hr 0.00 in0.0 mm
10:04 AM 52.4°F11.3°C 45.1°F7.3°C 76% 7.0 mph SW11.3 kmh SW 10.0 mph16.1 kmh 29.93 in1013.5 mb 0.00 in0.0 mm 0.00 in/hr0.0 mm/hr 0.00 in0.0 mm
10:05 AM 52.5°F11.4°C 45.2°F7.3°C 76% 8.0 mph SW12.9 kmh SW 10.0 mph16.1 kmh 29.93 in1013.5 mb 0.00 in0.0 mm 0.00 in/hr0.0 mm/hr 0.00 in0.0 mm
10:06 AM 52.5°F11.4°C 45.2°F7.3°C 76% 7.0 mph SW11.3 kmh SW 10.0 mph16.1 kmh 29.93 in1013.5 mb 0.00 in0.0 mm 0.00 in/hr0.0 mm/hr 0.00 in0.0 mm
10:07 AM 52.6°F11.4°C 45.3°F7.4°C 76% 8.0 mph WSW12.9 kmh WSW 10.0 mph16.1 kmh 29.93 in1013.5 mb 0.00 in0.0 mm 0.00 in/hr0.0 mm/hr 0.00 in0.0 mm
10:08 AM 52.6°F11.4°C 45.3°F7.4°C 76% 8.0 mph SW12.9 kmh SW 10.0 mph16.1 kmh 29.93 in1013.5 mb 0.00 in0.0 mm 0.00 in/hr0.0 mm/hr 0.00 in0.0 mm
10:09 AM 52.7°F11.5°C 45.4°F7.4°C 76% 7.0 mph SW11.3 kmh SW 11.0 mph17.7 kmh 29.93 in1013.5 mb 0.00 in0.0 mm 0.00 in/hr0.0 mm/hr 0.00 in0.0 mm
10:10 AM 52.8°F11.6°C 45.5°F7.5°C 76% 8.0 mph SW12.9 kmh SW 11.0 mph17.7 kmh 29.93 in1013.5 mb 0.00 in0.0 mm 0.00 in/hr0.0 mm/hr 0.00 in0.0 mm
10:11 AM 52.8°F11.6°C 45.5°F7.5°C 76% 6.0 mph SW9.7 kmh SW 11.0 mph17.7 kmh 29.93 in1013.5 mb 0.00 in0.0 mm 0.00 in/hr0.0 mm/hr 0.00 in0.0 mm
10:12 AM 53.0°F11.7°C 45.7°F7.6°C 76% 8.0 mph SW12.9 kmh SW 12.0 mph19.3 kmh 29.92 in1013.2 mb 0.00 in0.0 mm 0.00 in/hr0.0 mm/hr 0.00 in0.0 mm
10:13 AM 53.1°F11.7°C 45.8°F7.7°C 76% 7.0 mph SW11.3 kmh SW 13.0 mph20.9 kmh 29.92 in1013.2 mb 0.00 in0.0 mm 0.00 in/hr0.0 mm/hr 0.00 in0.0 mm
10:14 AM 53.2°F11.8°C 45.5°F7.5°C 75% 7.0 mph SW11.3 kmh SW 13.0 mph20.9 kmh 29.92 in1013.2 mb 0.00 in0.0 mm 0.00 in/hr0.0 mm/hr 0.00 in0.0 mm
10:15 AM 53.3°F11.8°C 45.9°F7.7°C 76% 5.0 mph WSW8.0 kmh WSW 13.0 mph20.9 kmh 29.92 in1013.2 mb 0.00 in0.0 mm 0.00 in/hr0.0 mm/hr 0.00 in0.0 mm
10:16 AM 53.5°F11.9°C 46.1°F7.8°C 76% 7.0 mph SW11.3 kmh SW 13.0 mph20.9 kmh 29.93 in1013.5 mb 0.00 in0.0 mm 0.00 in/hr0.0 mm/hr 0.00 in0.0 mm
10:17 AM 53.7°F12.1°C 46.0°F7.8°C 75% 6.0 mph SSW9.7 kmh SSW 13.0 mph20.9 kmh 29.93 in1013.5 mb 0.00 in0.0 mm 0.00 in/hr0.0 mm/hr 0.00 in0.0 mm
10:18 AM 53.9°F12.2°C 46.2°F7.9°C 75% 7.0 mph SW11.3 kmh SW 13.0 mph20.9 kmh 29.92 in1013.2 mb 0.00 in0.0 mm 0.00 in/hr0.0 mm/hr 0.00 in0.0 mm
10:19 AM 54.0°F12.2°C 46.3°F7.9°C 75% 6.0 mph SSW9.7 kmh SSW 13.0 mph20.9 kmh 29.92 in1013.2 mb 0.00 in0.0 mm 0.00 in/hr0.0 mm/hr 0.00 in0.0 mm
10:20 AM 54.2°F12.3°C 46.5°F8.1°C 75% 9.0 mph SW14.5 kmh SW 13.0 mph20.9 kmh 29.92 in1013.2 mb 0.00 in0.0 mm 0.00 in/hr0.0 mm/hr 0.00 in0.0 mm
10:21 AM 54.4°F12.4°C 46.3°F7.9°C 74% 9.0 mph SW14.5 kmh SW 13.0 mph20.9 kmh 29.92 in1013.2 mb 0.00 in0.0 mm 0.00 in/hr0.0 mm/hr 0.00 in0.0 mm
10:22 AM 54.6°F12.6°C 46.5°F8.1°C 74% 10.0 mph SW16.1 kmh SW 13.0 mph20.9 kmh 29.92 in1013.2 mb 0.00 in0.0 mm 0.00 in/hr0.0 mm/hr 0.00 in0.0 mm
10:24 AM 54.9°F12.7°C 46.4°F8.0°C 73% 11.0 mph SW17.7 kmh SW 15.0 mph24.1 kmh 29.92 in1013.2 mb 0.00 in0.0 mm 0.00 in/hr0.0 mm/hr 0.00 in0.0 mm
10:25 AM 55.0°F12.8°C 46.5°F8.1°C 73% 8.0 mph SW12.9 kmh SW 15.0 mph24.1 kmh 29.92 in1013.2 mb 0.00 in0.0 mm 0.00 in/hr0.0 mm/hr 0.00 in0.0 mm
10:26 AM 55.1°F12.8°C 46.3°F7.9°C 72% 9.0 mph WSW14.5 kmh WSW 15.0 mph24.1 kmh 29.91 in1012.9 mb 0.00 in0.0 mm 0.00 in/hr0.0 mm/hr 0.00 in0.0 mm
10:27 AM 55.2°F12.9°C 46.3°F7.9°C 72% 9.0 mph SW14.5 kmh SW 15.0 mph24.1 kmh 29.91 in1012.9 mb 0.00 in0.0 mm 0.00 in/hr0.0 mm/hr 0.00 in0.0 mm
10:28 AM 55.3°F12.9°C 46.4°F8.0°C 72% 10.0 mph SW16.1 kmh SW 15.0 mph24.1 kmh 29.91 in1012.9 mb 0.00 in0.0 mm 0.00 in/hr0.0 mm/hr 0.00 in0.0 mm
10:29 AM 55.3°F12.9°C 46.1°F7.8°C 71% 10.0 mph SW16.1 kmh SW 15.0 mph24.1 kmh 29.91 in1012.9 mb 0.00 in0.0 mm 0.00 in/hr0.0 mm/hr 0.00 in0.0 mm
10:30 AM 55.3°F12.9°C 46.1°F7.8°C 71% 10.0 mph SW16.1 kmh SW 15.0 mph24.1 kmh 29.91 in1012.9 mb 0.00 in0.0 mm 0.00 in/hr0.0 mm/hr 0.00 in0.0 mm
10:31 AM 55.3°F12.9°C 46.1°F7.8°C 71% 9.0 mph SW14.5 kmh SW 15.0 mph24.1 kmh 29.91 in1012.9 mb 0.00 in0.0 mm 0.00 in/hr0.0 mm/hr 0.00 in0.0 mm
10:32 AM 55.3°F12.9°C 46.1°F7.8°C 71% 9.0 mph SW14.5 kmh SW 12.0 mph19.3 kmh 29.91 in1012.9 mb 0.00 in0.0 mm 0.00 in/hr0.0 mm/hr 0.00 in0.0 mm
10:33 AM 55.3°F12.9°C 46.1°F7.8°C 71% 7.0 mph SW11.3 kmh SW 12.0 mph19.3 kmh 29.91 in1012.9 mb 0.00 in0.0 mm 0.00 in/hr0.0 mm/hr 0.00 in0.0 mm
10:34 AM 55.3°F12.9°C 46.1°F7.8°C 71% 9.0 mph SW14.5 kmh SW 15.0 mph24.1 kmh 29.91 in1012.9 mb 0.00 in0.0 mm 0.00 in/hr0.0 mm/hr 0.00 in0.0 mm
10:35 AM 55.2°F12.9°C 46.0°F7.8°C 71% 10.0 mph SW16.1 kmh SW 15.0 mph24.1 kmh 29.91 in1012.9 mb 0.00 in0.0 mm 0.00 in/hr0.0 mm/hr 0.00 in0.0 mm
10:36 AM 55.2°F12.9°C 46.0°F7.8°C 71% 8.0 mph W12.9 kmh W 15.0 mph24.1 kmh 29.92 in1013.2 mb 0.00 in0.0 mm 0.00 in/hr0.0 mm/hr 0.00 in0.0 mm
10:37 AM 55.2°F12.9°C 45.6°F7.6°C 70% 13.0 mph SW20.9 kmh SW 15.0 mph24.1 kmh 29.91 in1012.9 mb 0.00 in0.0 mm 0.00 in/hr0.0 mm/hr 0.00 in0.0 mm
10:38 AM 55.2°F12.9°C 46.0°F7.8°C 71% 5.0 mph WSW8.0 kmh WSW 15.0 mph24.1 kmh 29.91 in1012.9 mb 0.00 in0.0 mm 0.00 in/hr0.0 mm/hr 0.00 in0.0 mm
10:39 AM 55.2°F12.9°C 46.0°F7.8°C 71% 8.0 mph SW12.9 kmh SW 15.0 mph24.1 kmh 29.91 in1012.9 mb 0.00 in0.0 mm 0.00 in/hr0.0 mm/hr 0.00 in0.0 mm
10:40 AM 55.2°F12.9°C 46.0°F7.8°C 71% 9.0 mph SW14.5 kmh SW 15.0 mph24.1 kmh 29.91 in1012.9 mb 0.00 in0.0 mm 0.00 in/hr0.0 mm/hr 0.00 in0.0 mm
10:41 AM 55.3°F12.9°C 46.4°F8.0°C 72% 7.0 mph SW11.3 kmh SW 15.0 mph24.1 kmh 29.91 in1012.9 mb 0.00 in0.0 mm 0.00 in/hr0.0 mm/hr 0.00 in0.0 mm
10:42 AM 55.4°F13.0°C 46.5°F8.1°C 72% 8.0 mph SW12.9 kmh SW 15.0 mph24.1 kmh 29.91 in1012.9 mb 0.00 in0.0 mm 0.00 in/hr0.0 mm/hr 0.00 in0.0 mm
10:43 AM 55.5°F13.1°C 46.6°F8.1°C 72% 12.0 mph WSW19.3 kmh WSW 15.0 mph24.1 kmh 29.91 in1012.9 mb 0.00 in0.0 mm 0.00 in/hr0.0 mm/hr 0.00 in0.0 mm
10:44 AM 55.7°F13.2°C 46.8°F8.2°C 72% 11.0 mph SW17.7 kmh SW 15.0 mph24.1 kmh 29.91 in1012.9 mb 0.00 in0.0 mm 0.00 in/hr0.0 mm/hr 0.00 in0.0 mm
10:45 AM 55.9°F13.3°C 46.7°F8.2°C 71% 5.0 mph SW8.0 kmh SW 15.0 mph24.1 kmh 29.91 in1012.9 mb 0.00 in0.0 mm 0.00 in/hr0.0 mm/hr 0.00 in0.0 mm
10:46 AM 56.0°F13.3°C 46.4°F8.0°C 70% 5.0 mph W8.0 kmh W 15.0 mph24.1 kmh 29.91 in1012.9 mb 0.00 in0.0 mm 0.00 in/hr0.0 mm/hr 0.00 in0.0 mm
10:47 AM 56.2°F13.4°C 46.9°F8.3°C 71% 6.0 mph WSW9.7 kmh WSW 15.0 mph24.1 kmh 29.91 in1012.9 mb 0.00 in0.0 mm 0.00 in/hr0.0 mm/hr 0.00 in0.0 mm
10:48 AM 56.3°F13.5°C 46.7°F8.2°C 70% 5.0 mph WSW8.0 kmh WSW 15.0 mph24.1 kmh 29.91 in1012.9 mb 0.00 in0.0 mm 0.00 in/hr0.0 mm/hr 0.00 in0.0 mm
10:49 AM 56.4°F13.6°C 46.4°F8.0°C 69% 7.0 mph SW11.3 kmh SW 15.0 mph24.1 kmh 29.91 in1012.9 mb 0.00 in0.0 mm 0.00 in/hr0.0 mm/hr 0.00 in0.0 mm
10:50 AM 56.6°F13.7°C 46.6°F8.1°C 69% 7.0 mph SW11.3 kmh SW 15.0 mph24.1 kmh 29.91 in1012.9 mb 0.00 in0.0 mm 0.00 in/hr0.0 mm/hr 0.00 in0.0 mm
10:51 AM 56.7°F13.7°C 46.7°F8.2°C 69% 14.0 mph SW22.5 kmh SW 15.0 mph24.1 kmh 29.91 in1012.9 mb 0.00 in0.0 mm 0.00 in/hr0.0 mm/hr 0.00 in0.0 mm
10:52 AM 56.8°F13.8°C 46.8°F8.2°C 69% 9.0 mph SW14.5 kmh SW 15.0 mph24.1 kmh 29.91 in1012.9 mb 0.00 in0.0 mm 0.00 in/hr0.0 mm/hr 0.00 in0.0 mm
10:53 AM 56.9°F13.8°C 46.5°F8.1°C 68% 5.0 mph WSW8.0 kmh WSW 15.0 mph24.1 kmh 29.91 in1012.9 mb 0.00 in0.0 mm 0.00 in/hr0.0 mm/hr 0.00 in0.0 mm
10:54 AM 57.1°F13.9°C 47.0°F8.3°C 69% 11.0 mph SW17.7 kmh SW 15.0 mph24.1 kmh 29.91 in1012.9 mb 0.00 in0.0 mm 0.00 in/hr0.0 mm/hr 0.00 in0.0 mm
10:55 AM 57.2°F14.0°C 46.8°F8.2°C 68% 8.0 mph SW12.9 kmh SW 15.0 mph24.1 kmh 29.91 in1012.9 mb 0.00 in0.0 mm 0.00 in/hr0.0 mm/hr 0.00 in0.0 mm
10:56 AM 57.3°F14.1°C 46.8°F8.2°C 68% 7.0 mph W11.3 kmh W 15.0 mph24.1 kmh 29.91 in1012.9 mb 0.00 in0.0 mm 0.00 in/hr0.0 mm/hr 0.00 in0.0 mm
10:57 AM 57.4°F14.1°C 46.9°F8.3°C 68% 7.0 mph W11.3 kmh W 15.0 mph24.1 kmh 29.91 in1012.9 mb 0.00 in0.0 mm 0.00 in/hr0.0 mm/hr 0.00 in0.0 mm
10:58 AM 57.5°F14.2°C 46.6°F8.1°C 67% 5.0 mph WSW8.0 kmh WSW 15.0 mph24.1 kmh 29.91 in1012.9 mb 0.00 in0.0 mm 0.00 in/hr0.0 mm/hr 0.00 in0.0 mm
10:59 AM 57.6°F14.2°C 46.7°F8.2°C 67% 7.0 mph SW11.3 kmh SW 15.0 mph24.1 kmh 29.91 in1012.9 mb 0.00 in0.0 mm 0.00 in/hr0.0 mm/hr 0.00 in0.0 mm
11:00 AM 57.7°F14.3°C 46.8°F8.2°C 67% 10.0 mph WSW16.1 kmh WSW 15.0 mph24.1 kmh 29.91 in1012.9 mb 0.00 in0.0 mm 0.00 in/hr0.0 mm/hr 0.00 in0.0 mm
11:01 AM 57.7°F14.3°C 46.8°F8.2°C 67% 11.0 mph W17.7 kmh W 15.0 mph24.1 kmh 29.91 in1012.9 mb 0.00 in0.0 mm 0.00 in/hr0.0 mm/hr 0.00 in0.0 mm
11:02 AM 57.8°F14.3°C 46.9°F8.3°C 67% 6.0 mph SW9.7 kmh SW 12.0 mph19.3 kmh 29.91 in1012.9 mb 0.00 in0.0 mm 0.00 in/hr0.0 mm/hr 0.00 in0.0 mm
11:03 AM 57.9°F14.4°C 47.0°F8.3°C 67% 8.0 mph WSW12.9 kmh WSW 12.0 mph19.3 kmh 29.90 in1012.5 mb 0.00 in0.0 mm 0.00 in/hr0.0 mm/hr 0.00 in0.0 mm
11:04 AM 58.0°F14.4°C 46.7°F8.2°C 66% 5.0 mph W8.0 kmh W 12.0 mph19.3 kmh 29.90 in1012.5 mb 0.00 in0.0 mm 0.00 in/hr0.0 mm/hr 0.00 in0.0 mm
11:05 AM 58.0°F14.4°C 46.7°F8.2°C 66% 7.0 mph W11.3 kmh W 12.0 mph19.3 kmh 29.91 in1012.9 mb 0.00 in0.0 mm 0.00 in/hr0.0 mm/hr 0.00 in0.0 mm
11:06 AM 58.1°F14.5°C 46.8°F8.2°C 66% 9.0 mph SW14.5 kmh SW 12.0 mph19.3 kmh 29.91 in1012.9 mb 0.00 in0.0 mm 0.00 in/hr0.0 mm/hr 0.00 in0.0 mm
11:07 AM 58.2°F14.6°C 47.3°F8.5°C 67% 6.0 mph SW9.7 kmh SW 12.0 mph19.3 kmh 29.90 in1012.5 mb 0.00 in0.0 mm 0.00 in/hr0.0 mm/hr 0.00 in0.0 mm
11:08 AM 58.2°F14.6°C 47.3°F8.5°C 67% 8.0 mph WSW12.9 kmh WSW 12.0 mph19.3 kmh 29.90 in1012.5 mb 0.00 in0.0 mm 0.00 in/hr0.0 mm/hr 0.00 in0.0 mm
11:09 AM 58.4°F14.7°C 47.5°F8.6°C 67% 5.0 mph W8.0 kmh W 12.0 mph19.3 kmh 29.90 in1012.5 mb 0.00 in0.0 mm 0.00 in/hr0.0 mm/hr 0.00 in0.0 mm
11:10 AM 58.4°F14.7°C 47.1°F8.4°C 66% 7.0 mph SW11.3 kmh SW 12.0 mph19.3 kmh 29.90 in1012.5 mb 0.00 in0.0 mm 0.00 in/hr0.0 mm/hr 0.00 in0.0 mm
11:11 AM 58.5°F14.7°C 47.2°F8.4°C 66% 4.0 mph WSW6.4 kmh WSW 12.0 mph19.3 kmh 29.90 in1012.5 mb 0.00 in0.0 mm 0.00 in/hr0.0 mm/hr 0.00 in0.0 mm
11:12 AM 58.6°F14.8°C 47.3°F8.5°C 66% 5.0 mph SSW8.0 kmh SSW 12.0 mph19.3 kmh 29.90 in1012.5 mb 0.00 in0.0 mm 0.00 in/hr0.0 mm/hr 0.00 in0.0 mm
11:13 AM 58.7°F14.8°C 47.4°F8.6°C 66% 9.0 mph WSW14.5 kmh WSW 14.0 mph22.5 kmh 29.90 in1012.5 mb 0.00 in0.0 mm 0.00 in/hr0.0 mm/hr 0.00 in0.0 mm
11:14 AM 58.8°F14.9°C 47.5°F8.6°C 66% 7.0 mph SW11.3 kmh SW 14.0 mph22.5 kmh 29.90 in1012.5 mb 0.00 in0.0 mm 0.00 in/hr0.0 mm/hr 0.00 in0.0 mm
11:15 AM 58.9°F14.9°C 47.6°F8.7°C 66% 7.0 mph SW11.3 kmh SW 14.0 mph22.5 kmh 29.90 in1012.5 mb 0.00 in0.0 mm 0.00 in/hr0.0 mm/hr 0.00 in0.0 mm
11:16 AM 59.0°F15.0°C 47.3°F8.5°C 65% 8.0 mph SW12.9 kmh SW 14.0 mph22.5 kmh 29.90 in1012.5 mb 0.00 in0.0 mm 0.00 in/hr0.0 mm/hr 0.00 in0.0 mm
11:17 AM 59.1°F15.1°C 47.4°F8.6°C 65% 10.0 mph SW16.1 kmh SW 14.0 mph22.5 kmh 29.90 in1012.5 mb 0.00 in0.0 mm 0.00 in/hr0.0 mm/hr 0.00 in0.0 mm
11:18 AM 59.2°F15.1°C 47.5°F8.6°C 65% 8.0 mph WSW12.9 kmh WSW 14.0 mph22.5 kmh 29.90 in1012.5 mb 0.00 in0.0 mm 0.00 in/hr0.0 mm/hr 0.00 in0.0 mm
11:19 AM 59.3°F15.2°C 47.6°F8.7°C 65% 11.0 mph SW17.7 kmh SW 14.0 mph22.5 kmh 29.90 in1012.5 mb 0.00 in0.0 mm 0.00 in/hr0.0 mm/hr 0.00 in0.0 mm
11:20 AM 59.3°F15.2°C 47.6°F8.7°C 65% 9.0 mph SW14.5 kmh SW 14.0 mph22.5 kmh 29.90 in1012.5 mb 0.00 in0.0 mm 0.00 in/hr0.0 mm/hr 0.00 in0.0 mm
11:21 AM 59.4°F15.2°C 47.7°F8.7°C 65% 11.0 mph WSW17.7 kmh WSW 14.0 mph22.5 kmh 29.89 in1012.2 mb 0.00 in0.0 mm 0.00 in/hr0.0 mm/hr 0.00 in0.0 mm
11:22 AM 59.5°F15.3°C 47.7°F8.7°C 65% 8.0 mph WSW12.9 kmh WSW 16.0 mph25.7 kmh 29.89 in1012.2 mb 0.00 in0.0 mm 0.00 in/hr0.0 mm/hr 0.00 in0.0 mm
11:23 AM 59.5°F15.3°C 47.3°F8.5°C 64% 6.0 mph SW9.7 kmh SW 16.0 mph25.7 kmh 29.89 in1012.2 mb 0.00 in0.0 mm 0.00 in/hr0.0 mm/hr 0.00 in0.0 mm
11:24 AM 59.6°F15.3°C 47.4°F8.6°C 64% 13.0 mph SW20.9 kmh SW 16.0 mph25.7 kmh 29.89 in1012.2 mb 0.00 in0.0 mm 0.00 in/hr0.0 mm/hr 0.00 in0.0 mm
11:25 AM 59.6°F15.3°C 47.4°F8.6°C 64% 5.0 mph WSW8.0 kmh WSW 16.0 mph25.7 kmh 29.89 in1012.2 mb 0.00 in0.0 mm 0.00 in/hr0.0 mm/hr 0.00 in0.0 mm
11:26 AM 59.6°F15.3°C 47.4°F8.6°C 64% 4.0 mph WSW6.4 kmh WSW 16.0 mph25.7 kmh 29.89 in1012.2 mb 0.00 in0.0 mm 0.00 in/hr0.0 mm/hr 0.00 in0.0 mm
11:27 AM 59.7°F15.4°C 47.1°F8.4°C 63% 8.0 mph SW12.9 kmh SW 16.0 mph25.7 kmh 29.89 in1012.2 mb 0.00 in0.0 mm 0.00 in/hr0.0 mm/hr 0.00 in0.0 mm
11:28 AM 59.7°F15.4°C 47.5°F8.6°C 64% 8.0 mph SW12.9 kmh SW 16.0 mph25.7 kmh 29.89 in1012.2 mb 0.00 in0.0 mm 0.00 in/hr0.0 mm/hr 0.00 in0.0 mm
11:29 AM 59.7°F15.4°C 47.5°F8.6°C 64% 6.0 mph WSW9.7 kmh WSW 16.0 mph25.7 kmh 29.89 in1012.2 mb 0.00 in0.0 mm 0.00 in/hr0.0 mm/hr 0.00 in0.0 mm
11:30 AM 59.8°F15.4°C 47.2°F8.4°C 63% 8.0 mph WSW12.9 kmh WSW 16.0 mph25.7 kmh 29.89 in1012.2 mb 0.00 in0.0 mm 0.00 in/hr0.0 mm/hr 0.00 in0.0 mm
11:31 AM 59.8°F15.4°C 47.6°F8.7°C 64% 8.0 mph WSW12.9 kmh WSW 16.0 mph25.7 kmh 29.89 in1012.2 mb 0.00 in0.0 mm 0.00 in/hr0.0 mm/hr 0.00 in0.0 mm
11:32 AM 59.9°F15.5°C 47.3°F8.5°C 63% 7.0 mph SW11.3 kmh SW 14.0 mph22.5 kmh 29.89 in1012.2 mb 0.00 in0.0 mm 0.00 in/hr0.0 mm/hr 0.00 in0.0 mm
11:33 AM 59.9°F15.5°C 47.3°F8.5°C 63% 11.0 mph SW17.7 kmh SW 14.0 mph22.5 kmh 29.89 in1012.2 mb 0.00 in0.0 mm 0.00 in/hr0.0 mm/hr 0.00 in0.0 mm
11:34 AM 60.0°F15.6°C 47.8°F8.8°C 64% 7.0 mph SW11.3 kmh SW 14.0 mph22.5 kmh 29.89 in1012.2 mb 0.00 in0.0 mm 0.00 in/hr0.0 mm/hr 0.00 in0.0 mm
11:35 AM 60.0°F15.6°C 47.4°F8.6°C 63% 7.0 mph SW11.3 kmh SW 14.0 mph22.5 kmh 29.89 in1012.2 mb 0.00 in0.0 mm 0.00 in/hr0.0 mm/hr 0.00 in0.0 mm
11:36 AM 60.1°F15.6°C 47.5°F8.6°C 63% 5.0 mph SW8.0 kmh SW 14.0 mph22.5 kmh 29.89 in1012.2 mb 0.00 in0.0 mm 0.00 in/hr0.0 mm/hr 0.00 in0.0 mm
11:37 AM 60.2°F15.7°C 47.6°F8.7°C 63% 9.0 mph SW14.5 kmh SW 14.0 mph22.5 kmh 29.88 in1011.9 mb 0.00 in0.0 mm 0.00 in/hr0.0 mm/hr 0.00 in0.0 mm
11:38 AM 60.2°F15.7°C 47.6°F8.7°C 63% 9.0 mph SW14.5 kmh SW 14.0 mph22.5 kmh 29.89 in1012.2 mb 0.00 in0.0 mm 0.00 in/hr0.0 mm/hr 0.00 in0.0 mm
11:39 AM 60.3°F15.7°C 47.2°F8.4°C 62% 11.0 mph WSW17.7 kmh WSW 14.0 mph22.5 kmh 29.89 in1012.2 mb 0.00 in0.0 mm 0.00 in/hr0.0 mm/hr 0.00 in0.0 mm
11:40 AM 60.3°F15.7°C 47.7°F8.7°C 63% 11.0 mph SW17.7 kmh SW 14.0 mph22.5 kmh 29.89 in1012.2 mb 0.00 in0.0 mm 0.00 in/hr0.0 mm/hr 0.00 in0.0 mm
11:41 AM 60.4°F15.8°C 47.8°F8.8°C 63% 10.0 mph WSW16.1 kmh WSW 14.0 mph22.5 kmh 29.89 in1012.2 mb 0.00 in0.0 mm 0.00 in/hr0.0 mm/hr 0.00 in0.0 mm
11:42 AM 60.4°F15.8°C 47.3°F8.5°C 62% 12.0 mph SW19.3 kmh SW 14.0 mph22.5 kmh 29.89 in1012.2 mb 0.00 in0.0 mm 0.00 in/hr0.0 mm/hr 0.00 in0.0 mm
11:43 AM 60.5°F15.8°C 47.9°F8.8°C 63% 10.0 mph WSW16.1 kmh WSW 14.0 mph22.5 kmh 29.89 in1012.2 mb 0.00 in0.0 mm 0.00 in/hr0.0 mm/hr 0.00 in0.0 mm
11:44 AM 60.6°F15.9°C 48.0°F8.9°C 63% 7.0 mph SW11.3 kmh SW 14.0 mph22.5 kmh 29.89 in1012.2 mb 0.00 in0.0 mm 0.00 in/hr0.0 mm/hr 0.00 in0.0 mm
11:45 AM 60.7°F15.9°C 47.6°F8.7°C 62% 10.0 mph SW16.1 kmh SW 14.0 mph22.5 kmh 29.89 in1012.2 mb 0.00 in0.0 mm 0.00 in/hr0.0 mm/hr 0.00 in0.0 mm
11:46 AM 60.8°F16.0°C 47.7°F8.7°C 62% 4.0 mph WSW6.4 kmh WSW 14.0 mph22.5 kmh 29.89 in1012.2 mb 0.00 in0.0 mm 0.00 in/hr0.0 mm/hr 0.00 in0.0 mm
11:47 AM 60.8°F16.0°C 47.3°F8.5°C 61% 6.0 mph WSW9.7 kmh WSW 14.0 mph22.5 kmh 29.89 in1012.2 mb 0.00 in0.0 mm 0.00 in/hr0.0 mm/hr 0.00 in0.0 mm
11:48 AM 60.9°F16.1°C 47.4°F8.6°C 61% 8.0 mph SW12.9 kmh SW 14.0 mph22.5 kmh 29.89 in1012.2 mb 0.00 in0.0 mm 0.00 in/hr0.0 mm/hr 0.00 in0.0 mm
11:49 AM 60.9°F16.1°C 47.4°F8.6°C 61% 2.0 mph W3.2 kmh W 14.0 mph22.5 kmh 29.89 in1012.2 mb 0.00 in0.0 mm 0.00 in/hr0.0 mm/hr 0.00 in0.0 mm
11:50 AM 60.9°F16.1°C 47.4°F8.6°C 61% 6.0 mph WSW9.7 kmh WSW 14.0 mph22.5 kmh 29.89 in1012.2 mb 0.00 in0.0 mm 0.00 in/hr0.0 mm/hr 0.00 in0.0 mm
11:51 AM 60.9°F16.1°C 46.9°F8.3°C 60% 5.0 mph WSW8.0 kmh WSW 14.0 mph22.5 kmh 29.88 in1011.9 mb 0.00 in0.0 mm 0.00 in/hr0.0 mm/hr 0.00 in0.0 mm
11:52 AM 61.0°F16.1°C 47.0°F8.3°C 60% 7.0 mph NW11.3 kmh NW 14.0 mph22.5 kmh 29.89 in1012.2 mb 0.00 in0.0 mm 0.00 in/hr0.0 mm/hr 0.00 in0.0 mm
11:53 AM 61.0°F16.1°C 47.0°F8.3°C 60% 5.0 mph W8.0 kmh W 14.0 mph22.5 kmh 29.89 in1012.2 mb 0.00 in0.0 mm 0.00 in/hr0.0 mm/hr 0.00 in0.0 mm
11:54 AM 61.0°F16.1°C 47.5°F8.6°C 61% 7.0 mph WSW11.3 kmh WSW 14.0 mph22.5 kmh 29.89 in1012.2 mb 0.00 in0.0 mm 0.00 in/hr0.0 mm/hr 0.00 in0.0 mm
11:55 AM 61.1°F16.2°C 47.6°F8.7°C 61% 8.0 mph W12.9 kmh W 14.0 mph22.5 kmh 29.89 in1012.2 mb 0.00 in0.0 mm 0.00 in/hr0.0 mm/hr 0.00 in0.0 mm
11:56 AM 61.1°F16.2°C 47.6°F8.7°C 61% 4.0 mph SW6.4 kmh SW 14.0 mph22.5 kmh 29.89 in1012.2 mb 0.00 in0.0 mm 0.00 in/hr0.0 mm/hr 0.00 in0.0 mm
11:57 AM 61.2°F16.2°C 47.7°F8.7°C 61% 6.0 mph SW9.7 kmh SW 14.0 mph22.5 kmh 29.88 in1011.9 mb 0.00 in0.0 mm 0.00 in/hr0.0 mm/hr 0.00 in0.0 mm
11:58 AM 61.2°F16.2°C 47.2°F8.4°C 60% 7.0 mph SW11.3 kmh SW 14.0 mph22.5 kmh 29.89 in1012.2 mb 0.00 in0.0 mm 0.00 in/hr0.0 mm/hr 0.00 in0.0 mm
11:59 AM 61.3°F16.3°C 48.2°F9.0°C 62% 7.0 mph SW11.3 kmh SW 14.0 mph22.5 kmh 29.89 in1012.2 mb 0.00 in0.0 mm 0.00 in/hr0.0 mm/hr 0.00 in0.0 mm
12:00 PM 61.3°F16.3°C 47.3°F8.5°C 60% 4.0 mph W6.4 kmh W 14.0 mph22.5 kmh 29.88 in1011.9 mb 0.00 in0.0 mm 0.00 in/hr0.0 mm/hr 0.00 in0.0 mm
12:01 PM 61.4°F16.3°C 47.9°F8.8°C 61% 10.0 mph SW16.1 kmh SW 14.0 mph22.5 kmh 29.89 in1012.2 mb 0.00 in0.0 mm 0.00 in/hr0.0 mm/hr 0.00 in0.0 mm
12:02 PM 61.4°F16.3°C 47.4°F8.6°C 60% 6.0 mph SW9.7 kmh SW 9.0 mph14.5 kmh 29.89 in1012.2 mb 0.00 in0.0 mm 0.00 in/hr0.0 mm/hr 0.00 in0.0 mm
12:03 PM 61.4°F16.3°C 47.9°F8.8°C 61% 11.0 mph SW17.7 kmh SW 12.0 mph19.3 kmh 29.89 in1012.2 mb 0.00 in0.0 mm 0.00 in/hr0.0 mm/hr 0.00 in0.0 mm
12:04 PM 61.4°F16.3°C 47.4°F8.6°C 60% 6.0 mph SW9.7 kmh SW 12.0 mph19.3 kmh 29.89 in1012.2 mb 0.00 in0.0 mm 0.00 in/hr0.0 mm/hr 0.00 in0.0 mm
12:05 PM 61.5°F16.4°C 47.5°F8.6°C 60% 7.0 mph SW11.3 kmh SW 12.0 mph19.3 kmh 29.89 in1012.2 mb 0.00 in0.0 mm 0.00 in/hr0.0 mm/hr 0.00 in0.0 mm
12:06 PM 61.5°F16.4°C 47.9°F8.8°C 61% 9.0 mph SW14.5 kmh SW 12.0 mph19.3 kmh 29.89 in1012.2 mb 0.00 in0.0 mm 0.00 in/hr0.0 mm/hr 0.00 in0.0 mm
12:07 PM 61.6°F16.4°C 48.0°F8.9°C 61% 7.0 mph SW11.3 kmh SW 12.0 mph19.3 kmh 29.89 in1012.2 mb 0.00 in0.0 mm 0.00 in/hr0.0 mm/hr 0.00 in0.0 mm
12:08 PM 61.7°F16.5°C 48.6°F9.2°C 62% 5.0 mph WSW8.0 kmh WSW 12.0 mph19.3 kmh 29.89 in1012.2 mb 0.00 in0.0 mm 0.00 in/hr0.0 mm/hr 0.00 in0.0 mm
12:09 PM 61.7°F16.5°C 48.1°F8.9°C 61% 6.0 mph WSW9.7 kmh WSW 12.0 mph19.3 kmh 29.88 in1011.9 mb 0.00 in0.0 mm 0.00 in/hr0.0 mm/hr 0.00 in0.0 mm
12:10 PM 61.8°F16.6°C 47.3°F8.5°C 59% 6.0 mph WSW9.7 kmh WSW 12.0 mph19.3 kmh 29.88 in1011.9 mb 0.00 in0.0 mm 0.00 in/hr0.0 mm/hr 0.00 in0.0 mm
12:11 PM 61.9°F16.6°C 47.9°F8.8°C 60% 3.0 mph W4.8 kmh W 12.0 mph19.3 kmh 29.88 in1011.9 mb 0.00 in0.0 mm 0.00 in/hr0.0 mm/hr 0.00 in0.0 mm
12:12 PM 62.0°F16.7°C 48.0°F8.9°C 60% 7.0 mph SW11.3 kmh SW 12.0 mph19.3 kmh 29.88 in1011.9 mb 0.00 in0.0 mm 0.00 in/hr0.0 mm/hr 0.00 in0.0 mm
12:13 PM 62.1°F16.7°C 48.1°F8.9°C 60% 9.0 mph SW14.5 kmh SW 12.0 mph19.3 kmh 29.88 in1011.9 mb 0.00 in0.0 mm 0.00 in/hr0.0 mm/hr 0.00 in0.0 mm
12:14 PM 62.1°F16.7°C 48.1°F8.9°C 60% 4.0 mph SW6.4 kmh SW 12.0 mph19.3 kmh 29.88 in1011.9 mb 0.00 in0.0 mm 0.00 in/hr0.0 mm/hr 0.00 in0.0 mm
12:15 PM 62.2°F16.8°C 48.2°F9.0°C 60% 5.0 mph SW8.0 kmh SW 12.0 mph19.3 kmh 29.88 in1011.9 mb 0.00 in0.0 mm 0.00 in/hr0.0 mm/hr 0.00 in0.0 mm
12:16 PM 62.3°F16.8°C 47.8°F8.8°C 59% 5.0 mph SW8.0 kmh SW 12.0 mph19.3 kmh 29.88 in1011.9 mb 0.00 in0.0 mm 0.00 in/hr0.0 mm/hr 0.00 in0.0 mm
12:17 PM 62.4°F16.9°C 47.9°F8.8°C 59% 6.0 mph SW9.7 kmh SW 12.0 mph19.3 kmh 29.88 in1011.9 mb 0.00 in0.0 mm 0.00 in/hr0.0 mm/hr 0.00 in0.0 mm
12:18 PM 62.4°F16.9°C 47.9°F8.8°C 59% 4.0 mph SW6.4 kmh SW 12.0 mph19.3 kmh 29.88 in1011.9 mb 0.00 in0.0 mm 0.00 in/hr0.0 mm/hr 0.00 in0.0 mm
12:19 PM 62.5°F16.9°C 48.0°F8.9°C 59% 5.0 mph SW8.0 kmh SW 12.0 mph19.3 kmh 29.88 in1011.9 mb 0.00 in0.0 mm 0.00 in/hr0.0 mm/hr 0.00 in0.0 mm
12:20 PM 62.5°F16.9°C 48.4°F9.1°C 60% 8.0 mph SW12.9 kmh SW 13.0 mph20.9 kmh 29.88 in1011.9 mb 0.00 in0.0 mm 0.00 in/hr0.0 mm/hr 0.00 in0.0 mm
12:21 PM 62.6°F17.0°C 48.5°F9.2°C 60% 6.0 mph SW9.7 kmh SW 13.0 mph20.9 kmh 29.88 in1011.9 mb 0.00 in0.0 mm 0.00 in/hr0.0 mm/hr 0.00 in0.0 mm
12:22 PM 62.7°F17.1°C 48.6°F9.2°C 60% 5.0 mph N8.0 kmh N 13.0 mph20.9 kmh 29.88 in1011.9 mb 0.00 in0.0 mm 0.00 in/hr0.0 mm/hr 0.00 in0.0 mm
12:23 PM 62.8°F17.1°C 47.8°F8.8°C 58% 8.0 mph SW12.9 kmh SW 13.0 mph20.9 kmh 29.88 in1011.9 mb 0.00 in0.0 mm 0.00 in/hr0.0 mm/hr 0.00 in0.0 mm
12:24 PM 62.8°F17.1°C 48.3°F9.1°C 59% 8.0 mph SW12.9 kmh SW 13.0 mph20.9 kmh 29.88 in1011.9 mb 0.00 in0.0 mm 0.00 in/hr0.0 mm/hr 0.00 in0.0 mm
12:25 PM 62.9°F17.2°C 48.4°F9.1°C 59% 9.0 mph S14.5 kmh S 15.0 mph24.1 kmh 29.88 in1011.9 mb 0.00 in0.0 mm 0.00 in/hr0.0 mm/hr 0.00 in0.0 mm
12:26 PM 62.9°F17.2°C 47.9°F8.8°C 58% 10.0 mph SW16.1 kmh SW 15.0 mph24.1 kmh 29.88 in1011.9 mb 0.00 in0.0 mm 0.00 in/hr0.0 mm/hr 0.00 in0.0 mm
12:27 PM 63.0°F17.2°C 48.0°F8.9°C 58% 4.0 mph SW6.4 kmh SW 15.0 mph24.1 kmh 29.88 in1011.9 mb 0.00 in0.0 mm 0.00 in/hr0.0 mm/hr 0.00 in0.0 mm
12:28 PM 63.1°F17.3°C 48.6°F9.2°C 59% 3.0 mph W4.8 kmh W 15.0 mph24.1 kmh 29.88 in1011.9 mb 0.00 in0.0 mm 0.00 in/hr0.0 mm/hr 0.00 in0.0 mm
12:29 PM 63.2°F17.3°C 48.2°F9.0°C 58% 5.0 mph W8.0 kmh W 15.0 mph24.1 kmh 29.88 in1011.9 mb 0.00 in0.0 mm 0.00 in/hr0.0 mm/hr 0.00 in0.0 mm
12:30 PM 63.2°F17.3°C 47.7°F8.7°C 57% 6.0 mph SW9.7 kmh SW 15.0 mph24.1 kmh 29.88 in1011.9 mb 0.00 in0.0 mm 0.00 in/hr0.0 mm/hr 0.00 in0.0 mm
12:31 PM 63.3°F17.4°C 48.3°F9.1°C 58% 3.0 mph SW4.8 kmh SW 15.0 mph24.1 kmh 29.88 in1011.9 mb 0.00 in0.0 mm 0.00 in/hr0.0 mm/hr 0.00 in0.0 mm
12:32 PM 63.3°F17.4°C 48.3°F9.1°C 58% 3.0 mph SW4.8 kmh SW 7.0 mph11.3 kmh 29.87 in1011.5 mb 0.00 in0.0 mm 0.00 in/hr0.0 mm/hr 0.00 in0.0 mm
12:33 PM 63.4°F17.4°C 48.4°F9.1°C 58% 7.0 mph SW11.3 kmh SW 12.0 mph19.3 kmh 29.87 in1011.5 mb 0.00 in0.0 mm 0.00 in/hr0.0 mm/hr 0.00 in0.0 mm
12:34 PM 63.5°F17.5°C 48.5°F9.2°C 58% 9.0 mph SW14.5 kmh SW 13.0 mph20.9 kmh 29.87 in1011.5 mb 0.00 in0.0 mm 0.00 in/hr0.0 mm/hr 0.00 in0.0 mm
12:35 PM 63.6°F17.6°C 48.1°F8.9°C 57% 7.0 mph SSW11.3 kmh SSW 13.0 mph20.9 kmh 29.87 in1011.5 mb 0.00 in0.0 mm 0.00 in/hr0.0 mm/hr 0.00 in0.0 mm
12:51 PM 63.7°F17.6°C 48.2°F9.0°C 57% 7.0 mph SW11.3 kmh SW 13.0 mph20.9 kmh 29.87 in1011.5 mb 0.00 in0.0 mm 0.00 in/hr0.0 mm/hr 0.00 in0.0 mm
12:52 PM 63.7°F17.6°C 48.2°F9.0°C 57% 7.0 mph SW11.3 kmh SW 13.0 mph20.9 kmh 29.87 in1011.5 mb 0.00 in0.0 mm 0.00 in/hr0.0 mm/hr 0.00 in0.0 mm
12:53 PM 63.7°F17.6°C 48.2°F9.0°C 57% 7.0 mph SW11.3 kmh SW 13.0 mph20.9 kmh 29.87 in1011.5 mb 0.00 in0.0 mm 0.00 in/hr0.0 mm/hr 0.00 in0.0 mm
12:54 PM 63.7°F17.6°C 48.2°F9.0°C 57% 7.0 mph SW11.3 kmh SW 13.0 mph20.9 kmh 29.87 in1011.5 mb 0.00 in0.0 mm 0.00 in/hr0.0 mm/hr 0.00 in0.0 mm
12:55 PM 63.7°F17.6°C 48.2°F9.0°C 57% 7.0 mph SW11.3 kmh SW 13.0 mph20.9 kmh 29.87 in1011.5 mb 0.00 in0.0 mm 0.00 in/hr0.0 mm/hr 0.00 in0.0 mm
12:56 PM 63.7°F17.6°C 48.2°F9.0°C 57% 7.0 mph SW11.3 kmh SW 13.0 mph20.9 kmh 29.87 in1011.5 mb 0.00 in0.0 mm 0.00 in/hr0.0 mm/hr 0.00 in0.0 mm
12:57 PM 63.7°F17.6°C 48.2°F9.0°C 57% 7.0 mph SW11.3 kmh SW 13.0 mph20.9 kmh 29.87 in1011.5 mb 0.00 in0.0 mm 0.00 in/hr0.0 mm/hr 0.00 in0.0 mm
12:58 PM 63.7°F17.6°C 48.2°F9.0°C 57% 7.0 mph SW11.3 kmh SW 13.0 mph20.9 kmh 29.87 in1011.5 mb 0.00 in0.0 mm 0.00 in/hr0.0 mm/hr 0.00 in0.0 mm
12:59 PM 63.7°F17.6°C 48.2°F9.0°C 57% 7.0 mph SW11.3 kmh SW 13.0 mph20.9 kmh 29.87 in1011.5 mb 0.00 in0.0 mm 0.00 in/hr0.0 mm/hr 0.00 in0.0 mm
01:00 PM 63.7°F17.6°C 48.2°F9.0°C 57% 7.0 mph SW11.3 kmh SW 13.0 mph20.9 kmh 29.87 in1011.5 mb 0.00 in0.0 mm 0.00 in/hr0.0 mm/hr 0.00 in0.0 mm
01:01 PM 63.7°F17.6°C 48.2°F9.0°C 57% 7.0 mph SW11.3 kmh SW 13.0 mph20.9 kmh 29.87 in1011.5 mb 0.00 in0.0 mm 0.00 in/hr0.0 mm/hr 0.00 in0.0 mm
01:02 PM 63.7°F17.6°C 48.2°F9.0°C 57% 7.0 mph SW11.3 kmh SW 13.0 mph20.9 kmh 29.87 in1011.5 mb 0.00 in0.0 mm 0.00 in/hr0.0 mm/hr 0.00 in0.0 mm
01:03 PM 63.7°F17.6°C 48.2°F9.0°C 57% 7.0 mph SW11.3 kmh SW 13.0 mph20.9 kmh 29.87 in1011.5 mb 0.00 in0.0 mm 0.00 in/hr0.0 mm/hr 0.00 in0.0 mm
01:04 PM 63.7°F17.6°C 48.2°F9.0°C 57% 7.0 mph SW11.3 kmh SW 13.0 mph20.9 kmh 29.87 in1011.5 mb 0.00 in0.0 mm 0.00 in/hr0.0 mm/hr 0.00 in0.0 mm
01:05 PM 63.7°F17.6°C 48.2°F9.0°C 57% 7.0 mph SW11.3 kmh SW 13.0 mph20.9 kmh 29.87 in1011.5 mb 0.00 in0.0 mm 0.00 in/hr0.0 mm/hr 0.00 in0.0 mm
01:06 PM 63.7°F17.6°C 48.2°F9.0°C 57% 7.0 mph SW11.3 kmh SW 13.0 mph20.9 kmh 29.87 in1011.5 mb 0.00 in0.0 mm 0.00 in/hr0.0 mm/hr 0.00 in0.0 mm
01:07 PM 63.7°F17.6°C 48.2°F9.0°C 57% 7.0 mph SW11.3 kmh SW 13.0 mph20.9 kmh 29.87 in1011.5 mb 0.00 in0.0 mm 0.00 in/hr0.0 mm/hr 0.00 in0.0 mm
01:08 PM 63.7°F17.6°C 48.2°F9.0°C 57% 7.0 mph SW11.3 kmh SW 13.0 mph20.9 kmh 29.87 in1011.5 mb 0.00 in0.0 mm 0.00 in/hr0.0 mm/hr 0.00 in0.0 mm
01:09 PM 63.7°F17.6°C 48.2°F9.0°C 57% 7.0 mph SW11.3 kmh SW 13.0 mph20.9 kmh 29.87 in1011.5 mb 0.00 in0.0 mm 0.00 in/hr0.0 mm/hr 0.00 in0.0 mm
01:10 PM 63.7°F17.6°C 48.2°F9.0°C 57% 7.0 mph SW11.3 kmh SW 13.0 mph20.9 kmh 29.87 in1011.5 mb 0.00 in0.0 mm 0.00 in/hr0.0 mm/hr 0.00 in0.0 mm
01:11 PM 63.7°F17.6°C 48.2°F9.0°C 57% 7.0 mph SW11.3 kmh SW 13.0 mph20.9 kmh 29.87 in1011.5 mb 0.00 in0.0 mm 0.00 in/hr0.0 mm/hr 0.00 in0.0 mm
01:12 PM 63.7°F17.6°C 48.2°F9.0°C 57% 7.0 mph SW11.3 kmh SW 13.0 mph20.9 kmh 29.87 in1011.5 mb 0.00 in0.0 mm 0.00 in/hr0.0 mm/hr 0.00 in0.0 mm
01:13 PM 63.7°F17.6°C 48.2°F9.0°C 57% 7.0 mph SW11.3 kmh SW 13.0 mph20.9 kmh 29.87 in1011.5 mb 0.00 in0.0 mm 0.00 in/hr0.0 mm/hr 0.00 in0.0 mm
01:14 PM 63.7°F17.6°C 48.2°F9.0°C 57% 7.0 mph SW11.3 kmh SW 13.0 mph20.9 kmh 29.87 in1011.5 mb 0.00 in0.0 mm 0.00 in/hr0.0 mm/hr 0.00 in0.0 mm
01:15 PM 63.7°F17.6°C 48.2°F9.0°C 57% 7.0 mph SW11.3 kmh SW 13.0 mph20.9 kmh 29.87 in1011.5 mb 0.00 in0.0 mm 0.00 in/hr0.0 mm/hr 0.00 in0.0 mm
01:16 PM 63.7°F17.6°C 48.2°F9.0°C 57% 7.0 mph SW11.3 kmh SW 13.0 mph20.9 kmh 29.87 in1011.5 mb 0.00 in0.0 mm 0.00 in/hr0.0 mm/hr 0.00 in0.0 mm
01:17 PM 63.7°F17.6°C 48.2°F9.0°C 57% 7.0 mph SW11.3 kmh SW 13.0 mph20.9 kmh 29.87 in1011.5 mb 0.00 in0.0 mm 0.00 in/hr0.0 mm/hr 0.00 in0.0 mm
01:18 PM 63.7°F17.6°C 48.2°F9.0°C 57% 7.0 mph SW11.3 kmh SW 13.0 mph20.9 kmh 29.87 in1011.5 mb 0.00 in0.0 mm 0.00 in/hr0.0 mm/hr 0.00 in0.0 mm
01:19 PM 63.7°F17.6°C 48.2°F9.0°C 57% 7.0 mph SW11.3 kmh SW 13.0 mph20.9 kmh 29.87 in1011.5 mb 0.00 in0.0 mm 0.00 in/hr0.0 mm/hr 0.00 in0.0 mm
01:20 PM 63.7°F17.6°C 48.2°F9.0°C 57% 7.0 mph SW11.3 kmh SW 13.0 mph20.9 kmh 29.87 in1011.5 mb 0.00 in0.0 mm 0.00 in/hr0.0 mm/hr 0.00 in0.0 mm
01:21 PM 63.7°F17.6°C 48.2°F9.0°C 57% 7.0 mph SW11.3 kmh SW 13.0 mph20.9 kmh 29.87 in1011.5 mb 0.00 in0.0 mm 0.00 in/hr0.0 mm/hr 0.00 in0.0 mm
01:22 PM 63.7°F17.6°C 48.2°F9.0°C 57% 7.0 mph SW11.3 kmh SW 13.0 mph20.9 kmh 29.87 in1011.5 mb 0.00 in0.0 mm 0.00 in/hr0.0 mm/hr 0.00 in0.0 mm
01:23 PM 63.7°F17.6°C 48.2°F9.0°C 57% 7.0 mph SW11.3 kmh SW 13.0 mph20.9 kmh 29.87 in1011.5 mb 0.00 in0.0 mm 0.00 in/hr0.0 mm/hr 0.00 in0.0 mm
01:24 PM 63.7°F17.6°C 48.2°F9.0°C 57% 7.0 mph SW11.3 kmh SW 13.0 mph20.9 kmh 29.87 in1011.5 mb 0.00 in0.0 mm 0.00 in/hr0.0 mm/hr 0.00 in0.0 mm
01:25 PM 63.7°F17.6°C 48.2°F9.0°C 57% 7.0 mph SW11.3 kmh SW 13.0 mph20.9 kmh 29.87 in1011.5 mb 0.00 in0.0 mm 0.00 in/hr0.0 mm/hr 0.00 in0.0 mm
01:26 PM 63.7°F17.6°C 48.2°F9.0°C 57% 7.0 mph SW11.3 kmh SW 13.0 mph20.9 kmh 29.87 in1011.5 mb 0.00 in0.0 mm 0.00 in/hr0.0 mm/hr 0.00 in0.0 mm
01:27 PM 63.7°F17.6°C 48.2°F9.0°C 57% 7.0 mph SW11.3 kmh SW 13.0 mph20.9 kmh 29.87 in1011.5 mb 0.00 in0.0 mm 0.00 in/hr0.0 mm/hr 0.00 in0.0 mm
01:28 PM 63.7°F17.6°C 48.2°F9.0°C 57% 7.0 mph SW11.3 kmh SW 13.0 mph20.9 kmh 29.87 in1011.5 mb 0.00 in0.0 mm 0.00 in/hr0.0 mm/hr 0.00 in0.0 mm
01:29 PM 63.7°F17.6°C 48.2°F9.0°C 57% 7.0 mph SW11.3 kmh SW 13.0 mph20.9 kmh 29.87 in1011.5 mb 0.00 in0.0 mm 0.00 in/hr0.0 mm/hr 0.00 in0.0 mm
01:30 PM 63.7°F17.6°C 48.2°F9.0°C 57% 7.0 mph SW11.3 kmh SW 13.0 mph20.9 kmh 29.87 in1011.5 mb 0.00 in0.0 mm 0.00 in/hr0.0 mm/hr 0.00 in0.0 mm
01:31 PM 63.7°F17.6°C 48.2°F9.0°C 57% 7.0 mph SW11.3 kmh SW 13.0 mph20.9 kmh 29.87 in1011.5 mb 0.00 in0.0 mm 0.00 in/hr0.0 mm/hr 0.00 in0.0 mm
01:32 PM 63.7°F17.6°C 48.2°F9.0°C 57% 7.0 mph SW11.3 kmh SW 13.0 mph20.9 kmh 29.87 in1011.5 mb 0.00 in0.0 mm 0.00 in/hr0.0 mm/hr 0.00 in0.0 mm
01:33 PM 63.7°F17.6°C 48.2°F9.0°C 57% 7.0 mph SW11.3 kmh SW 13.0 mph20.9 kmh 29.87 in1011.5 mb 0.00 in0.0 mm 0.00 in/hr0.0 mm/hr 0.00 in0.0 mm
01:34 PM 63.7°F17.6°C 48.2°F9.0°C 57% 7.0 mph SW11.3 kmh SW 13.0 mph20.9 kmh 29.87 in1011.5 mb 0.00 in0.0 mm 0.00 in/hr0.0 mm/hr 0.00 in0.0 mm
01:35 PM 63.7°F17.6°C 48.2°F9.0°C 57% 7.0 mph SW11.3 kmh SW 13.0 mph20.9 kmh 29.87 in1011.5 mb 0.00 in0.0 mm 0.00 in/hr0.0 mm/hr 0.00 in0.0 mm
01:36 PM 63.7°F17.6°C 48.2°F9.0°C 57% 7.0 mph SW11.3 kmh SW 13.0 mph20.9 kmh 29.87 in1011.5 mb 0.00 in0.0 mm 0.00 in/hr0.0 mm/hr 0.00 in0.0 mm
01:37 PM 63.7°F17.6°C 48.2°F9.0°C 57% 7.0 mph SW11.3 kmh SW 13.0 mph20.9 kmh 29.87 in1011.5 mb 0.00 in0.0 mm 0.00 in/hr0.0 mm/hr 0.00 in0.0 mm
01:38 PM 63.7°F17.6°C 48.2°F9.0°C 57% 7.0 mph SW11.3 kmh SW 13.0 mph20.9 kmh 29.87 in1011.5 mb 0.00 in0.0 mm 0.00 in/hr0.0 mm/hr 0.00 in0.0 mm
01:39 PM 63.7°F17.6°C 48.2°F9.0°C 57% 7.0 mph SW11.3 kmh SW 13.0 mph20.9 kmh 29.87 in1011.5 mb 0.00 in0.0 mm 0.00 in/hr0.0 mm/hr 0.00 in0.0 mm
01:40 PM 63.7°F17.6°C 48.2°F9.0°C 57% 7.0 mph SW11.3 kmh SW 13.0 mph20.9 kmh 29.87 in1011.5 mb 0.00 in0.0 mm 0.00 in/hr0.0 mm/hr 0.00 in0.0 mm
01:41 PM 63.7°F17.6°C 48.2°F9.0°C 57% 7.0 mph SW11.3 kmh SW 13.0 mph20.9 kmh 29.87 in1011.5 mb 0.00 in0.0 mm 0.00 in/hr0.0 mm/hr 0.00 in0.0 mm
01:42 PM 63.7°F17.6°C 48.2°F9.0°C 57% 7.0 mph SW11.3 kmh SW 13.0 mph20.9 kmh 29.87 in1011.5 mb 0.00 in0.0 mm 0.00 in/hr0.0 mm/hr 0.00 in0.0 mm
01:43 PM 63.7°F17.6°C 48.2°F9.0°C 57% 7.0 mph SW11.3 kmh SW 13.0 mph20.9 kmh 29.87 in1011.5 mb 0.00 in0.0 mm 0.00 in/hr0.0 mm/hr 0.00 in0.0 mm
01:44 PM 63.7°F17.6°C 48.2°F9.0°C 57% 7.0 mph SW11.3 kmh SW 13.0 mph20.9 kmh 29.87 in1011.5 mb 0.00 in0.0 mm 0.00 in/hr0.0 mm/hr 0.00 in0.0 mm
01:45 PM 63.7°F17.6°C 48.2°F9.0°C 57% 7.0 mph SW11.3 kmh SW 13.0 mph20.9 kmh 29.87 in1011.5 mb 0.00 in0.0 mm 0.00 in/hr0.0 mm/hr 0.00 in0.0 mm
01:46 PM 63.7°F17.6°C 48.2°F9.0°C 57% 7.0 mph SW11.3 kmh SW 13.0 mph20.9 kmh 29.87 in1011.5 mb 0.00 in0.0 mm 0.00 in/hr0.0 mm/hr 0.00 in0.0 mm
01:47 PM 63.7°F17.6°C 48.2°F9.0°C 57% 7.0 mph SW11.3 kmh SW 13.0 mph20.9 kmh 29.87 in1011.5 mb 0.00 in0.0 mm 0.00 in/hr0.0 mm/hr 0.00 in0.0 mm
01:48 PM 63.7°F17.6°C 48.2°F9.0°C 57% 7.0 mph SW11.3 kmh SW 13.0 mph20.9 kmh 29.87 in1011.5 mb 0.00 in0.0 mm 0.00 in/hr0.0 mm/hr 0.00 in0.0 mm
01:49 PM 63.7°F17.6°C 48.2°F9.0°C 57% 7.0 mph SW11.3 kmh SW 13.0 mph20.9 kmh 29.87 in1011.5 mb 0.00 in0.0 mm 0.00 in/hr0.0 mm/hr 0.00 in0.0 mm
01:50 PM 63.7°F17.6°C 48.2°F9.0°C 57% 7.0 mph SW11.3 kmh SW 13.0 mph20.9 kmh 29.87 in1011.5 mb 0.00 in0.0 mm 0.00 in/hr0.0 mm/hr 0.00 in0.0 mm
01:51 PM 63.7°F17.6°C 48.2°F9.0°C 57% 7.0 mph SW11.3 kmh SW 13.0 mph20.9 kmh 29.87 in1011.5 mb 0.00 in0.0 mm 0.00 in/hr0.0 mm/hr 0.00 in0.0 mm
01:52 PM 63.7°F17.6°C 48.2°F9.0°C 57% 7.0 mph SW11.3 kmh SW 13.0 mph20.9 kmh 29.87 in1011.5 mb 0.00 in0.0 mm 0.00 in/hr0.0 mm/hr 0.00 in0.0 mm
01:53 PM 63.7°F17.6°C 48.2°F9.0°C 57% 7.0 mph SW11.3 kmh SW 13.0 mph20.9 kmh 29.87 in1011.5 mb 0.00 in0.0 mm 0.00 in/hr0.0 mm/hr 0.00 in0.0 mm
01:54 PM 63.7°F17.6°C 48.2°F9.0°C 57% 7.0 mph SW11.3 kmh SW 13.0 mph20.9 kmh 29.87 in1011.5 mb 0.00 in0.0 mm 0.00 in/hr0.0 mm/hr 0.00 in0.0 mm
01:55 PM 63.7°F17.6°C 48.2°F9.0°C 57% 7.0 mph SW11.3 kmh SW 13.0 mph20.9 kmh 29.87 in1011.5 mb 0.00 in0.0 mm 0.00 in/hr0.0 mm/hr 0.00 in0.0 mm
01:56 PM 63.7°F17.6°C 48.2°F9.0°C 57% 7.0 mph SW11.3 kmh SW 13.0 mph20.9 kmh 29.87 in1011.5 mb 0.00 in0.0 mm 0.00 in/hr0.0 mm/hr 0.00 in0.0 mm
01:57 PM 63.7°F17.6°C 48.2°F9.0°C 57% 7.0 mph SW11.3 kmh SW 13.0 mph20.9 kmh 29.87 in1011.5 mb 0.00 in0.0 mm 0.00 in/hr0.0 mm/hr 0.00 in0.0 mm
01:58 PM 63.7°F17.6°C 48.2°F9.0°C 57% 7.0 mph SW11.3 kmh SW 13.0 mph20.9 kmh 29.87 in1011.5 mb 0.00 in0.0 mm 0.00 in/hr0.0 mm/hr 0.00 in0.0 mm
01:59 PM 63.7°F17.6°C 48.2°F9.0°C 57% 7.0 mph SW11.3 kmh SW 13.0 mph20.9 kmh 29.87 in1011.5 mb 0.00 in0.0 mm 0.00 in/hr0.0 mm/hr 0.00 in0.0 mm
02:00 PM 63.7°F17.6°C 48.2°F9.0°C 57% 7.0 mph SW11.3 kmh SW 13.0 mph20.9 kmh 29.87 in1011.5 mb 0.00 in0.0 mm 0.00 in/hr0.0 mm/hr 0.00 in0.0 mm
02:01 PM 63.7°F17.6°C 48.2°F9.0°C 57% 7.0 mph SW11.3 kmh SW 13.0 mph20.9 kmh 29.87 in1011.5 mb 0.00 in0.0 mm 0.00 in/hr0.0 mm/hr 0.00 in0.0 mm
02:02 PM 63.7°F17.6°C 48.2°F9.0°C 57% 7.0 mph SW11.3 kmh SW 13.0 mph20.9 kmh 29.87 in1011.5 mb 0.00 in0.0 mm 0.00 in/hr0.0 mm/hr 0.00 in0.0 mm
02:03 PM 63.7°F17.6°C 48.2°F9.0°C 57% 7.0 mph SW11.3 kmh SW 13.0 mph20.9 kmh 29.87 in1011.5 mb 0.00 in0.0 mm 0.00 in/hr0.0 mm/hr 0.00 in0.0 mm
02:04 PM 63.7°F17.6°C 48.2°F9.0°C 57% 7.0 mph SW11.3 kmh SW 13.0 mph20.9 kmh 29.87 in1011.5 mb 0.00 in0.0 mm 0.00 in/hr0.0 mm/hr 0.00 in0.0 mm
02:05 PM 63.7°F17.6°C 48.2°F9.0°C 57% 7.0 mph SW11.3 kmh SW 13.0 mph20.9 kmh 29.87 in1011.5 mb 0.00 in0.0 mm 0.00 in/hr0.0 mm/hr 0.00 in0.0 mm
02:06 PM 63.7°F17.6°C 48.2°F9.0°C 57% 7.0 mph SW11.3 kmh SW 13.0 mph20.9 kmh 29.87 in1011.5 mb 0.00 in0.0 mm 0.00 in/hr0.0 mm/hr 0.00 in0.0 mm
02:07 PM 63.7°F17.6°C 48.2°F9.0°C 57% 7.0 mph SW11.3 kmh SW 13.0 mph20.9 kmh 29.87 in1011.5 mb 0.00 in0.0 mm 0.00 in/hr0.0 mm/hr 0.00 in0.0 mm
02:08 PM 63.7°F17.6°C 48.2°F9.0°C 57% 7.0 mph SW11.3 kmh SW 13.0 mph20.9 kmh 29.87 in1011.5 mb 0.00 in0.0 mm 0.00 in/hr0.0 mm/hr 0.00 in0.0 mm
02:09 PM 63.7°F17.6°C 48.2°F9.0°C 57% 7.0 mph SW11.3 kmh SW 13.0 mph20.9 kmh 29.87 in1011.5 mb 0.00 in0.0 mm 0.00 in/hr0.0 mm/hr 0.00 in0.0 mm
02:10 PM 63.7°F17.6°C 48.2°F9.0°C 57% 7.0 mph SW11.3 kmh SW 13.0 mph20.9 kmh 29.87 in1011.5 mb 0.00 in0.0 mm 0.00 in/hr0.0 mm/hr 0.00 in0.0 mm
02:11 PM 63.7°F17.6°C 48.2°F9.0°C 57% 7.0 mph SW11.3 kmh SW 13.0 mph20.9 kmh 29.87 in1011.5 mb 0.00 in0.0 mm 0.00 in/hr0.0 mm/hr 0.00 in0.0 mm
02:12 PM 63.7°F17.6°C 48.2°F9.0°C 57% 7.0 mph SW11.3 kmh SW 13.0 mph20.9 kmh 29.87 in1011.5 mb 0.00 in0.0 mm 0.00 in/hr0.0 mm/hr 0.00 in0.0 mm
02:13 PM 63.7°F17.6°C 48.2°F9.0°C 57% 7.0 mph SW11.3 kmh SW 13.0 mph20.9 kmh 29.87 in1011.5 mb 0.00 in0.0 mm 0.00 in/hr0.0 mm/hr 0.00 in0.0 mm
02:14 PM 63.7°F17.6°C 48.2°F9.0°C 57% 7.0 mph SW11.3 kmh SW 13.0 mph20.9 kmh 29.87 in1011.5 mb 0.00 in0.0 mm 0.00 in/hr0.0 mm/hr 0.00 in0.0 mm
02:15 PM 63.7°F17.6°C 48.2°F9.0°C 57% 7.0 mph SW11.3 kmh SW 13.0 mph20.9 kmh 29.87 in1011.5 mb 0.00 in0.0 mm 0.00 in/hr0.0 mm/hr 0.00 in0.0 mm
02:16 PM 63.7°F17.6°C 48.2°F9.0°C 57% 7.0 mph SW11.3 kmh SW 13.0 mph20.9 kmh 29.87 in1011.5 mb 0.00 in0.0 mm 0.00 in/hr0.0 mm/hr 0.00 in0.0 mm
02:17 PM 63.7°F17.6°C 48.2°F9.0°C 57% 7.0 mph SW11.3 kmh SW 13.0 mph20.9 kmh 29.87 in1011.5 mb 0.00 in0.0 mm 0.00 in/hr0.0 mm/hr 0.00 in0.0 mm
02:18 PM 63.7°F17.6°C 48.2°F9.0°C 57% 7.0 mph SW11.3 kmh SW 13.0 mph20.9 kmh 29.87 in1011.5 mb 0.00 in0.0 mm 0.00 in/hr0.0 mm/hr 0.00 in0.0 mm
02:19 PM 63.7°F17.6°C 48.2°F9.0°C 57% 7.0 mph SW11.3 kmh SW 13.0 mph20.9 kmh 29.87 in1011.5 mb 0.00 in0.0 mm 0.00 in/hr0.0 mm/hr 0.00 in0.0 mm
02:20 PM 63.7°F17.6°C 48.2°F9.0°C 57% 7.0 mph SW11.3 kmh SW 13.0 mph20.9 kmh 29.87 in1011.5 mb 0.00 in0.0 mm 0.00 in/hr0.0 mm/hr 0.00 in0.0 mm
02:21 PM 63.7°F17.6°C 48.2°F9.0°C 57% 7.0 mph SW11.3 kmh SW 13.0 mph20.9 kmh 29.87 in1011.5 mb 0.00 in0.0 mm 0.00 in/hr0.0 mm/hr 0.00 in0.0 mm
02:22 PM 63.7°F17.6°C 48.2°F9.0°C 57% 7.0 mph SW11.3 kmh SW 13.0 mph20.9 kmh 29.87 in1011.5 mb 0.00 in0.0 mm 0.00 in/hr0.0 mm/hr 0.00 in0.0 mm
02:23 PM 63.7°F17.6°C 48.2°F9.0°C 57% 7.0 mph SW11.3 kmh SW 13.0 mph20.9 kmh 29.87 in1011.5 mb 0.00 in0.0 mm 0.00 in/hr0.0 mm/hr 0.00 in0.0 mm
02:24 PM 63.7°F17.6°C 48.2°F9.0°C 57% 7.0 mph SW11.3 kmh SW 13.0 mph20.9 kmh 29.87 in1011.5 mb 0.00 in0.0 mm 0.00 in/hr0.0 mm/hr 0.00 in0.0 mm
02:25 PM 63.7°F17.6°C 48.2°F9.0°C 57% 7.0 mph SW11.3 kmh SW 13.0 mph20.9 kmh 29.87 in1011.5 mb 0.00 in0.0 mm 0.00 in/hr0.0 mm/hr 0.00 in0.0 mm
02:26 PM 63.7°F17.6°C 48.2°F9.0°C 57% 7.0 mph SW11.3 kmh SW 13.0 mph20.9 kmh 29.87 in1011.5 mb 0.00 in0.0 mm 0.00 in/hr0.0 mm/hr 0.00 in0.0 mm
02:27 PM 63.7°F17.6°C 48.2°F9.0°C 57% 7.0 mph SW11.3 kmh SW 13.0 mph20.9 kmh 29.87 in1011.5 mb 0.00 in0.0 mm 0.00 in/hr0.0 mm/hr 0.00 in0.0 mm
02:28 PM 63.7°F17.6°C 48.2°F9.0°C 57% 7.0 mph SW11.3 kmh SW 13.0 mph20.9 kmh 29.87 in1011.5 mb 0.00 in0.0 mm 0.00 in/hr0.0 mm/hr 0.00 in0.0 mm
02:29 PM 63.7°F17.6°C 48.2°F9.0°C 57% 7.0 mph SW11.3 kmh SW 13.0 mph20.9 kmh 29.87 in1011.5 mb 0.00 in0.0 mm 0.00 in/hr0.0 mm/hr 0.00 in0.0 mm
02:30 PM 63.7°F17.6°C 48.2°F9.0°C 57% 7.0 mph SW11.3 kmh SW 13.0 mph20.9 kmh 29.87 in1011.5 mb 0.00 in0.0 mm 0.00 in/hr0.0 mm/hr 0.00 in0.0 mm
02:31 PM 63.7°F17.6°C 48.2°F9.0°C 57% 7.0 mph SW11.3 kmh SW 13.0 mph20.9 kmh 29.87 in1011.5 mb 0.00 in0.0 mm 0.00 in/hr0.0 mm/hr 0.00 in0.0 mm
02:32 PM 63.7°F17.6°C 48.2°F9.0°C 57% 7.0 mph SW11.3 kmh SW 13.0 mph20.9 kmh 29.87 in1011.5 mb 0.00 in0.0 mm 0.00 in/hr0.0 mm/hr 0.00 in0.0 mm
02:33 PM 63.7°F17.6°C 48.2°F9.0°C 57% 7.0 mph SW11.3 kmh SW 13.0 mph20.9 kmh 29.87 in1011.5 mb 0.00 in0.0 mm 0.00 in/hr0.0 mm/hr 0.00 in0.0 mm
02:34 PM 63.7°F17.6°C 48.2°F9.0°C 57% 7.0 mph SW11.3 kmh SW 13.0 mph20.9 kmh 29.87 in1011.5 mb 0.00 in0.0 mm 0.00 in/hr0.0 mm/hr 0.00 in0.0 mm
02:35 PM 63.7°F17.6°C 48.2°F9.0°C 57% 7.0 mph SW11.3 kmh SW 13.0 mph20.9 kmh 29.87 in1011.5 mb 0.00 in0.0 mm 0.00 in/hr0.0 mm/hr 0.00 in0.0 mm
02:36 PM 63.7°F17.6°C 48.2°F9.0°C 57% 7.0 mph SW11.3 kmh SW 13.0 mph20.9 kmh 29.87 in1011.5 mb 0.00 in0.0 mm 0.00 in/hr0.0 mm/hr 0.00 in0.0 mm
02:37 PM 63.7°F17.6°C 48.2°F9.0°C 57% 7.0 mph SW11.3 kmh SW 13.0 mph20.9 kmh 29.87 in1011.5 mb 0.00 in0.0 mm 0.00 in/hr0.0 mm/hr 0.00 in0.0 mm
02:38 PM 63.7°F17.6°C 48.2°F9.0°C 57% 7.0 mph SW11.3 kmh SW 13.0 mph20.9 kmh 29.87 in1011.5 mb 0.00 in0.0 mm 0.00 in/hr0.0 mm/hr 0.00 in0.0 mm
02:39 PM 63.7°F17.6°C 48.2°F9.0°C 57% 7.0 mph SW11.3 kmh SW 13.0 mph20.9 kmh 29.87 in1011.5 mb 0.00 in0.0 mm 0.00 in/hr0.0 mm/hr 0.00 in0.0 mm
02:40 PM 63.7°F17.6°C 48.2°F9.0°C 57% 7.0 mph SW11.3 kmh SW 13.0 mph20.9 kmh 29.87 in1011.5 mb 0.00 in0.0 mm 0.00 in/hr0.0 mm/hr 0.00 in0.0 mm
02:41 PM 63.7°F17.6°C 48.2°F9.0°C 57% 7.0 mph SW11.3 kmh SW 13.0 mph20.9 kmh 29.87 in1011.5 mb 0.00 in0.0 mm 0.00 in/hr0.0 mm/hr 0.00 in0.0 mm
02:42 PM 63.7°F17.6°C 48.2°F9.0°C 57% 7.0 mph SW11.3 kmh SW 13.0 mph20.9 kmh 29.87 in1011.5 mb 0.00 in0.0 mm 0.00 in/hr0.0 mm/hr 0.00 in0.0 mm
02:43 PM 63.7°F17.6°C 48.2°F9.0°C 57% 7.0 mph SW11.3 kmh SW 13.0 mph20.9 kmh 29.87 in1011.5 mb 0.00 in0.0 mm 0.00 in/hr0.0 mm/hr 0.00 in0.0 mm
02:44 PM 63.7°F17.6°C 48.2°F9.0°C 57% 7.0 mph SW11.3 kmh SW 13.0 mph20.9 kmh 29.87 in1011.5 mb 0.00 in0.0 mm 0.00 in/hr0.0 mm/hr 0.00 in0.0 mm
02:45 PM 63.7°F17.6°C 48.2°F9.0°C 57% 7.0 mph SW11.3 kmh SW 13.0 mph20.9 kmh 29.87 in1011.5 mb 0.00 in0.0 mm 0.00 in/hr0.0 mm/hr 0.00 in0.0 mm
02:46 PM 63.7°F17.6°C 48.2°F9.0°C 57% 7.0 mph SW11.3 kmh SW 13.0 mph20.9 kmh 29.87 in1011.5 mb 0.00 in0.0 mm 0.00 in/hr0.0 mm/hr 0.00 in0.0 mm
02:47 PM 63.7°F17.6°C 48.2°F9.0°C 57% 7.0 mph SW11.3 kmh SW 13.0 mph20.9 kmh 29.87 in1011.5 mb 0.00 in0.0 mm 0.00 in/hr0.0 mm/hr 0.00 in0.0 mm
02:48 PM 63.7°F17.6°C 48.2°F9.0°C 57% 7.0 mph SW11.3 kmh SW 13.0 mph20.9 kmh 29.87 in1011.5 mb 0.00 in0.0 mm 0.00 in/hr0.0 mm/hr 0.00 in0.0 mm
02:49 PM 63.7°F17.6°C 48.2°F9.0°C 57% 7.0 mph SW11.3 kmh SW 13.0 mph20.9 kmh 29.87 in1011.5 mb 0.00 in0.0 mm 0.00 in/hr0.0 mm/hr 0.00 in0.0 mm
02:50 PM 63.7°F17.6°C 48.2°F9.0°C 57% 7.0 mph SW11.3 kmh SW 13.0 mph20.9 kmh 29.87 in1011.5 mb 0.00 in0.0 mm 0.00 in/hr0.0 mm/hr 0.00 in0.0 mm
02:51 PM 63.7°F17.6°C 48.2°F9.0°C 57% 7.0 mph SW11.3 kmh SW 13.0 mph20.9 kmh 29.87 in1011.5 mb 0.00 in0.0 mm 0.00 in/hr0.0 mm/hr 0.00 in0.0 mm
02:52 PM 63.7°F17.6°C 48.2°F9.0°C 57% 7.0 mph SW11.3 kmh SW 13.0 mph20.9 kmh 29.87 in1011.5 mb 0.00 in0.0 mm 0.00 in/hr0.0 mm/hr 0.00 in0.0 mm
02:53 PM 63.7°F17.6°C 48.2°F9.0°C 57% 7.0 mph SW11.3 kmh SW 13.0 mph20.9 kmh 29.87 in1011.5 mb 0.00 in0.0 mm 0.00 in/hr0.0 mm/hr 0.00 in0.0 mm
02:54 PM 63.7°F17.6°C 48.2°F9.0°C 57% 7.0 mph SW11.3 kmh SW 13.0 mph20.9 kmh 29.87 in1011.5 mb 0.00 in0.0 mm 0.00 in/hr0.0 mm/hr 0.00 in0.0 mm
02:55 PM 63.7°F17.6°C 48.2°F9.0°C 57% 7.0 mph SW11.3 kmh SW 13.0 mph20.9 kmh 29.87 in1011.5 mb 0.00 in0.0 mm 0.00 in/hr0.0 mm/hr 0.00 in0.0 mm
02:56 PM 63.7°F17.6°C 48.2°F9.0°C 57% 7.0 mph SW11.3 kmh SW 13.0 mph20.9 kmh 29.87 in1011.5 mb 0.00 in0.0 mm 0.00 in/hr0.0 mm/hr 0.00 in0.0 mm
02:57 PM 63.7°F17.6°C 48.2°F9.0°C 57% 7.0 mph SW11.3 kmh SW 13.0 mph20.9 kmh 29.87 in1011.5 mb 0.00 in0.0 mm 0.00 in/hr0.0 mm/hr 0.00 in0.0 mm
02:58 PM 63.7°F17.6°C 48.2°F9.0°C 57% 7.0 mph SW11.3 kmh SW 13.0 mph20.9 kmh 29.87 in1011.5 mb 0.00 in0.0 mm 0.00 in/hr0.0 mm/hr 0.00 in0.0 mm
02:59 PM 63.7°F17.6°C 48.2°F9.0°C 57% 7.0 mph SW11.3 kmh SW 13.0 mph20.9 kmh 29.87 in1011.5 mb 0.00 in0.0 mm 0.00 in/hr0.0 mm/hr 0.00 in0.0 mm
03:00 PM 63.7°F17.6°C 48.2°F9.0°C 57% 7.0 mph SW11.3 kmh SW 13.0 mph20.9 kmh 29.87 in1011.5 mb 0.00 in0.0 mm 0.00 in/hr0.0 mm/hr 0.00 in0.0 mm
03:01 PM 63.7°F17.6°C 48.2°F9.0°C 57% 7.0 mph SW11.3 kmh SW 13.0 mph20.9 kmh 29.87 in1011.5 mb 0.00 in0.0 mm 0.00 in/hr0.0 mm/hr 0.00 in0.0 mm
03:02 PM 63.7°F17.6°C 48.2°F9.0°C 57% 7.0 mph SW11.3 kmh SW 13.0 mph20.9 kmh 29.87 in1011.5 mb 0.00 in0.0 mm 0.00 in/hr0.0 mm/hr 0.00 in0.0 mm
03:03 PM 63.7°F17.6°C 48.2°F9.0°C 57% 7.0 mph SW11.3 kmh SW 13.0 mph20.9 kmh 29.87 in1011.5 mb 0.00 in0.0 mm 0.00 in/hr0.0 mm/hr 0.00 in0.0 mm
03:04 PM 63.7°F17.6°C 48.2°F9.0°C 57% 7.0 mph SW11.3 kmh SW 13.0 mph20.9 kmh 29.87 in1011.5 mb 0.00 in0.0 mm 0.00 in/hr0.0 mm/hr 0.00 in0.0 mm
03:05 PM 63.7°F17.6°C 48.2°F9.0°C 57% 7.0 mph SW11.3 kmh SW 13.0 mph20.9 kmh 29.87 in1011.5 mb 0.00 in0.0 mm 0.00 in/hr0.0 mm/hr 0.00 in0.0 mm
03:06 PM 63.7°F17.6°C 48.2°F9.0°C 57% 7.0 mph SW11.3 kmh SW 13.0 mph20.9 kmh 29.87 in1011.5 mb 0.00 in0.0 mm 0.00 in/hr0.0 mm/hr 0.00 in0.0 mm
03:07 PM 63.7°F17.6°C 48.2°F9.0°C 57% 7.0 mph SW11.3 kmh SW 13.0 mph20.9 kmh 29.87 in1011.5 mb 0.00 in0.0 mm 0.00 in/hr0.0 mm/hr 0.00 in0.0 mm
03:08 PM 63.7°F17.6°C 48.2°F9.0°C 57% 7.0 mph SW11.3 kmh SW 13.0 mph20.9 kmh 29.87 in1011.5 mb 0.00 in0.0 mm 0.00 in/hr0.0 mm/hr 0.00 in0.0 mm
03:09 PM 63.7°F17.6°C 48.2°F9.0°C 57% 7.0 mph SW11.3 kmh SW 13.0 mph20.9 kmh 29.87 in1011.5 mb 0.00 in0.0 mm 0.00 in/hr0.0 mm/hr 0.00 in0.0 mm
03:10 PM 63.7°F17.6°C 48.2°F9.0°C 57% 7.0 mph SW11.3 kmh SW 13.0 mph20.9 kmh 29.87 in1011.5 mb 0.00 in0.0 mm 0.00 in/hr0.0 mm/hr 0.00 in0.0 mm
03:11 PM 63.7°F17.6°C 48.2°F9.0°C 57% 7.0 mph SW11.3 kmh SW 13.0 mph20.9 kmh 29.87 in1011.5 mb 0.00 in0.0 mm 0.00 in/hr0.0 mm/hr 0.00 in0.0 mm
03:12 PM 63.7°F17.6°C 48.2°F9.0°C 57% 7.0 mph SW11.3 kmh SW 13.0 mph20.9 kmh 29.87 in1011.5 mb 0.00 in0.0 mm 0.00 in/hr0.0 mm/hr 0.00 in0.0 mm
03:13 PM 63.7°F17.6°C 48.2°F9.0°C 57% 7.0 mph SW11.3 kmh SW 13.0 mph20.9 kmh 29.87 in1011.5 mb 0.00 in0.0 mm 0.00 in/hr0.0 mm/hr 0.00 in0.0 mm
03:14 PM 63.7°F17.6°C 48.2°F9.0°C 57% 7.0 mph SW11.3 kmh SW 13.0 mph20.9 kmh 29.87 in1011.5 mb 0.00 in0.0 mm 0.00 in/hr0.0 mm/hr 0.00 in0.0 mm
03:15 PM 63.7°F17.6°C 48.2°F9.0°C 57% 7.0 mph SW11.3 kmh SW 13.0 mph20.9 kmh 29.87 in1011.5 mb 0.00 in0.0 mm 0.00 in/hr0.0 mm/hr 0.00 in0.0 mm
03:16 PM 63.7°F17.6°C 48.2°F9.0°C 57% 7.0 mph SW11.3 kmh SW 13.0 mph20.9 kmh 29.87 in1011.5 mb 0.00 in0.0 mm 0.00 in/hr0.0 mm/hr 0.00 in0.0 mm
03:17 PM 63.7°F17.6°C 48.2°F9.0°C 57% 7.0 mph SW11.3 kmh SW 13.0 mph20.9 kmh 29.87 in1011.5 mb 0.00 in0.0 mm 0.00 in/hr0.0 mm/hr 0.00 in0.0 mm
03:18 PM 63.7°F17.6°C 48.2°F9.0°C 57% 7.0 mph SW11.3 kmh SW 13.0 mph20.9 kmh 29.87 in1011.5 mb 0.00 in0.0 mm 0.00 in/hr0.0 mm/hr 0.00 in0.0 mm
03:19 PM 63.7°F17.6°C 48.2°F9.0°C 57% 7.0 mph SW11.3 kmh SW 13.0 mph20.9 kmh 29.87 in1011.5 mb 0.00 in0.0 mm 0.00 in/hr0.0 mm/hr 0.00 in0.0 mm
03:20 PM 63.7°F17.6°C 48.2°F9.0°C 57% 7.0 mph SW11.3 kmh SW 13.0 mph20.9 kmh 29.87 in1011.5 mb 0.00 in0.0 mm 0.00 in/hr0.0 mm/hr 0.00 in0.0 mm
03:21 PM 63.7°F17.6°C 48.2°F9.0°C 57% 7.0 mph SW11.3 kmh SW 13.0 mph20.9 kmh 29.87 in1011.5 mb 0.00 in0.0 mm 0.00 in/hr0.0 mm/hr 0.00 in0.0 mm
03:22 PM 63.7°F17.6°C 48.2°F9.0°C 57% 7.0 mph SW11.3 kmh SW 13.0 mph20.9 kmh 29.87 in1011.5 mb 0.00 in0.0 mm 0.00 in/hr0.0 mm/hr 0.00 in0.0 mm
03:23 PM 63.7°F17.6°C 48.2°F9.0°C 57% 7.0 mph SW11.3 kmh SW 13.0 mph20.9 kmh 29.87 in1011.5 mb 0.00 in0.0 mm 0.00 in/hr0.0 mm/hr 0.00 in0.0 mm
03:24 PM 63.7°F17.6°C 48.2°F9.0°C 57% 7.0 mph SW11.3 kmh SW 13.0 mph20.9 kmh 29.87 in1011.5 mb 0.00 in0.0 mm 0.00 in/hr0.0 mm/hr 0.00 in0.0 mm
03:25 PM 63.7°F17.6°C 48.2°F9.0°C 57% 7.0 mph SW11.3 kmh SW 13.0 mph20.9 kmh 29.87 in1011.5 mb 0.00 in0.0 mm 0.00 in/hr0.0 mm/hr 0.00 in0.0 mm
03:26 PM 63.7°F17.6°C 48.2°F9.0°C 57% 7.0 mph SW11.3 kmh SW 13.0 mph20.9 kmh 29.87 in1011.5 mb 0.00 in0.0 mm 0.00 in/hr0.0 mm/hr 0.00 in0.0 mm
03:27 PM 63.7°F17.6°C 48.2°F9.0°C 57% 7.0 mph SW11.3 kmh SW 13.0 mph20.9 kmh 29.87 in1011.5 mb 0.00 in0.0 mm 0.00 in/hr0.0 mm/hr 0.00 in0.0 mm
03:28 PM 63.7°F17.6°C 48.2°F9.0°C 57% 7.0 mph SW11.3 kmh SW 13.0 mph20.9 kmh 29.87 in1011.5 mb 0.00 in0.0 mm 0.00 in/hr0.0 mm/hr 0.00 in0.0 mm
03:29 PM 63.7°F17.6°C 48.2°F9.0°C 57% 7.0 mph SW11.3 kmh SW 13.0 mph20.9 kmh 29.87 in1011.5 mb 0.00 in0.0 mm 0.00 in/hr0.0 mm/hr 0.00 in0.0 mm
03:30 PM 63.7°F17.6°C 48.2°F9.0°C 57% 7.0 mph SW11.3 kmh SW 13.0 mph20.9 kmh 29.87 in1011.5 mb 0.00 in0.0 mm 0.00 in/hr0.0 mm/hr 0.00 in0.0 mm
03:31 PM 63.7°F17.6°C 48.2°F9.0°C 57% 7.0 mph SW11.3 kmh SW 13.0 mph20.9 kmh 29.87 in1011.5 mb 0.00 in0.0 mm 0.00 in/hr0.0 mm/hr 0.00 in0.0 mm
03:32 PM 63.7°F17.6°C 48.2°F9.0°C 57% 7.0 mph SW11.3 kmh SW 13.0 mph20.9 kmh 29.87 in1011.5 mb 0.00 in0.0 mm 0.00 in/hr0.0 mm/hr 0.00 in0.0 mm
03:33 PM 63.7°F17.6°C 48.2°F9.0°C 57% 7.0 mph SW11.3 kmh SW 13.0 mph20.9 kmh 29.87 in1011.5 mb 0.00 in0.0 mm 0.00 in/hr0.0 mm/hr 0.00 in0.0 mm
03:34 PM 63.7°F17.6°C 48.2°F9.0°C 57% 7.0 mph SW11.3 kmh SW 13.0 mph20.9 kmh 29.87 in1011.5 mb 0.00 in0.0 mm 0.00 in/hr0.0 mm/hr 0.00 in0.0 mm
03:35 PM 63.7°F17.6°C 48.2°F9.0°C 57% 7.0 mph SW11.3 kmh SW 13.0 mph20.9 kmh 29.87 in1011.5 mb 0.00 in0.0 mm 0.00 in/hr0.0 mm/hr 0.00 in0.0 mm
03:36 PM 63.7°F17.6°C 48.2°F9.0°C 57% 7.0 mph SW11.3 kmh SW 13.0 mph20.9 kmh 29.87 in1011.5 mb 0.00 in0.0 mm 0.00 in/hr0.0 mm/hr 0.00 in0.0 mm
03:37 PM 63.7°F17.6°C 48.2°F9.0°C 57% 7.0 mph SW11.3 kmh SW 13.0 mph20.9 kmh 29.87 in1011.5 mb 0.00 in0.0 mm 0.00 in/hr0.0 mm/hr 0.00 in0.0 mm
03:38 PM 63.7°F17.6°C 48.2°F9.0°C 57% 7.0 mph SW11.3 kmh SW 13.0 mph20.9 kmh 29.87 in1011.5 mb 0.00 in0.0 mm 0.00 in/hr0.0 mm/hr 0.00 in0.0 mm
03:39 PM 63.7°F17.6°C 48.2°F9.0°C 57% 7.0 mph SW11.3 kmh SW 13.0 mph20.9 kmh 29.87 in1011.5 mb 0.00 in0.0 mm 0.00 in/hr0.0 mm/hr 0.00 in0.0 mm
03:40 PM 63.7°F17.6°C 48.2°F9.0°C 57% 7.0 mph SW11.3 kmh SW 13.0 mph20.9 kmh 29.87 in1011.5 mb 0.00 in0.0 mm 0.00 in/hr0.0 mm/hr 0.00 in0.0 mm
03:41 PM 63.7°F17.6°C 48.2°F9.0°C 57% 7.0 mph SW11.3 kmh SW 13.0 mph20.9 kmh 29.87 in1011.5 mb 0.00 in0.0 mm 0.00 in/hr0.0 mm/hr 0.00 in0.0 mm
03:42 PM 63.7°F17.6°C 48.2°F9.0°C 57% 7.0 mph SW11.3 kmh SW 13.0 mph20.9 kmh 29.87 in1011.5 mb 0.00 in0.0 mm 0.00 in/hr0.0 mm/hr 0.00 in0.0 mm
03:43 PM 63.7°F17.6°C 48.2°F9.0°C 57% 7.0 mph SW11.3 kmh SW 13.0 mph20.9 kmh 29.87 in1011.5 mb 0.00 in0.0 mm 0.00 in/hr0.0 mm/hr 0.00 in0.0 mm
03:44 PM 63.7°F17.6°C 48.2°F9.0°C 57% 7.0 mph SW11.3 kmh SW 13.0 mph20.9 kmh 29.87 in1011.5 mb 0.00 in0.0 mm 0.00 in/hr0.0 mm/hr 0.00 in0.0 mm
03:45 PM 63.7°F17.6°C 48.2°F9.0°C 57% 7.0 mph SW11.3 kmh SW 13.0 mph20.9 kmh 29.87 in1011.5 mb 0.00 in0.0 mm 0.00 in/hr0.0 mm/hr 0.00 in0.0 mm
03:46 PM 63.7°F17.6°C 48.2°F9.0°C 57% 7.0 mph SW11.3 kmh SW 13.0 mph20.9 kmh 29.87 in1011.5 mb 0.00 in0.0 mm 0.00 in/hr0.0 mm/hr 0.00 in0.0 mm
03:47 PM 63.7°F17.6°C 48.2°F9.0°C 57% 7.0 mph SW11.3 kmh SW 13.0 mph20.9 kmh 29.87 in1011.5 mb 0.00 in0.0 mm 0.00 in/hr0.0 mm/hr 0.00 in0.0 mm
03:48 PM 63.7°F17.6°C 48.2°F9.0°C 57% 7.0 mph SW11.3 kmh SW 13.0 mph20.9 kmh 29.87 in1011.5 mb 0.00 in0.0 mm 0.00 in/hr0.0 mm/hr 0.00 in0.0 mm
03:49 PM 63.7°F17.6°C 48.2°F9.0°C 57% 7.0 mph SW11.3 kmh SW 13.0 mph20.9 kmh 29.87 in1011.5 mb 0.00 in0.0 mm 0.00 in/hr0.0 mm/hr 0.00 in0.0 mm
03:50 PM 63.7°F17.6°C 48.2°F9.0°C 57% 7.0 mph SW11.3 kmh SW 13.0 mph20.9 kmh 29.87 in1011.5 mb 0.00 in0.0 mm 0.00 in/hr0.0 mm/hr 0.00 in0.0 mm
03:51 PM 63.7°F17.6°C 48.2°F9.0°C 57% 7.0 mph SW11.3 kmh SW 13.0 mph20.9 kmh 29.87 in1011.5 mb 0.00 in0.0 mm 0.00 in/hr0.0 mm/hr 0.00 in0.0 mm
03:52 PM 63.7°F17.6°C 48.2°F9.0°C 57% 7.0 mph SW11.3 kmh SW 13.0 mph20.9 kmh 29.87 in1011.5 mb 0.00 in0.0 mm 0.00 in/hr0.0 mm/hr 0.00 in0.0 mm
03:53 PM 63.7°F17.6°C 48.2°F9.0°C 57% 7.0 mph SW11.3 kmh SW 13.0 mph20.9 kmh 29.87 in1011.5 mb 0.00 in0.0 mm 0.00 in/hr0.0 mm/hr 0.00 in0.0 mm
03:54 PM 63.7°F17.6°C 48.2°F9.0°C 57% 7.0 mph SW11.3 kmh SW 13.0 mph20.9 kmh 29.87 in1011.5 mb 0.00 in0.0 mm 0.00 in/hr0.0 mm/hr 0.00 in0.0 mm
03:55 PM 63.7°F17.6°C 48.2°F9.0°C 57% 7.0 mph SW11.3 kmh SW 13.0 mph20.9 kmh 29.87 in1011.5 mb 0.00 in0.0 mm 0.00 in/hr0.0 mm/hr 0.00 in0.0 mm
03:56 PM 63.7°F17.6°C 48.2°F9.0°C 57% 7.0 mph SW11.3 kmh SW 13.0 mph20.9 kmh 29.87 in1011.5 mb 0.00 in0.0 mm 0.00 in/hr0.0 mm/hr 0.00 in0.0 mm
03:57 PM 63.7°F17.6°C 48.2°F9.0°C 57% 7.0 mph SW11.3 kmh SW 13.0 mph20.9 kmh 29.87 in1011.5 mb 0.00 in0.0 mm 0.00 in/hr0.0 mm/hr 0.00 in0.0 mm
03:58 PM 63.7°F17.6°C 48.2°F9.0°C 57% 7.0 mph SW11.3 kmh SW 13.0 mph20.9 kmh 29.87 in1011.5 mb 0.00 in0.0 mm 0.00 in/hr0.0 mm/hr 0.00 in0.0 mm
03:59 PM 63.7°F17.6°C 48.2°F9.0°C 57% 7.0 mph SW11.3 kmh SW 13.0 mph20.9 kmh 29.87 in1011.5 mb 0.00 in0.0 mm 0.00 in/hr0.0 mm/hr 0.00 in0.0 mm
04:00 PM 63.7°F17.6°C 48.2°F9.0°C 57% 7.0 mph SW11.3 kmh SW 13.0 mph20.9 kmh 29.87 in1011.5 mb 0.00 in0.0 mm 0.00 in/hr0.0 mm/hr 0.00 in0.0 mm
04:01 PM 63.7°F17.6°C 48.2°F9.0°C 57% 7.0 mph SW11.3 kmh SW 13.0 mph20.9 kmh 29.87 in1011.5 mb 0.00 in0.0 mm 0.00 in/hr0.0 mm/hr 0.00 in0.0 mm
04:02 PM 63.7°F17.6°C 48.2°F9.0°C 57% 7.0 mph SW11.3 kmh SW 13.0 mph20.9 kmh 29.87 in1011.5 mb 0.00 in0.0 mm 0.00 in/hr0.0 mm/hr 0.00 in0.0 mm
04:03 PM 63.7°F17.6°C 48.2°F9.0°C 57% 7.0 mph SW11.3 kmh SW 13.0 mph20.9 kmh 29.87 in1011.5 mb 0.00 in0.0 mm 0.00 in/hr0.0 mm/hr 0.00 in0.0 mm
04:04 PM 63.7°F17.6°C 48.2°F9.0°C 57% 7.0 mph SW11.3 kmh SW 13.0 mph20.9 kmh 29.87 in1011.5 mb 0.00 in0.0 mm 0.00 in/hr0.0 mm/hr 0.00 in0.0 mm
04:05 PM 63.7°F17.6°C 48.2°F9.0°C 57% 7.0 mph SW11.3 kmh SW 13.0 mph20.9 kmh 29.87 in1011.5 mb 0.00 in0.0 mm 0.00 in/hr0.0 mm/hr 0.00 in0.0 mm
04:06 PM 63.7°F17.6°C 48.2°F9.0°C 57% 7.0 mph SW11.3 kmh SW 13.0 mph20.9 kmh 29.87 in1011.5 mb 0.00 in0.0 mm 0.00 in/hr0.0 mm/hr 0.00 in0.0 mm
04:07 PM 63.7°F17.6°C 48.2°F9.0°C 57% 7.0 mph SW11.3 kmh SW 13.0 mph20.9 kmh 29.87 in1011.5 mb 0.00 in0.0 mm 0.00 in/hr0.0 mm/hr 0.00 in0.0 mm
04:08 PM 63.7°F17.6°C 48.2°F9.0°C 57% 7.0 mph SW11.3 kmh SW 13.0 mph20.9 kmh 29.87 in1011.5 mb 0.00 in0.0 mm 0.00 in/hr0.0 mm/hr 0.00 in0.0 mm
04:09 PM 63.7°F17.6°C 48.2°F9.0°C 57% 7.0 mph SW11.3 kmh SW 13.0 mph20.9 kmh 29.87 in1011.5 mb 0.00 in0.0 mm 0.00 in/hr0.0 mm/hr 0.00 in0.0 mm
04:10 PM 63.7°F17.6°C 48.2°F9.0°C 57% 7.0 mph SW11.3 kmh SW 13.0 mph20.9 kmh 29.87 in1011.5 mb 0.00 in0.0 mm 0.00 in/hr0.0 mm/hr 0.00 in0.0 mm
04:11 PM 63.7°F17.6°C 48.2°F9.0°C 57% 7.0 mph SW11.3 kmh SW 13.0 mph20.9 kmh 29.87 in1011.5 mb 0.00 in0.0 mm 0.00 in/hr0.0 mm/hr 0.00 in0.0 mm
04:12 PM 63.7°F17.6°C 48.2°F9.0°C 57% 7.0 mph SW11.3 kmh SW 13.0 mph20.9 kmh 29.87 in1011.5 mb 0.00 in0.0 mm 0.00 in/hr0.0 mm/hr 0.00 in0.0 mm
04:13 PM 63.7°F17.6°C 48.2°F9.0°C 57% 7.0 mph SW11.3 kmh SW 13.0 mph20.9 kmh 29.87 in1011.5 mb 0.00 in0.0 mm 0.00 in/hr0.0 mm/hr 0.00 in0.0 mm
04:14 PM 63.7°F17.6°C 48.2°F9.0°C 57% 7.0 mph SW11.3 kmh SW 13.0 mph20.9 kmh 29.87 in1011.5 mb 0.00 in0.0 mm 0.00 in/hr0.0 mm/hr 0.00 in0.0 mm
04:15 PM 63.7°F17.6°C 48.2°F9.0°C 57% 7.0 mph SW11.3 kmh SW 13.0 mph20.9 kmh 29.87 in1011.5 mb 0.00 in0.0 mm 0.00 in/hr0.0 mm/hr 0.00 in0.0 mm
04:16 PM 63.7°F17.6°C 48.2°F9.0°C 57% 7.0 mph SW11.3 kmh SW 13.0 mph20.9 kmh 29.87 in1011.5 mb 0.00 in0.0 mm 0.00 in/hr0.0 mm/hr 0.00 in0.0 mm
04:17 PM 63.7°F17.6°C 48.2°F9.0°C 57% 7.0 mph SW11.3 kmh SW 13.0 mph20.9 kmh 29.87 in1011.5 mb 0.00 in0.0 mm 0.00 in/hr0.0 mm/hr 0.00 in0.0 mm
04:18 PM 63.7°F17.6°C 48.2°F9.0°C 57% 7.0 mph SW11.3 kmh SW 13.0 mph20.9 kmh 29.87 in1011.5 mb 0.00 in0.0 mm 0.00 in/hr0.0 mm/hr 0.00 in0.0 mm
04:19 PM 63.7°F17.6°C 48.2°F9.0°C 57% 7.0 mph SW11.3 kmh SW 13.0 mph20.9 kmh 29.87 in1011.5 mb 0.00 in0.0 mm 0.00 in/hr0.0 mm/hr 0.00 in0.0 mm
04:20 PM 63.7°F17.6°C 48.2°F9.0°C 57% 7.0 mph SW11.3 kmh SW 13.0 mph20.9 kmh 29.87 in1011.5 mb 0.00 in0.0 mm 0.00 in/hr0.0 mm/hr 0.00 in0.0 mm
04:21 PM 63.7°F17.6°C 48.2°F9.0°C 57% 7.0 mph SW11.3 kmh SW 13.0 mph20.9 kmh 29.87 in1011.5 mb 0.00 in0.0 mm 0.00 in/hr0.0 mm/hr 0.00 in0.0 mm
04:22 PM 63.7°F17.6°C 48.2°F9.0°C 57% 7.0 mph SW11.3 kmh SW 13.0 mph20.9 kmh 29.87 in1011.5 mb 0.00 in0.0 mm 0.00 in/hr0.0 mm/hr 0.00 in0.0 mm
04:23 PM 63.7°F17.6°C 48.2°F9.0°C 57% 7.0 mph SW11.3 kmh SW 13.0 mph20.9 kmh 29.87 in1011.5 mb 0.00 in0.0 mm 0.00 in/hr0.0 mm/hr 0.00 in0.0 mm
04:24 PM 63.7°F17.6°C 48.2°F9.0°C 57% 7.0 mph SW11.3 kmh SW 13.0 mph20.9 kmh 29.87 in1011.5 mb 0.00 in0.0 mm 0.00 in/hr0.0 mm/hr 0.00 in0.0 mm
04:25 PM 63.7°F17.6°C 48.2°F9.0°C 57% 7.0 mph SW11.3 kmh SW 13.0 mph20.9 kmh 29.87 in1011.5 mb 0.00 in0.0 mm 0.00 in/hr0.0 mm/hr 0.00 in0.0 mm
04:26 PM 63.7°F17.6°C 48.2°F9.0°C 57% 7.0 mph SW11.3 kmh SW 13.0 mph20.9 kmh 29.87 in1011.5 mb 0.00 in0.0 mm 0.00 in/hr0.0 mm/hr 0.00 in0.0 mm
04:27 PM 63.7°F17.6°C 48.2°F9.0°C 57% 7.0 mph SW11.3 kmh SW 13.0 mph20.9 kmh 29.87 in1011.5 mb 0.00 in0.0 mm 0.00 in/hr0.0 mm/hr 0.00 in0.0 mm
04:28 PM 63.7°F17.6°C 48.2°F9.0°C 57% 7.0 mph SW11.3 kmh SW 13.0 mph20.9 kmh 29.87 in1011.5 mb 0.00 in0.0 mm 0.00 in/hr0.0 mm/hr 0.00 in0.0 mm
04:29 PM 63.7°F17.6°C 48.2°F9.0°C 57% 7.0 mph SW11.3 kmh SW 13.0 mph20.9 kmh 29.87 in1011.5 mb 0.00 in0.0 mm 0.00 in/hr0.0 mm/hr 0.00 in0.0 mm
04:30 PM 63.7°F17.6°C 48.2°F9.0°C 57% 7.0 mph SW11.3 kmh SW 13.0 mph20.9 kmh 29.87 in1011.5 mb 0.00 in0.0 mm 0.00 in/hr0.0 mm/hr 0.00 in0.0 mm
04:31 PM 63.7°F17.6°C 48.2°F9.0°C 57% 7.0 mph SW11.3 kmh SW 13.0 mph20.9 kmh 29.87 in1011.5 mb 0.00 in0.0 mm 0.00 in/hr0.0 mm/hr 0.00 in0.0 mm
04:32 PM 63.7°F17.6°C 48.2°F9.0°C 57% 7.0 mph SW11.3 kmh SW 13.0 mph20.9 kmh 29.87 in1011.5 mb 0.00 in0.0 mm 0.00 in/hr0.0 mm/hr 0.00 in0.0 mm
04:33 PM 63.7°F17.6°C 48.2°F9.0°C 57% 7.0 mph SW11.3 kmh SW 13.0 mph20.9 kmh 29.87 in1011.5 mb 0.00 in0.0 mm 0.00 in/hr0.0 mm/hr 0.00 in0.0 mm
04:34 PM 63.7°F17.6°C 48.2°F9.0°C 57% 7.0 mph SW11.3 kmh SW 13.0 mph20.9 kmh 29.87 in1011.5 mb 0.00 in0.0 mm 0.00 in/hr0.0 mm/hr 0.00 in0.0 mm
04:35 PM 63.7°F17.6°C 48.2°F9.0°C 57% 7.0 mph SW11.3 kmh SW 13.0 mph20.9 kmh 29.87 in1011.5 mb 0.00 in0.0 mm 0.00 in/hr0.0 mm/hr 0.00 in0.0 mm
04:36 PM 63.7°F17.6°C 48.2°F9.0°C 57% 7.0 mph SW11.3 kmh SW 13.0 mph20.9 kmh 29.87 in1011.5 mb 0.00 in0.0 mm 0.00 in/hr0.0 mm/hr 0.00 in0.0 mm
04:37 PM 63.7°F17.6°C 48.2°F9.0°C 57% 7.0 mph SW11.3 kmh SW 13.0 mph20.9 kmh 29.87 in1011.5 mb 0.00 in0.0 mm 0.00 in/hr0.0 mm/hr 0.00 in0.0 mm
04:38 PM 63.7°F17.6°C 48.2°F9.0°C 57% 7.0 mph SW11.3 kmh SW 13.0 mph20.9 kmh 29.87 in1011.5 mb 0.00 in0.0 mm 0.00 in/hr0.0 mm/hr 0.00 in0.0 mm
04:39 PM 63.7°F17.6°C 48.2°F9.0°C 57% 7.0 mph SW11.3 kmh SW 13.0 mph20.9 kmh 29.87 in1011.5 mb 0.00 in0.0 mm 0.00 in/hr0.0 mm/hr 0.00 in0.0 mm
04:40 PM 63.7°F17.6°C 48.2°F9.0°C 57% 7.0 mph SW11.3 kmh SW 13.0 mph20.9 kmh 29.87 in1011.5 mb 0.00 in0.0 mm 0.00 in/hr0.0 mm/hr 0.00 in0.0 mm
04:41 PM 63.7°F17.6°C 48.2°F9.0°C 57% 7.0 mph SW11.3 kmh SW 13.0 mph20.9 kmh 29.87 in1011.5 mb 0.00 in0.0 mm 0.00 in/hr0.0 mm/hr 0.00 in0.0 mm
04:42 PM 63.7°F17.6°C 48.2°F9.0°C 57% 7.0 mph SW11.3 kmh SW 13.0 mph20.9 kmh 29.87 in1011.5 mb 0.00 in0.0 mm 0.00 in/hr0.0 mm/hr 0.00 in0.0 mm
04:43 PM 63.7°F17.6°C 48.2°F9.0°C 57% 7.0 mph SW11.3 kmh SW 13.0 mph20.9 kmh 29.87 in1011.5 mb 0.00 in0.0 mm 0.00 in/hr0.0 mm/hr 0.00 in0.0 mm
04:44 PM 63.7°F17.6°C 48.2°F9.0°C 57% 7.0 mph SW11.3 kmh SW 13.0 mph20.9 kmh 29.87 in1011.5 mb 0.00 in0.0 mm 0.00 in/hr0.0 mm/hr 0.00 in0.0 mm
04:45 PM 63.7°F17.6°C 48.2°F9.0°C 57% 7.0 mph SW11.3 kmh SW 13.0 mph20.9 kmh 29.87 in1011.5 mb 0.00 in0.0 mm 0.00 in/hr0.0 mm/hr 0.00 in0.0 mm
04:46 PM 63.7°F17.6°C 48.2°F9.0°C 57% 7.0 mph SW11.3 kmh SW 13.0 mph20.9 kmh 29.87 in1011.5 mb 0.00 in0.0 mm 0.00 in/hr0.0 mm/hr 0.00 in0.0 mm
04:47 PM 63.7°F17.6°C 48.2°F9.0°C 57% 7.0 mph SW11.3 kmh SW 13.0 mph20.9 kmh 29.87 in1011.5 mb 0.00 in0.0 mm 0.00 in/hr0.0 mm/hr 0.00 in0.0 mm
04:48 PM 63.7°F17.6°C 48.2°F9.0°C 57% 7.0 mph SW11.3 kmh SW 13.0 mph20.9 kmh 29.87 in1011.5 mb 0.00 in0.0 mm 0.00 in/hr0.0 mm/hr 0.00 in0.0 mm
04:49 PM 63.7°F17.6°C 48.2°F9.0°C 57% 7.0 mph SW11.3 kmh SW 13.0 mph20.9 kmh 29.87 in1011.5 mb 0.00 in0.0 mm 0.00 in/hr0.0 mm/hr 0.00 in0.0 mm
04:50 PM 63.7°F17.6°C 48.2°F9.0°C 57% 7.0 mph SW11.3 kmh SW 13.0 mph20.9 kmh 29.87 in1011.5 mb 0.00 in0.0 mm 0.00 in/hr0.0 mm/hr 0.00 in0.0 mm
04:51 PM 63.7°F17.6°C 48.2°F9.0°C 57% 7.0 mph SW11.3 kmh SW 13.0 mph20.9 kmh 29.87 in1011.5 mb 0.00 in0.0 mm 0.00 in/hr0.0 mm/hr 0.00 in0.0 mm
04:52 PM 63.7°F17.6°C 48.2°F9.0°C 57% 7.0 mph SW11.3 kmh SW 13.0 mph20.9 kmh 29.87 in1011.5 mb 0.00 in0.0 mm 0.00 in/hr0.0 mm/hr 0.00 in0.0 mm
04:53 PM 63.7°F17.6°C 48.2°F9.0°C 57% 7.0 mph SW11.3 kmh SW 13.0 mph20.9 kmh 29.87 in1011.5 mb 0.00 in0.0 mm 0.00 in/hr0.0 mm/hr 0.00 in0.0 mm
04:54 PM 63.7°F17.6°C 48.2°F9.0°C 57% 7.0 mph SW11.3 kmh SW 13.0 mph20.9 kmh 29.87 in1011.5 mb 0.00 in0.0 mm 0.00 in/hr0.0 mm/hr 0.00 in0.0 mm
04:55 PM 63.7°F17.6°C 48.2°F9.0°C 57% 7.0 mph SW11.3 kmh SW 13.0 mph20.9 kmh 29.87 in1011.5 mb 0.00 in0.0 mm 0.00 in/hr0.0 mm/hr 0.00 in0.0 mm
04:56 PM 63.7°F17.6°C 48.2°F9.0°C 57% 7.0 mph SW11.3 kmh SW 13.0 mph20.9 kmh 29.87 in1011.5 mb 0.00 in0.0 mm 0.00 in/hr0.0 mm/hr 0.00 in0.0 mm
04:57 PM 63.7°F17.6°C 48.2°F9.0°C 57% 7.0 mph SW11.3 kmh SW 13.0 mph20.9 kmh 29.87 in1011.5 mb 0.00 in0.0 mm 0.00 in/hr0.0 mm/hr 0.00 in0.0 mm
04:58 PM 63.7°F17.6°C 48.2°F9.0°C 57% 7.0 mph SW11.3 kmh SW 13.0 mph20.9 kmh 29.87 in1011.5 mb 0.00 in0.0 mm 0.00 in/hr0.0 mm/hr 0.00 in0.0 mm
04:59 PM 63.7°F17.6°C 48.2°F9.0°C 57% 7.0 mph SW11.3 kmh SW 13.0 mph20.9 kmh 29.87 in1011.5 mb 0.00 in0.0 mm 0.00 in/hr0.0 mm/hr 0.00 in0.0 mm
05:00 PM 63.7°F17.6°C 48.2°F9.0°C 57% 7.0 mph SW11.3 kmh SW 13.0 mph20.9 kmh 29.87 in1011.5 mb 0.00 in0.0 mm 0.00 in/hr0.0 mm/hr 0.00 in0.0 mm
05:01 PM 63.7°F17.6°C 48.2°F9.0°C 57% 7.0 mph SW11.3 kmh SW 13.0 mph20.9 kmh 29.87 in1011.5 mb 0.00 in0.0 mm 0.00 in/hr0.0 mm/hr 0.00 in0.0 mm
05:02 PM 63.7°F17.6°C 48.2°F9.0°C 57% 7.0 mph SW11.3 kmh SW 13.0 mph20.9 kmh 29.87 in1011.5 mb 0.00 in0.0 mm 0.00 in/hr0.0 mm/hr 0.00 in0.0 mm
05:03 PM 63.7°F17.6°C 48.2°F9.0°C 57% 7.0 mph SW11.3 kmh SW 13.0 mph20.9 kmh 29.87 in1011.5 mb 0.00 in0.0 mm 0.00 in/hr0.0 mm/hr 0.00 in0.0 mm
05:04 PM 63.7°F17.6°C 48.2°F9.0°C 57% 7.0 mph SW11.3 kmh SW 13.0 mph20.9 kmh 29.87 in1011.5 mb 0.00 in0.0 mm 0.00 in/hr0.0 mm/hr 0.00 in0.0 mm
05:05 PM 63.7°F17.6°C 48.2°F9.0°C 57% 7.0 mph SW11.3 kmh SW 13.0 mph20.9 kmh 29.87 in1011.5 mb 0.00 in0.0 mm 0.00 in/hr0.0 mm/hr 0.00 in0.0 mm
05:06 PM 63.7°F17.6°C 48.2°F9.0°C 57% 7.0 mph SW11.3 kmh SW 13.0 mph20.9 kmh 29.87 in1011.5 mb 0.00 in0.0 mm 0.00 in/hr0.0 mm/hr 0.00 in0.0 mm
05:07 PM 63.7°F17.6°C 48.2°F9.0°C 57% 7.0 mph SW11.3 kmh SW 13.0 mph20.9 kmh 29.87 in1011.5 mb 0.00 in0.0 mm 0.00 in/hr0.0 mm/hr 0.00 in0.0 mm
05:08 PM 63.7°F17.6°C 48.2°F9.0°C 57% 7.0 mph SW11.3 kmh SW 13.0 mph20.9 kmh 29.87 in1011.5 mb 0.00 in0.0 mm 0.00 in/hr0.0 mm/hr 0.00 in0.0 mm
05:09 PM 63.7°F17.6°C 48.2°F9.0°C 57% 7.0 mph SW11.3 kmh SW 13.0 mph20.9 kmh 29.87 in1011.5 mb 0.00 in0.0 mm 0.00 in/hr0.0 mm/hr 0.00 in0.0 mm
05:10 PM 63.7°F17.6°C 48.2°F9.0°C 57% 7.0 mph SW11.3 kmh SW 13.0 mph20.9 kmh 29.87 in1011.5 mb 0.00 in0.0 mm 0.00 in/hr0.0 mm/hr 0.00 in0.0 mm
05:11 PM 63.7°F17.6°C 48.2°F9.0°C 57% 7.0 mph SW11.3 kmh SW 13.0 mph20.9 kmh 29.87 in1011.5 mb 0.00 in0.0 mm 0.00 in/hr0.0 mm/hr 0.00 in0.0 mm
05:12 PM 63.7°F17.6°C 48.2°F9.0°C 57% 7.0 mph SW11.3 kmh SW 13.0 mph20.9 kmh 29.87 in1011.5 mb 0.00 in0.0 mm 0.00 in/hr0.0 mm/hr 0.00 in0.0 mm
05:13 PM 63.7°F17.6°C 48.2°F9.0°C 57% 7.0 mph SW11.3 kmh SW 13.0 mph20.9 kmh 29.87 in1011.5 mb 0.00 in0.0 mm 0.00 in/hr0.0 mm/hr 0.00 in0.0 mm
05:14 PM 63.7°F17.6°C 48.2°F9.0°C 57% 7.0 mph SW11.3 kmh SW 13.0 mph20.9 kmh 29.87 in1011.5 mb 0.00 in0.0 mm 0.00 in/hr0.0 mm/hr 0.00 in0.0 mm
05:15 PM 63.7°F17.6°C 48.2°F9.0°C 57% 7.0 mph SW11.3 kmh SW 13.0 mph20.9 kmh 29.87 in1011.5 mb 0.00 in0.0 mm 0.00 in/hr0.0 mm/hr 0.00 in0.0 mm
05:16 PM 63.7°F17.6°C 48.2°F9.0°C 57% 7.0 mph SW11.3 kmh SW 13.0 mph20.9 kmh 29.87 in1011.5 mb 0.00 in0.0 mm 0.00 in/hr0.0 mm/hr 0.00 in0.0 mm
05:17 PM 63.7°F17.6°C 48.2°F9.0°C 57% 7.0 mph SW11.3 kmh SW 13.0 mph20.9 kmh 29.87 in1011.5 mb 0.00 in0.0 mm 0.00 in/hr0.0 mm/hr 0.00 in0.0 mm
05:18 PM 63.7°F17.6°C 48.2°F9.0°C 57% 7.0 mph SW11.3 kmh SW 13.0 mph20.9 kmh 29.87 in1011.5 mb 0.00 in0.0 mm 0.00 in/hr0.0 mm/hr 0.00 in0.0 mm
05:19 PM 63.7°F17.6°C 48.2°F9.0°C 57% 7.0 mph SW11.3 kmh SW 13.0 mph20.9 kmh 29.87 in1011.5 mb 0.00 in0.0 mm 0.00 in/hr0.0 mm/hr 0.00 in0.0 mm
05:20 PM 63.7°F17.6°C 48.2°F9.0°C 57% 7.0 mph SW11.3 kmh SW 13.0 mph20.9 kmh 29.87 in1011.5 mb 0.00 in0.0 mm 0.00 in/hr0.0 mm/hr 0.00 in0.0 mm
05:21 PM 63.7°F17.6°C 48.2°F9.0°C 57% 7.0 mph SW11.3 kmh SW 13.0 mph20.9 kmh 29.87 in1011.5 mb 0.00 in0.0 mm 0.00 in/hr0.0 mm/hr 0.00 in0.0 mm
05:22 PM 63.7°F17.6°C 48.2°F9.0°C 57% 7.0 mph SW11.3 kmh SW 13.0 mph20.9 kmh 29.87 in1011.5 mb 0.00 in0.0 mm 0.00 in/hr0.0 mm/hr 0.00 in0.0 mm
05:23 PM 63.7°F17.6°C 48.2°F9.0°C 57% 7.0 mph SW11.3 kmh SW 13.0 mph20.9 kmh 29.87 in1011.5 mb 0.00 in0.0 mm 0.00 in/hr0.0 mm/hr 0.00 in0.0 mm
05:24 PM 63.7°F17.6°C 48.2°F9.0°C 57% 7.0 mph SW11.3 kmh SW 13.0 mph20.9 kmh 29.87 in1011.5 mb 0.00 in0.0 mm 0.00 in/hr0.0 mm/hr 0.00 in0.0 mm
05:25 PM 63.7°F17.6°C 48.2°F9.0°C 57% 7.0 mph SW11.3 kmh SW 13.0 mph20.9 kmh 29.87 in1011.5 mb 0.00 in0.0 mm 0.00 in/hr0.0 mm/hr 0.00 in0.0 mm
05:26 PM 63.7°F17.6°C 48.2°F9.0°C 57% 7.0 mph SW11.3 kmh SW 13.0 mph20.9 kmh 29.87 in1011.5 mb 0.00 in0.0 mm 0.00 in/hr0.0 mm/hr 0.00 in0.0 mm
05:27 PM 63.7°F17.6°C 48.2°F9.0°C 57% 7.0 mph SW11.3 kmh SW 13.0 mph20.9 kmh 29.87 in1011.5 mb 0.00 in0.0 mm 0.00 in/hr0.0 mm/hr 0.00 in0.0 mm
05:28 PM 63.7°F17.6°C 48.2°F9.0°C 57% 7.0 mph SW11.3 kmh SW 13.0 mph20.9 kmh 29.87 in1011.5 mb 0.00 in0.0 mm 0.00 in/hr0.0 mm/hr 0.00 in0.0 mm
05:29 PM 63.7°F17.6°C 48.2°F9.0°C 57% 7.0 mph SW11.3 kmh SW 13.0 mph20.9 kmh 29.87 in1011.5 mb 0.00 in0.0 mm 0.00 in/hr0.0 mm/hr 0.00 in0.0 mm
05:30 PM 63.7°F17.6°C 48.2°F9.0°C 57% 7.0 mph SW11.3 kmh SW 13.0 mph20.9 kmh 29.87 in1011.5 mb 0.00 in0.0 mm 0.00 in/hr0.0 mm/hr 0.00 in0.0 mm
05:31 PM 63.7°F17.6°C 48.2°F9.0°C 57% 7.0 mph SW11.3 kmh SW 13.0 mph20.9 kmh 29.87 in1011.5 mb 0.00 in0.0 mm 0.00 in/hr0.0 mm/hr 0.00 in0.0 mm
05:32 PM 63.7°F17.6°C 48.2°F9.0°C 57% 7.0 mph SW11.3 kmh SW 13.0 mph20.9 kmh 29.87 in1011.5 mb 0.00 in0.0 mm 0.00 in/hr0.0 mm/hr 0.00 in0.0 mm
05:33 PM 63.7°F17.6°C 48.2°F9.0°C 57% 7.0 mph SW11.3 kmh SW 13.0 mph20.9 kmh 29.87 in1011.5 mb 0.00 in0.0 mm 0.00 in/hr0.0 mm/hr 0.00 in0.0 mm
05:34 PM 63.7°F17.6°C 48.2°F9.0°C 57% 7.0 mph SW11.3 kmh SW 13.0 mph20.9 kmh 29.87 in1011.5 mb 0.00 in0.0 mm 0.00 in/hr0.0 mm/hr 0.00 in0.0 mm
05:35 PM 63.7°F17.6°C 48.2°F9.0°C 57% 7.0 mph SW11.3 kmh SW 13.0 mph20.9 kmh 29.87 in1011.5 mb 0.00 in0.0 mm 0.00 in/hr0.0 mm/hr 0.00 in0.0 mm
05:36 PM 63.7°F17.6°C 48.2°F9.0°C 57% 7.0 mph SW11.3 kmh SW 13.0 mph20.9 kmh 29.87 in1011.5 mb 0.00 in0.0 mm 0.00 in/hr0.0 mm/hr 0.00 in0.0 mm
05:37 PM 63.7°F17.6°C 48.2°F9.0°C 57% 7.0 mph SW11.3 kmh SW 13.0 mph20.9 kmh 29.87 in1011.5 mb 0.00 in0.0 mm 0.00 in/hr0.0 mm/hr 0.00 in0.0 mm
05:38 PM 63.7°F17.6°C 48.2°F9.0°C 57% 7.0 mph SW11.3 kmh SW 13.0 mph20.9 kmh 29.87 in1011.5 mb 0.00 in0.0 mm 0.00 in/hr0.0 mm/hr 0.00 in0.0 mm
05:39 PM 63.7°F17.6°C 48.2°F9.0°C 57% 7.0 mph SW11.3 kmh SW 13.0 mph20.9 kmh 29.87 in1011.5 mb 0.00 in0.0 mm 0.00 in/hr0.0 mm/hr 0.00 in0.0 mm
05:40 PM 63.7°F17.6°C 48.2°F9.0°C 57% 7.0 mph SW11.3 kmh SW 13.0 mph20.9 kmh 29.87 in1011.5 mb 0.00 in0.0 mm 0.00 in/hr0.0 mm/hr 0.00 in0.0 mm
05:41 PM 63.7°F17.6°C 48.2°F9.0°C 57% 7.0 mph SW11.3 kmh SW 13.0 mph20.9 kmh 29.87 in1011.5 mb 0.00 in0.0 mm 0.00 in/hr0.0 mm/hr 0.00 in0.0 mm
05:42 PM 63.7°F17.6°C 48.2°F9.0°C 57% 7.0 mph SW11.3 kmh SW 13.0 mph20.9 kmh 29.87 in1011.5 mb 0.00 in0.0 mm 0.00 in/hr0.0 mm/hr 0.00 in0.0 mm
05:43 PM 63.7°F17.6°C 48.2°F9.0°C 57% 7.0 mph SW11.3 kmh SW 13.0 mph20.9 kmh 29.87 in1011.5 mb 0.00 in0.0 mm 0.00 in/hr0.0 mm/hr 0.00 in0.0 mm
05:44 PM 63.7°F17.6°C 48.2°F9.0°C 57% 7.0 mph SW11.3 kmh SW 13.0 mph20.9 kmh 29.87 in1011.5 mb 0.00 in0.0 mm 0.00 in/hr0.0 mm/hr 0.00 in0.0 mm
05:45 PM 63.7°F17.6°C 48.2°F9.0°C 57% 7.0 mph SW11.3 kmh SW 13.0 mph20.9 kmh 29.87 in1011.5 mb 0.00 in0.0 mm 0.00 in/hr0.0 mm/hr 0.00 in0.0 mm
05:46 PM 63.7°F17.6°C 48.2°F9.0°C 57% 7.0 mph SW11.3 kmh SW 13.0 mph20.9 kmh 29.87 in1011.5 mb 0.00 in0.0 mm 0.00 in/hr0.0 mm/hr 0.00 in0.0 mm
05:47 PM 63.7°F17.6°C 48.2°F9.0°C 57% 7.0 mph SW11.3 kmh SW 13.0 mph20.9 kmh 29.87 in1011.5 mb 0.00 in0.0 mm 0.00 in/hr0.0 mm/hr 0.00 in0.0 mm
05:48 PM 63.7°F17.6°C 48.2°F9.0°C 57% 7.0 mph SW11.3 kmh SW 13.0 mph20.9 kmh 29.87 in1011.5 mb 0.00 in0.0 mm 0.00 in/hr0.0 mm/hr 0.00 in0.0 mm
05:49 PM 63.7°F17.6°C 48.2°F9.0°C 57% 7.0 mph SW11.3 kmh SW 13.0 mph20.9 kmh 29.87 in1011.5 mb 0.00 in0.0 mm 0.00 in/hr0.0 mm/hr 0.00 in0.0 mm
05:50 PM 63.7°F17.6°C 48.2°F9.0°C 57% 7.0 mph SW11.3 kmh SW 13.0 mph20.9 kmh 29.87 in1011.5 mb 0.00 in0.0 mm 0.00 in/hr0.0 mm/hr 0.00 in0.0 mm
05:51 PM 63.7°F17.6°C 48.2°F9.0°C 57% 7.0 mph SW11.3 kmh SW 13.0 mph20.9 kmh 29.87 in1011.5 mb 0.00 in0.0 mm 0.00 in/hr0.0 mm/hr 0.00 in0.0 mm
05:52 PM 63.7°F17.6°C 48.2°F9.0°C 57% 7.0 mph SW11.3 kmh SW 13.0 mph20.9 kmh 29.87 in1011.5 mb 0.00 in0.0 mm 0.00 in/hr0.0 mm/hr 0.00 in0.0 mm
05:53 PM 63.7°F17.6°C 48.2°F9.0°C 57% 7.0 mph SW11.3 kmh SW 13.0 mph20.9 kmh 29.87 in1011.5 mb 0.00 in0.0 mm 0.00 in/hr0.0 mm/hr 0.00 in0.0 mm
05:54 PM 63.7°F17.6°C 48.2°F9.0°C 57% 7.0 mph SW11.3 kmh SW 13.0 mph20.9 kmh 29.87 in1011.5 mb 0.00 in0.0 mm 0.00 in/hr0.0 mm/hr 0.00 in0.0 mm
05:55 PM 63.7°F17.6°C 48.2°F9.0°C 57% 7.0 mph SW11.3 kmh SW 13.0 mph20.9 kmh 29.87 in1011.5 mb 0.00 in0.0 mm 0.00 in/hr0.0 mm/hr 0.00 in0.0 mm
05:56 PM 63.7°F17.6°C 48.2°F9.0°C 57% 7.0 mph SW11.3 kmh SW 13.0 mph20.9 kmh 29.87 in1011.5 mb 0.00 in0.0 mm 0.00 in/hr0.0 mm/hr 0.00 in0.0 mm
05:57 PM 63.7°F17.6°C 48.2°F9.0°C 57% 7.0 mph SW11.3 kmh SW 13.0 mph20.9 kmh 29.87 in1011.5 mb 0.00 in0.0 mm 0.00 in/hr0.0 mm/hr 0.00 in0.0 mm
05:58 PM 63.7°F17.6°C 48.2°F9.0°C 57% 7.0 mph SW11.3 kmh SW 13.0 mph20.9 kmh 29.87 in1011.5 mb 0.00 in0.0 mm 0.00 in/hr0.0 mm/hr 0.00 in0.0 mm
05:59 PM 63.7°F17.6°C 48.2°F9.0°C 57% 7.0 mph SW11.3 kmh SW 13.0 mph20.9 kmh 29.87 in1011.5 mb 0.00 in0.0 mm 0.00 in/hr0.0 mm/hr 0.00 in0.0 mm
06:00 PM 63.7°F17.6°C 48.2°F9.0°C 57% 7.0 mph SW11.3 kmh SW 13.0 mph20.9 kmh 29.87 in1011.5 mb 0.00 in0.0 mm 0.00 in/hr0.0 mm/hr 0.00 in0.0 mm
06:01 PM 63.7°F17.6°C 48.2°F9.0°C 57% 7.0 mph SW11.3 kmh SW 13.0 mph20.9 kmh 29.87 in1011.5 mb 0.00 in0.0 mm 0.00 in/hr0.0 mm/hr 0.00 in0.0 mm
06:02 PM 63.7°F17.6°C 48.2°F9.0°C 57% 7.0 mph SW11.3 kmh SW 13.0 mph20.9 kmh 29.87 in1011.5 mb 0.00 in0.0 mm 0.00 in/hr0.0 mm/hr 0.00 in0.0 mm
06:03 PM 63.7°F17.6°C 48.2°F9.0°C 57% 7.0 mph SW11.3 kmh SW 13.0 mph20.9 kmh 29.87 in1011.5 mb 0.00 in0.0 mm 0.00 in/hr0.0 mm/hr 0.00 in0.0 mm
06:04 PM 63.7°F17.6°C 48.2°F9.0°C 57% 7.0 mph SW11.3 kmh SW 13.0 mph20.9 kmh 29.87 in1011.5 mb 0.00 in0.0 mm 0.00 in/hr0.0 mm/hr 0.00 in0.0 mm
06:05 PM 63.7°F17.6°C 48.2°F9.0°C 57% 7.0 mph SW11.3 kmh SW 13.0 mph20.9 kmh 29.87 in1011.5 mb 0.00 in0.0 mm 0.00 in/hr0.0 mm/hr 0.00 in0.0 mm
06:06 PM 63.7°F17.6°C 48.2°F9.0°C 57% 7.0 mph SW11.3 kmh SW 13.0 mph20.9 kmh 29.87 in1011.5 mb 0.00 in0.0 mm 0.00 in/hr0.0 mm/hr 0.00 in0.0 mm
06:07 PM 63.7°F17.6°C 48.2°F9.0°C 57% 7.0 mph SW11.3 kmh SW 13.0 mph20.9 kmh 29.87 in1011.5 mb 0.00 in0.0 mm 0.00 in/hr0.0 mm/hr 0.00 in0.0 mm
06:08 PM 63.7°F17.6°C 48.2°F9.0°C 57% 7.0 mph SW11.3 kmh SW 13.0 mph20.9 kmh 29.87 in1011.5 mb 0.00 in0.0 mm 0.00 in/hr0.0 mm/hr 0.00 in0.0 mm
06:09 PM 63.7°F17.6°C 48.2°F9.0°C 57% 7.0 mph SW11.3 kmh SW 13.0 mph20.9 kmh 29.87 in1011.5 mb 0.00 in0.0 mm 0.00 in/hr0.0 mm/hr 0.00 in0.0 mm
06:10 PM 63.7°F17.6°C 48.2°F9.0°C 57% 7.0 mph SW11.3 kmh SW 13.0 mph20.9 kmh 29.87 in1011.5 mb 0.00 in0.0 mm 0.00 in/hr0.0 mm/hr 0.00 in0.0 mm
06:11 PM 63.7°F17.6°C 48.2°F9.0°C 57% 7.0 mph SW11.3 kmh SW 13.0 mph20.9 kmh 29.87 in1011.5 mb 0.00 in0.0 mm 0.00 in/hr0.0 mm/hr 0.00 in0.0 mm
06:12 PM 63.7°F17.6°C 48.2°F9.0°C 57% 7.0 mph SW11.3 kmh SW 13.0 mph20.9 kmh 29.87 in1011.5 mb 0.00 in0.0 mm 0.00 in/hr0.0 mm/hr 0.00 in0.0 mm
06:13 PM 63.7°F17.6°C 48.2°F9.0°C 57% 7.0 mph SW11.3 kmh SW 13.0 mph20.9 kmh 29.87 in1011.5 mb 0.00 in0.0 mm 0.00 in/hr0.0 mm/hr 0.00 in0.0 mm
06:14 PM 63.7°F17.6°C 48.2°F9.0°C 57% 7.0 mph SW11.3 kmh SW 13.0 mph20.9 kmh 29.87 in1011.5 mb 0.00 in0.0 mm 0.00 in/hr0.0 mm/hr 0.00 in0.0 mm
06:15 PM 63.7°F17.6°C 48.2°F9.0°C 57% 7.0 mph SW11.3 kmh SW 13.0 mph20.9 kmh 29.87 in1011.5 mb 0.00 in0.0 mm 0.00 in/hr0.0 mm/hr 0.00 in0.0 mm
06:16 PM 63.7°F17.6°C 48.2°F9.0°C 57% 7.0 mph SW11.3 kmh SW 13.0 mph20.9 kmh 29.87 in1011.5 mb 0.00 in0.0 mm 0.00 in/hr0.0 mm/hr 0.00 in0.0 mm
06:17 PM 63.7°F17.6°C 48.2°F9.0°C 57% 7.0 mph SW11.3 kmh SW 13.0 mph20.9 kmh 29.87 in1011.5 mb 0.00 in0.0 mm 0.00 in/hr0.0 mm/hr 0.00 in0.0 mm
06:18 PM 63.7°F17.6°C 48.2°F9.0°C 57% 7.0 mph SW11.3 kmh SW 13.0 mph20.9 kmh 29.87 in1011.5 mb 0.00 in0.0 mm 0.00 in/hr0.0 mm/hr 0.00 in0.0 mm
06:19 PM 63.7°F17.6°C 48.2°F9.0°C 57% 7.0 mph SW11.3 kmh SW 13.0 mph20.9 kmh 29.87 in1011.5 mb 0.00 in0.0 mm 0.00 in/hr0.0 mm/hr 0.00 in0.0 mm
06:20 PM 63.7°F17.6°C 48.2°F9.0°C 57% 7.0 mph SW11.3 kmh SW 13.0 mph20.9 kmh 29.87 in1011.5 mb 0.00 in0.0 mm 0.00 in/hr0.0 mm/hr 0.00 in0.0 mm
06:21 PM 63.7°F17.6°C 48.2°F9.0°C 57% 7.0 mph SW11.3 kmh SW 13.0 mph20.9 kmh 29.87 in1011.5 mb 0.00 in0.0 mm 0.00 in/hr0.0 mm/hr 0.00 in0.0 mm
06:22 PM 63.7°F17.6°C 48.2°F9.0°C 57% 7.0 mph SW11.3 kmh SW 13.0 mph20.9 kmh 29.87 in1011.5 mb 0.00 in0.0 mm 0.00 in/hr0.0 mm/hr 0.00 in0.0 mm
06:23 PM 63.7°F17.6°C 48.2°F9.0°C 57% 7.0 mph SW11.3 kmh SW 13.0 mph20.9 kmh 29.87 in1011.5 mb 0.00 in0.0 mm 0.00 in/hr0.0 mm/hr 0.00 in0.0 mm
06:24 PM 63.7°F17.6°C 48.2°F9.0°C 57% 7.0 mph SW11.3 kmh SW 13.0 mph20.9 kmh 29.87 in1011.5 mb 0.00 in0.0 mm 0.00 in/hr0.0 mm/hr 0.00 in0.0 mm
06:25 PM 63.7°F17.6°C 48.2°F9.0°C 57% 7.0 mph SW11.3 kmh SW 13.0 mph20.9 kmh 29.87 in1011.5 mb 0.00 in0.0 mm 0.00 in/hr0.0 mm/hr 0.00 in0.0 mm
06:26 PM 63.7°F17.6°C 48.2°F9.0°C 57% 7.0 mph SW11.3 kmh SW 13.0 mph20.9 kmh 29.87 in1011.5 mb 0.00 in0.0 mm 0.00 in/hr0.0 mm/hr 0.00 in0.0 mm
06:27 PM 63.7°F17.6°C 48.2°F9.0°C 57% 7.0 mph SW11.3 kmh SW 13.0 mph20.9 kmh 29.87 in1011.5 mb 0.00 in0.0 mm 0.00 in/hr0.0 mm/hr 0.00 in0.0 mm
06:28 PM 63.7°F17.6°C 48.2°F9.0°C 57% 7.0 mph SW11.3 kmh SW 13.0 mph20.9 kmh 29.87 in1011.5 mb 0.00 in0.0 mm 0.00 in/hr0.0 mm/hr 0.00 in0.0 mm
06:29 PM 63.7°F17.6°C 48.2°F9.0°C 57% 7.0 mph SW11.3 kmh SW 13.0 mph20.9 kmh 29.87 in1011.5 mb 0.00 in0.0 mm 0.00 in/hr0.0 mm/hr 0.00 in0.0 mm
06:30 PM 63.7°F17.6°C 48.2°F9.0°C 57% 7.0 mph SW11.3 kmh SW 13.0 mph20.9 kmh 29.87 in1011.5 mb 0.00 in0.0 mm 0.00 in/hr0.0 mm/hr 0.00 in0.0 mm
06:31 PM 63.7°F17.6°C 48.2°F9.0°C 57% 7.0 mph SW11.3 kmh SW 13.0 mph20.9 kmh 29.87 in1011.5 mb 0.00 in0.0 mm 0.00 in/hr0.0 mm/hr 0.00 in0.0 mm
06:32 PM 63.7°F17.6°C 48.2°F9.0°C 57% 7.0 mph SW11.3 kmh SW 13.0 mph20.9 kmh 29.87 in1011.5 mb 0.00 in0.0 mm 0.00 in/hr0.0 mm/hr 0.00 in0.0 mm
06:33 PM 63.7°F17.6°C 48.2°F9.0°C 57% 7.0 mph SW11.3 kmh SW 13.0 mph20.9 kmh 29.87 in1011.5 mb 0.00 in0.0 mm 0.00 in/hr0.0 mm/hr 0.00 in0.0 mm
06:34 PM 63.7°F17.6°C 48.2°F9.0°C 57% 7.0 mph SW11.3 kmh SW 13.0 mph20.9 kmh 29.87 in1011.5 mb 0.00 in0.0 mm 0.00 in/hr0.0 mm/hr 0.00 in0.0 mm
06:35 PM 63.7°F17.6°C 48.2°F9.0°C 57% 7.0 mph SW11.3 kmh SW 13.0 mph20.9 kmh 29.87 in1011.5 mb 0.00 in0.0 mm 0.00 in/hr0.0 mm/hr 0.00 in0.0 mm
06:36 PM 63.7°F17.6°C 48.2°F9.0°C 57% 7.0 mph SW11.3 kmh SW 13.0 mph20.9 kmh 29.87 in1011.5 mb 0.00 in0.0 mm 0.00 in/hr0.0 mm/hr 0.00 in0.0 mm
06:37 PM 63.7°F17.6°C 48.2°F9.0°C 57% 7.0 mph SW11.3 kmh SW 13.0 mph20.9 kmh 29.87 in1011.5 mb 0.00 in0.0 mm 0.00 in/hr0.0 mm/hr 0.00 in0.0 mm
06:38 PM 63.7°F17.6°C 48.2°F9.0°C 57% 7.0 mph SW11.3 kmh SW 13.0 mph20.9 kmh 29.87 in1011.5 mb 0.00 in0.0 mm 0.00 in/hr0.0 mm/hr 0.00 in0.0 mm
06:39 PM 63.7°F17.6°C 48.2°F9.0°C 57% 7.0 mph SW11.3 kmh SW 13.0 mph20.9 kmh 29.87 in1011.5 mb 0.00 in0.0 mm 0.00 in/hr0.0 mm/hr 0.00 in0.0 mm
06:40 PM 63.7°F17.6°C 48.2°F9.0°C 57% 7.0 mph SW11.3 kmh SW 13.0 mph20.9 kmh 29.87 in1011.5 mb 0.00 in0.0 mm 0.00 in/hr0.0 mm/hr 0.00 in0.0 mm
06:41 PM 63.7°F17.6°C 48.2°F9.0°C 57% 7.0 mph SW11.3 kmh SW 13.0 mph20.9 kmh 29.87 in1011.5 mb 0.00 in0.0 mm 0.00 in/hr0.0 mm/hr 0.00 in0.0 mm
06:42 PM 63.7°F17.6°C 48.2°F9.0°C 57% 7.0 mph SW11.3 kmh SW 13.0 mph20.9 kmh 29.87 in1011.5 mb 0.00 in0.0 mm 0.00 in/hr0.0 mm/hr 0.00 in0.0 mm
06:43 PM 63.7°F17.6°C 48.2°F9.0°C 57% 7.0 mph SW11.3 kmh SW 13.0 mph20.9 kmh 29.87 in1011.5 mb 0.00 in0.0 mm 0.00 in/hr0.0 mm/hr 0.00 in0.0 mm
06:44 PM 63.7°F17.6°C 48.2°F9.0°C 57% 7.0 mph SW11.3 kmh SW 13.0 mph20.9 kmh 29.87 in1011.5 mb 0.00 in0.0 mm 0.00 in/hr0.0 mm/hr 0.00 in0.0 mm
06:45 PM 63.7°F17.6°C 48.2°F9.0°C 57% 7.0 mph SW11.3 kmh SW 13.0 mph20.9 kmh 29.87 in1011.5 mb 0.00 in0.0 mm 0.00 in/hr0.0 mm/hr 0.00 in0.0 mm
06:46 PM 63.7°F17.6°C 48.2°F9.0°C 57% 7.0 mph SW11.3 kmh SW 13.0 mph20.9 kmh 29.87 in1011.5 mb 0.00 in0.0 mm 0.00 in/hr0.0 mm/hr 0.00 in0.0 mm
06:47 PM 63.7°F17.6°C 48.2°F9.0°C 57% 7.0 mph SW11.3 kmh SW 13.0 mph20.9 kmh 29.87 in1011.5 mb 0.00 in0.0 mm 0.00 in/hr0.0 mm/hr 0.00 in0.0 mm
06:48 PM 63.7°F17.6°C 48.2°F9.0°C 57% 7.0 mph SW11.3 kmh SW 13.0 mph20.9 kmh 29.87 in1011.5 mb 0.00 in0.0 mm 0.00 in/hr0.0 mm/hr 0.00 in0.0 mm
06:49 PM 63.7°F17.6°C 48.2°F9.0°C 57% 7.0 mph SW11.3 kmh SW 13.0 mph20.9 kmh 29.87 in1011.5 mb 0.00 in0.0 mm 0.00 in/hr0.0 mm/hr 0.00 in0.0 mm
06:50 PM 63.7°F17.6°C 48.2°F9.0°C 57% 7.0 mph SW11.3 kmh SW 13.0 mph20.9 kmh 29.87 in1011.5 mb 0.00 in0.0 mm 0.00 in/hr0.0 mm/hr 0.00 in0.0 mm
06:51 PM 63.7°F17.6°C 48.2°F9.0°C 57% 7.0 mph SW11.3 kmh SW 13.0 mph20.9 kmh 29.87 in1011.5 mb 0.00 in0.0 mm 0.00 in/hr0.0 mm/hr 0.00 in0.0 mm
06:52 PM 63.7°F17.6°C 48.2°F9.0°C 57% 7.0 mph SW11.3 kmh SW 13.0 mph20.9 kmh 29.87 in1011.5 mb 0.00 in0.0 mm 0.00 in/hr0.0 mm/hr 0.00 in0.0 mm
06:53 PM 63.7°F17.6°C 48.2°F9.0°C 57% 7.0 mph SW11.3 kmh SW 13.0 mph20.9 kmh 29.87 in1011.5 mb 0.00 in0.0 mm 0.00 in/hr0.0 mm/hr 0.00 in0.0 mm
06:54 PM 63.7°F17.6°C 48.2°F9.0°C 57% 7.0 mph SW11.3 kmh SW 13.0 mph20.9 kmh 29.87 in1011.5 mb 0.00 in0.0 mm 0.00 in/hr0.0 mm/hr 0.00 in0.0 mm
06:55 PM 63.7°F17.6°C 48.2°F9.0°C 57% 7.0 mph SW11.3 kmh SW 13.0 mph20.9 kmh 29.87 in1011.5 mb 0.00 in0.0 mm 0.00 in/hr0.0 mm/hr 0.00 in0.0 mm
06:56 PM 63.7°F17.6°C 48.2°F9.0°C 57% 7.0 mph SW11.3 kmh SW 13.0 mph20.9 kmh 29.87 in1011.5 mb 0.00 in0.0 mm 0.00 in/hr0.0 mm/hr 0.00 in0.0 mm
06:57 PM 63.7°F17.6°C 48.2°F9.0°C 57% 7.0 mph SW11.3 kmh SW 13.0 mph20.9 kmh 29.87 in1011.5 mb 0.00 in0.0 mm 0.00 in/hr0.0 mm/hr 0.00 in0.0 mm
06:58 PM 63.7°F17.6°C 48.2°F9.0°C 57% 7.0 mph SW11.3 kmh SW 13.0 mph20.9 kmh 29.87 in1011.5 mb 0.00 in0.0 mm 0.00 in/hr0.0 mm/hr 0.00 in0.0 mm
06:59 PM 63.7°F17.6°C 48.2°F9.0°C 57% 7.0 mph SW11.3 kmh SW 13.0 mph20.9 kmh 29.87 in1011.5 mb 0.00 in0.0 mm 0.00 in/hr0.0 mm/hr 0.00 in0.0 mm
07:00 PM 63.7°F17.6°C 48.2°F9.0°C 57% 7.0 mph SW11.3 kmh SW 13.0 mph20.9 kmh 29.87 in1011.5 mb 0.00 in0.0 mm 0.00 in/hr0.0 mm/hr 0.00 in0.0 mm
07:01 PM 63.7°F17.6°C 48.2°F9.0°C 57% 7.0 mph SW11.3 kmh SW 13.0 mph20.9 kmh 29.87 in1011.5 mb 0.00 in0.0 mm 0.00 in/hr0.0 mm/hr 0.00 in0.0 mm
07:02 PM 63.7°F17.6°C 48.2°F9.0°C 57% 7.0 mph SW11.3 kmh SW 13.0 mph20.9 kmh 29.87 in1011.5 mb 0.00 in0.0 mm 0.00 in/hr0.0 mm/hr 0.00 in0.0 mm
07:03 PM 63.7°F17.6°C 48.2°F9.0°C 57% 7.0 mph SW11.3 kmh SW 13.0 mph20.9 kmh 29.87 in1011.5 mb 0.00 in0.0 mm 0.00 in/hr0.0 mm/hr 0.00 in0.0 mm
07:04 PM 63.7°F17.6°C 48.2°F9.0°C 57% 7.0 mph SW11.3 kmh SW 13.0 mph20.9 kmh 29.87 in1011.5 mb 0.00 in0.0 mm 0.00 in/hr0.0 mm/hr 0.00 in0.0 mm
07:05 PM 63.7°F17.6°C 48.2°F9.0°C 57% 7.0 mph SW11.3 kmh SW 13.0 mph20.9 kmh 29.87 in1011.5 mb 0.00 in0.0 mm 0.00 in/hr0.0 mm/hr 0.00 in0.0 mm
07:06 PM 63.7°F17.6°C 48.2°F9.0°C 57% 7.0 mph SW11.3 kmh SW 13.0 mph20.9 kmh 29.87 in1011.5 mb 0.00 in0.0 mm 0.00 in/hr0.0 mm/hr 0.00 in0.0 mm
07:07 PM 63.7°F17.6°C 48.2°F9.0°C 57% 7.0 mph SW11.3 kmh SW 13.0 mph20.9 kmh 29.87 in1011.5 mb 0.00 in0.0 mm 0.00 in/hr0.0 mm/hr 0.00 in0.0 mm
07:08 PM 63.7°F17.6°C 48.2°F9.0°C 57% 7.0 mph SW11.3 kmh SW 13.0 mph20.9 kmh 29.87 in1011.5 mb 0.00 in0.0 mm 0.00 in/hr0.0 mm/hr 0.00 in0.0 mm
07:09 PM 63.7°F17.6°C 48.2°F9.0°C 57% 7.0 mph SW11.3 kmh SW 13.0 mph20.9 kmh 29.87 in1011.5 mb 0.00 in0.0 mm 0.00 in/hr0.0 mm/hr 0.00 in0.0 mm
07:10 PM 63.7°F17.6°C 48.2°F9.0°C 57% 7.0 mph SW11.3 kmh SW 13.0 mph20.9 kmh 29.87 in1011.5 mb 0.00 in0.0 mm 0.00 in/hr0.0 mm/hr 0.00 in0.0 mm
07:11 PM 63.7°F17.6°C 48.2°F9.0°C 57% 7.0 mph SW11.3 kmh SW 13.0 mph20.9 kmh 29.87 in1011.5 mb 0.00 in0.0 mm 0.00 in/hr0.0 mm/hr 0.00 in0.0 mm
07:12 PM 63.7°F17.6°C 48.2°F9.0°C 57% 7.0 mph SW11.3 kmh SW 13.0 mph20.9 kmh 29.87 in1011.5 mb 0.00 in0.0 mm 0.00 in/hr0.0 mm/hr 0.00 in0.0 mm
07:13 PM 63.7°F17.6°C 48.2°F9.0°C 57% 7.0 mph SW11.3 kmh SW 13.0 mph20.9 kmh 29.87 in1011.5 mb 0.00 in0.0 mm 0.00 in/hr0.0 mm/hr 0.00 in0.0 mm
07:14 PM 63.7°F17.6°C 48.2°F9.0°C 57% 7.0 mph SW11.3 kmh SW 13.0 mph20.9 kmh 29.87 in1011.5 mb 0.00 in0.0 mm 0.00 in/hr0.0 mm/hr 0.00 in0.0 mm
07:15 PM 63.7°F17.6°C 48.2°F9.0°C 57% 7.0 mph SW11.3 kmh SW 13.0 mph20.9 kmh 29.87 in1011.5 mb 0.00 in0.0 mm 0.00 in/hr0.0 mm/hr 0.00 in0.0 mm
07:16 PM 63.7°F17.6°C 48.2°F9.0°C 57% 7.0 mph SW11.3 kmh SW 13.0 mph20.9 kmh 29.87 in1011.5 mb 0.00 in0.0 mm 0.00 in/hr0.0 mm/hr 0.00 in0.0 mm
07:17 PM 63.7°F17.6°C 48.2°F9.0°C 57% 7.0 mph SW11.3 kmh SW 13.0 mph20.9 kmh 29.87 in1011.5 mb 0.00 in0.0 mm 0.00 in/hr0.0 mm/hr 0.00 in0.0 mm
07:18 PM 63.7°F17.6°C 48.2°F9.0°C 57% 7.0 mph SW11.3 kmh SW 13.0 mph20.9 kmh 29.87 in1011.5 mb 0.00 in0.0 mm 0.00 in/hr0.0 mm/hr 0.00 in0.0 mm
07:19 PM 63.7°F17.6°C 48.2°F9.0°C 57% 7.0 mph SW11.3 kmh SW 13.0 mph20.9 kmh 29.87 in1011.5 mb 0.00 in0.0 mm 0.00 in/hr0.0 mm/hr 0.00 in0.0 mm
07:20 PM 63.7°F17.6°C 48.2°F9.0°C 57% 7.0 mph SW11.3 kmh SW 13.0 mph20.9 kmh 29.87 in1011.5 mb 0.00 in0.0 mm 0.00 in/hr0.0 mm/hr 0.00 in0.0 mm
07:21 PM 63.7°F17.6°C 48.2°F9.0°C 57% 7.0 mph SW11.3 kmh SW 13.0 mph20.9 kmh 29.87 in1011.5 mb 0.00 in0.0 mm 0.00 in/hr0.0 mm/hr 0.00 in0.0 mm
07:22 PM 63.7°F17.6°C 48.2°F9.0°C 57% 7.0 mph SW11.3 kmh SW 13.0 mph20.9 kmh 29.87 in1011.5 mb 0.00 in0.0 mm 0.00 in/hr0.0 mm/hr 0.00 in0.0 mm
07:23 PM 63.7°F17.6°C 48.2°F9.0°C 57% 7.0 mph SW11.3 kmh SW 13.0 mph20.9 kmh 29.87 in1011.5 mb 0.00 in0.0 mm 0.00 in/hr0.0 mm/hr 0.00 in0.0 mm
07:24 PM 63.7°F17.6°C 48.2°F9.0°C 57% 7.0 mph SW11.3 kmh SW 13.0 mph20.9 kmh 29.87 in1011.5 mb 0.00 in0.0 mm 0.00 in/hr0.0 mm/hr 0.00 in0.0 mm
07:25 PM 63.7°F17.6°C 48.2°F9.0°C 57% 7.0 mph SW11.3 kmh SW 13.0 mph20.9 kmh 29.87 in1011.5 mb 0.00 in0.0 mm 0.00 in/hr0.0 mm/hr 0.00 in0.0 mm
07:26 PM 63.7°F17.6°C 48.2°F9.0°C 57% 7.0 mph SW11.3 kmh SW 13.0 mph20.9 kmh 29.87 in1011.5 mb 0.00 in0.0 mm 0.00 in/hr0.0 mm/hr 0.00 in0.0 mm
07:27 PM 63.7°F17.6°C 48.2°F9.0°C 57% 7.0 mph SW11.3 kmh SW 13.0 mph20.9 kmh 29.87 in1011.5 mb 0.00 in0.0 mm 0.00 in/hr0.0 mm/hr 0.00 in0.0 mm
07:28 PM 63.7°F17.6°C 48.2°F9.0°C 57% 7.0 mph SW11.3 kmh SW 13.0 mph20.9 kmh 29.87 in1011.5 mb 0.00 in0.0 mm 0.00 in/hr0.0 mm/hr 0.00 in0.0 mm
07:29 PM 63.7°F17.6°C 48.2°F9.0°C 57% 7.0 mph SW11.3 kmh SW 13.0 mph20.9 kmh 29.87 in1011.5 mb 0.00 in0.0 mm 0.00 in/hr0.0 mm/hr 0.00 in0.0 mm
07:30 PM 63.7°F17.6°C 48.2°F9.0°C 57% 7.0 mph SW11.3 kmh SW 13.0 mph20.9 kmh 29.87 in1011.5 mb 0.00 in0.0 mm 0.00 in/hr0.0 mm/hr 0.00 in0.0 mm
07:31 PM 63.7°F17.6°C 48.2°F9.0°C 57% 7.0 mph SW11.3 kmh SW 13.0 mph20.9 kmh 29.87 in1011.5 mb 0.00 in0.0 mm 0.00 in/hr0.0 mm/hr 0.00 in0.0 mm
07:32 PM 63.7°F17.6°C 48.2°F9.0°C 57% 7.0 mph SW11.3 kmh SW 13.0 mph20.9 kmh 29.87 in1011.5 mb 0.00 in0.0 mm 0.00 in/hr0.0 mm/hr 0.00 in0.0 mm
07:33 PM 63.7°F17.6°C 48.2°F9.0°C 57% 7.0 mph SW11.3 kmh SW 13.0 mph20.9 kmh 29.87 in1011.5 mb 0.00 in0.0 mm 0.00 in/hr0.0 mm/hr 0.00 in0.0 mm
07:34 PM 63.7°F17.6°C 48.2°F9.0°C 57% 7.0 mph SW11.3 kmh SW 13.0 mph20.9 kmh 29.87 in1011.5 mb 0.00 in0.0 mm 0.00 in/hr0.0 mm/hr 0.00 in0.0 mm
07:35 PM 63.7°F17.6°C 48.2°F9.0°C 57% 7.0 mph SW11.3 kmh SW 13.0 mph20.9 kmh 29.87 in1011.5 mb 0.00 in0.0 mm 0.00 in/hr0.0 mm/hr 0.00 in0.0 mm
07:36 PM 63.7°F17.6°C 48.2°F9.0°C 57% 7.0 mph SW11.3 kmh SW 13.0 mph20.9 kmh 29.87 in1011.5 mb 0.00 in0.0 mm 0.00 in/hr0.0 mm/hr 0.00 in0.0 mm
07:37 PM 63.7°F17.6°C 48.2°F9.0°C 57% 7.0 mph SW11.3 kmh SW 13.0 mph20.9 kmh 29.87 in1011.5 mb 0.00 in0.0 mm 0.00 in/hr0.0 mm/hr 0.00 in0.0 mm
07:38 PM 63.7°F17.6°C 48.2°F9.0°C 57% 7.0 mph SW11.3 kmh SW 13.0 mph20.9 kmh 29.87 in1011.5 mb 0.00 in0.0 mm 0.00 in/hr0.0 mm/hr 0.00 in0.0 mm
07:39 PM 63.7°F17.6°C 48.2°F9.0°C 57% 7.0 mph SW11.3 kmh SW 13.0 mph20.9 kmh 29.87 in1011.5 mb 0.00 in0.0 mm 0.00 in/hr0.0 mm/hr 0.00 in0.0 mm
07:40 PM 63.7°F17.6°C 48.2°F9.0°C 57% 7.0 mph SW11.3 kmh SW 13.0 mph20.9 kmh 29.87 in1011.5 mb 0.00 in0.0 mm 0.00 in/hr0.0 mm/hr 0.00 in0.0 mm
07:41 PM 63.7°F17.6°C 48.2°F9.0°C 57% 7.0 mph SW11.3 kmh SW 13.0 mph20.9 kmh 29.87 in1011.5 mb 0.00 in0.0 mm 0.00 in/hr0.0 mm/hr 0.00 in0.0 mm
07:42 PM 63.7°F17.6°C 48.2°F9.0°C